GEFSNGP_500_meanwind_006.txt.gz
Wind_Speed
52 47 39 38 42 42 42 39 37 36 42 42 41 41 39 39 40 44 48 50 48 47 48 49 51 53 54 55 57 58 55 44 34 31 31 34 36 36 38 41 43 44 44 44
60 55 46 44 46 45 41 40 39 40 45 46 47 43 39 40 44 48 49 48 47 48 49 50 52 54 54 56 58 54 42 31 27 28 30 32 33 36 39 42 44 46 45 43
60 57 49 48 51 47 43 41 40 44 41 41 41 40 43 46 48 48 46 46 47 48 49 51 52 52 55 57 52 39 26 22 23 26 28 30 33 36 40 43 45 46 43 38
54 51 53 52 51 48 45 48 44 44 40 37 40 45 48 48 47 45 45 46 47 48 49 50 50 52 54 47 33 22 19 20 23 25 27 31 34 38 42 44 45 44 41 37
48 48 48 51 55 52 51 52 49 48 48 48 49 48 48 47 43 43 45 46 46 47 48 46 48 49 41 28 19 17 18 21 22 25 29 33 37 42 44 44 43 42 39 37
49 47 46 50 53 54 51 52 56 56 54 50 47 47 47 44 42 43 44 44 45 44 42 44 44 36 24 18 16 17 18 20 24 28 32 36 41 44 45 44 41 39 37 37
48 45 45 48 50 51 52 50 47 46 46 46 45 44 45 45 43 42 42 42 40 38 39 41 33 23 17 15 16 17 19 23 26 31 35 40 44 46 44 42 41 39 38 37
48 49 46 40 43 48 43 35 34 36 37 38 39 40 40 38 38 39 38 36 34 35 37 31 22 16 14 15 16 18 22 26 30 34 39 43 45 45 43 42 41 40 38 37
43 46 45 37 36 42 43 39 36 34 32 32 32 33 34 35 35 34 32 30 31 34 31 21 14 12 13 14 17 21 25 29 33 38 42 44 44 43 42 42 42 41 38 37
40 40 42 43 39 32 28 27 28 28 29 29 29 28 29 29 28 27 26 28 31 29 20 14 11 11 12 15 18 23 27 32 36 40 43 44 44 42 41 42 42 41 39 35
32 33 34 34 29 24 24 24 25 27 27 27 27 27 26 25 23 23 25 27 27 20 13 10 9 10 12 15 20 25 29 33 38 41 43 43 43 42 41 41 41 39 37 33
28 30 33 32 26 21 21 22 24 25 26 27 27 26 24 21 21 23 25 24 18 12 10 8 7 9 12 16 21 26 30 35 39 40 41 42 42 41 41 41 39 37 34 31
23 26 28 28 25 21 18 18 20 22 25 25 23 20 19 20 21 23 22 16 11 10 9 6 6 9 13 18 22 27 32 36 38 39 41 41 41 42 43 41 38 36 33 30
18 20 20 21 22 21 20 19 21 22 22 20 18 17 18 20 21 20 14 10 11 10 7 4 5 9 13 18 23 29 33 36 38 40 41 41 41 43 42 40 39 36 32 28
18 20 21 22 22 21 21 22 21 19 16 15 15 16 18 19 16 11 11 13 12 9 4 2 6 9 14 19 25 30 34 36 39 40 40 41 42 43 41 39 38 35 30 26
20 22 24 24 22 22 22 20 16 14 12 12 13 14 15 12 9 12 15 15 11 7 3 2 6 10 15 21 26 30 34 37 39 40 40 40 41 41 40 39 37 33 28 24
21 23 24 24 22 21 18 14 12 11 11 11 11 11 8 6 11 16 17 14 10 6 2 3 7 12 18 22 27 31 35 37 39 39 38 38 40 41 40 39 37 33 29 27
20 20 20 19 19 17 15 12 11 10 9 8 8 6 5 10 15 18 16 13 9 5 3 4 9 15 19 23 27 31 34 36 37 37 36 37 39 41 40 39 37 34 32 31
19 18 18 18 17 16 14 12 10 9 8 6 5 4 9 15 19 18 15 11 7 5 4 7 11 16 19 22 26 30 33 34 36 36 35 36 38 39 39 38 36 35 33 32
19 19 19 18 17 15 13 11 10 8 6 6 5 8 14 20 20 18 15 10 8 6 5 8 12 16 18 22 26 29 32 33 35 35 35 35 37 38 38 37 36 34 33 32
19 19 18 16 15 13 12 10 9 8 8 7 7 12 19 24 22 18 14 10 8 6 6 9 13 15 19 23 26 29 31 32 34 34 34 35 36 37 37 36 36 35 33 32
17 17 16 15 14 13 12 11 10 10 10 9 11 17 24 26 22 18 14 11 9 7 7 10 13 16 21 25 27 29 30 32 34 34 34 35 35 36 36 37 36 36 34 33
17 16 15 15 14 13 12 12 12 12 12 12 17 23 30 28 23 19 16 13 9 7 8 11 14 19 24 27 28 29 30 32 33 34 34 35 35 35 35 35 36 36 35 34
16 15 15 15 15 14 13 13 14 14 15 18 23 30 33 29 24 20 16 13 10 7 8 11 16 21 25 27 29 30 31 32 33 33 34 35 34 34 34 34 34 34 33 33
16 16 16 16 16 15 15 14 15 16 19 23 30 35 33 29 25 21 17 13 10 8 9 13 18 23 25 27 28 29 31 32 33 34 34 34 34 34 34 33 32 31 31 30
17 17 17 17 18 18 18 17 18 20 24 30 37 38 33 30 26 22 18 14 10 9 11 15 19 22 24 25 27 29 31 32 33 34 35 35 35 35 34 33 31 29 27 27
19 19 19 19 20 21 21 21 23 26 31 38 41 37 34 30 26 22 19 14 11 10 12 15 18 20 22 23 25 27 30 32 33 34 36 37 37 37 37 35 32 29 27 25

GEFSNGP_500_meanwind_012.txt.gz
Wind_Speed
53 50 48 46 47 46 46 46 46 44 42 41 42 43 43 43 43 45 46 43 40 35 34 37 41 47 53 59 63 62 61 59 57 53 45 39 37 36 37 38 41 44 48 51
60 59 58 55 51 50 51 52 52 50 47 45 46 46 44 42 42 43 41 36 34 33 36 41 47 53 59 61 60 58 56 55 52 45 40 38 38 38 40 42 46 49 52 53
63 63 64 62 57 56 55 55 57 57 54 51 49 47 48 48 45 43 39 36 34 38 43 47 52 56 58 57 56 54 53 50 45 40 39 38 39 41 44 47 50 52 53 52
58 60 63 60 58 59 59 58 59 60 60 59 57 56 55 53 49 46 45 45 45 46 47 49 53 54 53 52 51 50 48 44 40 38 39 40 42 45 48 51 52 53 52 51
52 56 59 56 56 56 56 57 58 61 63 63 61 59 58 55 52 49 47 46 44 45 46 48 49 49 49 47 47 46 42 39 37 38 40 42 44 47 50 51 51 51 51 50
48 51 53 51 50 50 50 50 51 54 57 58 58 57 54 49 46 45 44 44 43 43 44 44 45 45 44 44 43 40 37 36 37 39 41 44 46 48 49 49 50 51 51 49
40 44 45 45 45 44 44 44 42 43 44 44 46 47 46 43 41 40 39 39 39 39 40 40 41 40 40 41 39 35 34 35 38 40 43 45 46 47 48 49 51 51 49 46
36 39 39 40 43 43 41 38 37 37 37 37 36 37 36 36 35 35 34 35 35 35 36 36 36 37 38 36 33 32 33 35 38 41 43 44 45 46 48 49 49 47 44 43
30 32 33 33 35 36 36 35 35 32 28 30 31 32 31 29 28 29 30 30 31 32 32 32 33 34 33 30 29 30 33 36 39 41 42 43 44 45 46 46 45 43 41 38
25 25 24 23 22 24 25 25 25 25 24 25 25 24 23 22 23 25 26 27 29 29 30 30 30 29 26 25 27 30 33 36 39 39 40 42 42 43 43 42 41 40 36 32
18 16 13 10 9 12 17 16 16 17 15 14 16 17 18 19 21 23 25 26 26 26 27 27 24 22 22 24 27 30 34 36 38 39 40 41 41 41 40 39 38 35 31 28
8 6 5 7 7 9 10 10 8 7 8 10 12 15 16 18 21 22 23 22 23 23 23 20 18 18 20 23 27 30 33 35 37 39 40 40 40 39 38 37 35 32 30 27
9 12 11 9 8 8 7 6 6 7 8 10 12 14 16 18 19 20 20 20 21 20 16 14 13 16 19 23 27 31 33 35 37 39 39 39 39 38 36 35 33 32 30 26
11 12 12 9 6 6 6 7 8 8 8 9 11 13 15 16 17 17 18 18 16 12 9 9 11 15 19 24 28 31 33 35 37 38 38 37 37 36 34 33 32 31 29 26
9 9 8 7 7 7 8 9 10 9 9 9 11 12 13 13 14 16 15 12 8 5 5 7 10 15 21 25 28 30 33 35 36 36 36 35 35 34 33 32 31 31 28 25
9 7 7 8 7 7 7 8 8 8 9 9 10 10 11 12 14 12 7 3 3 2 3 6 11 17 22 25 27 29 32 33 34 34 34 34 34 34 33 32 31 29 27 24
10 8 7 7 5 5 6 7 7 7 7 7 8 9 10 11 8 2 4 6 4 1 3 8 13 18 22 24 26 29 31 31 31 32 32 33 33 33 32 31 30 29 27 24
11 10 10 8 7 6 7 8 8 7 7 6 6 8 8 4 3 8 9 8 5 2 6 11 16 20 22 24 26 28 29 30 31 31 32 33 32 32 32 31 30 29 28 26
13 13 13 12 10 9 9 10 9 8 6 5 5 5 2 5 10 11 10 8 5 5 9 13 17 20 22 24 26 27 28 30 31 32 33 33 32 30 30 29 29 29 28 26
14 14 15 14 12 10 11 11 11 9 7 5 4 3 7 11 13 13 10 8 6 7 11 15 18 20 23 25 27 27 29 31 33 34 34 32 30 28 27 27 27 28 28 27
16 16 16 14 12 13 14 13 12 9 7 6 5 7 12 14 15 13 10 7 7 9 12 16 19 22 24 26 28 30 32 35 36 36 35 32 29 26 25 24 25 27 28 27
17 16 15 14 15 16 16 15 12 10 8 7 7 11 15 17 16 13 10 8 8 10 14 17 19 22 25 28 30 33 36 39 39 38 35 31 28 25 24 23 23 25 27 28
17 17 17 18 19 19 17 15 13 11 9 8 9 14 18 19 17 14 11 9 8 11 14 17 20 23 26 29 32 36 39 41 41 39 35 31 29 26 24 23 23 24 26 28
19 20 21 21 21 19 17 15 14 12 10 9 11 16 20 20 17 14 11 9 8 11 15 17 20 23 26 30 34 38 41 42 42 40 36 33 31 29 27 25 24 23 24 26
20 22 23 22 21 19 17 16 14 12 10 10 13 18 22 21 19 15 12 9 9 11 14 17 19 22 26 30 34 38 41 43 43 41 39 35 33 31 29 28 26 25 24 25
21 23 23 22 21 19 18 16 14 12 10 11 15 20 23 22 20 16 13 10 9 11 13 16 18 21 25 29 33 37 40 42 42 42 41 38 36 34 32 31 30 28 27 26
21 22 22 22 21 20 18 16 14 12 11 12 18 23 26 24 21 17 13 10 9 10 12 15 16 19 23 28 32 36 39 40 41 42 42 41 39 37 35 34 33 32 31 30

GEFSNGP_500_meanwind_018.txt.gz
Wind_Speed
48 47 46 45 43 43 43 44 46 47 47 46 46 45 44 43 42 42 43 44 45 46 46 47 48 46 47 49 50 50 50 50 50 50 49 49 48 48 47 46 46 47 49 52
55 53 53 52 49 48 48 48 48 49 48 47 47 47 47 46 46 46 47 47 48 49 50 50 49 49 49 50 49 49 49 49 49 49 48 48 47 46 46 46 48 50 53 55
62 61 61 60 56 55 56 55 55 55 53 53 52 51 51 51 51 51 52 52 53 53 53 52 50 48 47 47 49 48 47 47 47 46 47 46 46 46 46 48 51 53 54 55
57 59 62 61 61 60 60 59 60 60 60 59 59 58 57 57 56 55 55 55 55 55 54 51 48 46 47 48 47 45 44 45 45 46 45 45 45 46 48 51 52 53 54 54
48 52 54 54 55 56 57 56 55 56 57 58 57 58 57 55 54 54 53 53 53 51 49 46 46 45 44 44 44 43 43 44 44 44 44 45 46 48 50 52 53 53 53 52
45 48 50 51 51 52 53 52 50 50 50 51 51 52 51 50 49 49 49 48 47 45 43 43 41 39 40 40 41 42 43 43 42 42 43 45 47 49 50 51 52 51 51 49
40 43 46 46 47 48 48 47 45 44 45 46 47 47 47 47 46 45 44 42 40 39 38 36 34 35 36 38 39 40 41 40 40 41 43 45 48 49 49 50 50 49 48 46
32 33 34 37 39 40 41 39 37 37 37 38 39 40 40 40 38 37 36 35 35 36 33 30 31 33 34 36 37 37 37 37 39 41 43 46 47 47 47 47 46 45 44 42
28 27 28 29 31 31 31 31 30 31 31 32 32 32 32 32 32 30 31 32 30 27 25 26 29 31 32 33 34 34 34 36 39 41 43 44 44 44 44 43 42 41 40 38
26 25 27 27 28 28 28 27 26 26 25 25 24 23 24 24 26 27 27 25 23 21 22 24 27 29 30 30 30 31 33 36 39 41 42 42 41 40 40 39 39 37 35 34
23 23 23 24 24 23 22 20 20 19 18 17 16 18 20 20 21 20 17 17 16 17 20 22 25 26 26 26 27 30 33 36 38 39 39 38 38 37 37 36 35 33 31 29
17 18 18 17 16 14 12 11 10 11 12 13 14 15 15 14 12 11 11 12 13 15 18 20 21 21 22 23 27 31 34 35 37 37 36 36 35 35 34 33 32 30 28 26
11 10 10 8 7 6 8 9 8 9 10 10 9 8 8 7 7 6 7 9 11 14 15 15 16 17 20 24 28 31 33 34 35 36 36 35 34 32 32 31 30 28 27 24
5 7 9 10 12 12 12 11 9 8 7 7 6 6 5 3 3 4 7 9 10 10 10 11 13 17 21 25 28 31 32 34 35 36 35 33 31 29 28 28 28 27 25 22
4 8 11 12 11 10 10 9 7 6 5 5 4 2 1 2 4 5 6 6 5 5 6 10 15 19 23 26 28 30 33 35 35 35 33 29 27 25 25 25 26 25 23 20
4 8 10 10 9 8 8 7 6 5 4 3 2 2 2 4 5 5 3 3 3 5 8 13 17 21 23 26 29 32 34 35 34 32 29 26 23 22 22 23 24 24 21 18
5 7 8 8 8 7 6 6 5 5 4 3 2 2 3 4 4 4 6 6 6 8 12 15 18 21 24 28 31 33 33 33 31 28 25 22 20 20 21 22 23 22 20 18
7 7 7 7 7 6 5 5 4 3 3 2 2 4 5 5 8 9 9 8 8 11 14 16 19 23 26 29 31 31 31 30 28 27 24 21 19 19 20 22 23 22 20 19
9 8 7 6 5 4 3 3 3 2 2 2 3 4 6 9 11 10 9 9 10 12 15 18 21 25 28 29 30 31 31 29 28 26 23 21 19 19 21 23 23 22 20 19
11 10 8 6 5 4 3 2 2 1 1 2 3 6 9 11 12 10 9 9 11 14 17 20 23 26 28 30 31 33 32 30 28 26 24 22 20 21 22 24 24 23 21 19
12 11 10 8 7 5 4 3 2 2 2 2 5 9 12 13 12 10 10 10 13 15 18 22 24 26 29 31 34 35 34 33 30 28 26 24 22 23 24 25 26 25 23 21
14 13 12 10 9 7 5 4 4 4 4 5 8 11 14 14 13 11 10 11 13 16 19 22 24 27 31 33 36 37 36 35 32 30 28 27 25 25 26 26 27 26 25 23
16 15 14 12 11 9 8 7 6 6 6 8 11 14 15 14 12 11 10 12 14 17 19 22 25 29 32 35 37 38 37 36 34 33 31 30 28 28 28 28 28 28 27 25
17 18 17 16 13 11 10 10 9 9 9 10 13 17 17 16 13 11 11 12 14 16 19 22 26 29 32 35 37 38 38 37 37 36 34 33 32 31 30 30 29 29 28 28
17 18 19 18 16 14 13 13 12 11 10 12 16 19 19 16 14 12 11 12 13 15 18 22 26 29 33 35 36 37 38 38 38 38 38 37 37 36 34 33 32 31 30 29
17 18 19 19 17 16 15 14 13 12 12 14 18 21 20 18 15 12 11 11 12 14 18 21 25 29 32 34 35 36 37 38 39 40 40 40 40 40 39 39 38 36 35 34
15 18 19 19 19 18 17 16 14 13 13 15 20 23 22 19 16 13 11 11 12 13 17 20 24 28 31 33 35 36 37 39 40 41 42 42 43 43 43 43 43 42 42 41

GEFSNGP_500_meanwind_024.txt.gz
Wind_Speed
42 42 42 40 39 40 40 41 42 40 40 39 40 40 38 37 36 36 36 37 39 41 42 43 45 47 48 49 51 51 52 51 50 51 53 53 52 51 50 50 51 51 51 52
43 43 44 43 42 43 43 43 44 44 44 45 45 42 42 42 42 42 42 44 45 47 48 49 50 51 51 51 51 49 50 50 51 53 53 52 50 48 49 50 50 50 51 52
42 44 43 45 46 45 45 46 48 49 50 49 49 49 49 49 49 49 49 50 51 52 51 51 51 51 50 49 48 48 50 52 52 52 51 49 47 48 48 49 49 50 51 53
41 42 43 45 44 42 43 46 48 50 51 52 53 52 52 53 53 53 52 52 51 49 48 48 49 48 48 47 47 49 51 53 53 51 48 46 46 47 47 48 49 50 52 53
38 39 41 43 41 40 41 43 44 46 48 49 49 50 51 50 50 49 48 47 45 44 44 45 45 44 44 45 48 51 54 54 50 46 44 44 45 45 46 47 49 51 51 51
35 36 38 41 39 39 39 41 41 41 43 44 44 45 47 46 46 45 44 43 42 41 40 41 41 41 43 46 50 53 52 48 43 42 42 42 43 44 46 47 49 49 49 49
33 34 37 38 37 37 36 37 37 37 37 38 40 41 42 42 42 42 41 39 38 37 36 37 38 41 45 49 51 49 43 40 39 39 40 41 42 44 45 47 47 48 47 44
29 30 33 34 34 34 34 33 32 32 32 32 33 34 35 36 36 35 34 34 33 32 33 34 38 43 47 46 43 39 36 36 36 37 39 40 42 43 44 45 46 44 42 38
27 29 31 31 32 32 31 29 28 28 28 28 28 28 28 29 29 29 28 28 28 29 30 35 40 43 41 37 33 32 33 34 35 37 39 41 42 43 44 43 41 38 35 33
26 28 30 30 30 30 28 27 25 24 23 24 24 23 23 24 24 24 24 24 26 28 31 36 36 33 30 29 29 29 31 33 35 38 40 41 42 42 41 38 34 32 30 29
25 26 26 27 26 24 23 21 19 18 18 18 18 18 18 18 18 19 21 23 25 28 29 27 24 22 23 24 25 28 31 34 37 39 40 41 40 38 34 30 27 26 25 25
18 19 19 19 18 16 14 12 12 11 11 12 12 12 12 13 14 16 18 19 19 18 17 16 17 18 20 23 26 30 33 35 38 39 40 38 34 30 26 23 22 22 22 21
12 12 12 11 10 8 7 6 5 5 5 5 6 7 8 9 10 10 9 8 8 9 11 12 14 17 21 24 27 30 33 36 38 37 35 31 27 22 20 19 20 20 19 16
5 5 5 6 7 6 5 5 5 5 5 4 3 4 5 5 5 3 3 5 6 7 9 12 15 19 22 25 28 32 34 35 34 31 28 24 20 18 18 19 19 18 16 13
2 1 2 4 6 7 7 8 8 8 7 6 5 4 3 1 1 2 3 4 5 8 11 14 17 20 23 27 30 31 32 30 28 25 21 18 17 17 17 18 18 16 14 12
2 1 3 5 7 8 9 9 9 9 8 7 6 5 3 3 3 4 5 6 8 10 13 16 19 22 26 28 29 29 27 25 23 20 18 18 17 17 17 17 16 15 13 11
2 2 4 6 8 9 9 10 10 9 8 7 6 5 5 6 7 7 8 9 11 13 16 19 22 24 26 26 26 25 23 21 20 18 18 18 18 17 16 15 14 13 11 10
3 4 5 6 7 8 9 10 9 9 8 7 6 7 8 9 10 10 11 12 13 16 18 21 23 24 25 24 24 23 21 20 19 18 18 18 18 17 16 14 13 12 10 10
6 5 5 6 8 9 9 9 9 9 8 8 9 10 11 11 11 12 12 14 16 18 20 21 23 24 24 24 24 23 21 20 19 19 18 18 18 18 16 14 13 12 11 11
7 6 6 7 7 8 9 9 9 9 9 10 11 12 12 12 12 13 14 15 17 19 20 22 23 24 25 25 25 24 23 22 20 20 19 19 18 18 17 15 14 14 13 12
9 8 7 7 8 8 9 9 9 10 11 12 13 14 13 12 13 14 14 16 18 19 21 22 25 27 28 28 28 27 26 25 23 22 21 20 19 19 18 17 16 15 15 14
11 10 8 8 8 9 9 10 10 11 12 14 14 14 13 13 13 14 15 16 18 19 21 24 28 30 31 31 31 31 30 29 27 26 25 24 22 21 20 19 19 18 17 17
13 12 11 10 9 10 10 11 11 12 14 14 15 14 13 13 13 14 15 16 18 20 23 26 30 32 33 34 34 34 33 33 32 31 30 29 27 25 24 22 21 20 20 19
16 14 13 12 11 11 11 12 13 14 15 15 16 14 13 13 14 14 15 16 18 20 23 27 30 33 35 36 36 35 36 36 36 36 35 34 33 31 29 27 25 23 22 21
17 16 14 13 13 12 12 13 14 15 16 17 17 15 14 14 14 14 15 16 18 20 23 27 30 33 36 37 37 37 37 37 38 38 39 39 38 37 35 33 30 28 25 24
18 17 16 15 15 14 14 15 15 16 18 19 19 17 15 14 14 14 14 15 17 19 23 26 29 32 35 37 38 39 39 39 39 39 40 41 41 41 41 40 38 35 32 30
18 18 17 17 17 16 16 16 17 18 19 21 21 19 17 15 15 14 14 15 16 18 21 24 26 29 32 34 36 38 39 40 41 41 41 42 42 43 43 43 43 42 40 38

GEFSNGP_500_meanwind_030.txt.gz
Wind_Speed
38 36 33 32 33 33 33 34 32 30 29 34 37 39 40 41 41 40 41 44 46 45 44 45 45 46 47 49 51 52 54 55 56 56 55 55 56 57 60 63 64 65 64 64
40 38 39 40 39 37 35 33 34 35 36 44 48 48 48 49 50 51 53 54 53 52 50 50 49 50 51 52 54 55 56 56 56 56 56 56 57 60 63 65 67 65 63 59
38 38 39 42 41 42 44 44 45 45 48 50 49 49 49 50 51 52 54 54 54 54 54 53 52 52 52 53 53 54 55 55 54 55 56 58 59 61 65 66 64 61 57 54
36 37 39 38 38 41 43 45 47 48 48 48 47 47 47 47 49 50 51 52 53 53 54 53 52 51 51 51 51 51 51 51 52 54 57 59 61 64 66 64 59 55 52 51
34 35 35 32 36 39 40 43 44 45 45 45 44 46 46 46 47 48 49 49 50 50 50 50 49 48 48 47 47 48 49 49 52 55 58 60 61 62 60 57 52 49 49 49
31 32 31 34 36 37 37 41 40 40 40 40 41 43 44 44 45 46 46 47 47 47 47 46 45 45 44 44 44 45 47 49 52 56 58 57 56 54 51 48 46 47 48 48
27 29 31 33 34 35 38 41 40 39 39 39 40 41 41 42 42 42 43 43 42 42 41 40 40 39 39 40 41 43 46 50 53 54 53 50 48 46 45 45 46 46 46 45
26 28 32 32 33 35 37 37 38 37 38 38 38 39 39 39 38 38 38 37 37 36 35 35 34 34 36 38 41 43 46 48 48 47 46 44 43 43 43 43 43 41 40 38
26 27 29 30 32 33 34 35 35 36 36 37 37 37 36 35 34 33 32 32 31 31 30 30 30 32 35 38 41 42 43 41 40 39 39 40 41 41 40 39 36 34 32 29
25 27 29 30 31 32 32 33 34 34 35 35 34 33 32 31 29 28 27 27 26 26 26 27 29 32 35 36 37 36 34 33 34 35 36 37 38 36 34 31 28 26 24 23
23 26 27 28 29 29 30 30 31 31 30 28 27 25 24 23 22 22 22 21 21 22 23 25 27 28 28 28 28 29 30 31 33 34 34 33 30 27 25 22 21 20 20 20
22 24 25 26 26 26 25 24 23 22 20 19 18 17 16 16 15 15 16 17 18 20 20 21 21 22 23 24 26 28 30 31 31 30 27 25 22 20 19 18 19 20 20 19
20 21 22 22 21 19 18 15 14 13 11 10 9 9 9 9 10 11 12 13 14 14 15 16 18 20 22 24 26 28 29 28 26 24 21 20 19 18 17 17 18 18 18 17
15 15 15 15 14 12 10 9 7 6 4 4 4 3 3 4 6 8 9 9 10 12 14 16 18 21 24 26 27 27 25 24 22 20 18 18 18 17 17 17 17 16 15 14
10 10 9 8 6 5 4 3 3 3 3 3 1 0 1 3 4 5 6 8 10 12 15 18 21 23 25 26 27 26 24 22 20 18 18 18 17 17 16 15 14 14 12 11
6 7 6 4 2 3 2 2 4 5 4 4 3 3 3 4 5 6 7 9 12 14 17 21 23 25 26 26 25 23 21 20 19 18 18 17 16 15 14 12 12 11 10 9
4 5 4 2 1 2 4 5 6 5 4 4 4 5 6 6 7 8 9 11 14 17 20 23 25 26 26 26 25 23 21 19 18 17 17 16 14 13 11 10 9 8 8 8
3 3 3 3 2 4 6 6 5 5 5 5 6 7 7 7 8 9 11 13 16 19 22 24 25 26 26 25 24 22 20 19 18 17 16 14 13 11 9 8 8 7 7 8
3 1 1 1 3 6 6 6 5 5 6 7 8 8 8 8 9 10 12 15 17 20 23 25 25 26 26 25 23 22 21 20 19 17 16 13 12 10 9 8 8 7 8 10
3 2 1 1 4 5 5 4 5 6 7 8 8 8 8 8 10 11 13 16 19 22 24 25 25 26 27 26 25 25 24 22 21 19 16 14 12 11 10 10 9 9 10 11
5 3 2 3 3 4 4 4 5 7 8 8 9 8 8 9 10 12 14 17 20 22 23 25 27 28 28 27 28 29 27 25 23 21 18 16 14 13 12 12 11 11 12 13
6 5 4 4 4 4 4 5 6 8 9 9 9 8 8 9 11 12 15 18 20 22 23 27 29 30 29 30 32 32 30 29 27 25 22 19 17 16 15 14 14 13 13 14
8 6 6 5 5 5 6 6 7 9 10 10 9 9 9 10 11 12 15 17 20 22 24 27 29 30 30 33 35 35 34 33 32 30 27 24 22 20 18 16 15 15 14 14
10 8 7 7 7 7 7 8 9 10 11 11 10 9 9 10 11 12 14 17 19 21 24 27 29 30 32 35 36 37 37 37 36 35 34 31 28 24 22 20 18 16 15 14
11 10 9 8 8 8 8 9 10 11 12 12 11 10 9 9 10 11 13 15 17 19 22 26 28 30 33 35 36 37 38 39 39 39 39 37 35 32 28 25 22 19 17 15
13 12 11 10 9 9 10 10 11 13 13 13 12 11 10 10 10 11 12 13 15 17 20 23 26 28 31 33 35 36 37 39 40 41 41 42 41 39 37 33 30 26 23 20
15 14 13 12 12 11 11 12 12 13 14 14 13 12 11 10 10 10 11 12 13 14 17 20 23 26 28 31 33 34 36 38 39 40 41 42 42 43 42 40 38 35 31 28

GEFSNGP_500_meanwind_036.txt.gz
Wind_Speed
34 35 36 36 35 35 35 35 36 37 38 39 41 42 43 44 45 46 47 46 46 47 49 52 54 55 55 56 56 57 57 57 57 57 57 58 58 58 58 59 58 58 58 58
37 37 39 40 41 41 41 42 43 44 46 47 47 48 49 49 49 49 48 48 50 52 55 57 58 58 58 57 58 57 57 56 56 55 55 55 55 54 54 55 55 56 56 57
39 39 40 42 43 44 45 46 47 48 48 49 50 51 51 51 50 50 51 53 55 56 58 58 57 57 57 57 57 56 56 55 54 53 51 50 51 51 52 53 54 54 55 57
38 37 38 40 42 44 45 47 49 50 51 52 52 52 53 53 54 56 57 58 58 57 57 57 56 56 55 55 54 53 52 51 49 48 48 48 48 49 50 51 52 54 56 56
36 35 35 36 38 40 41 44 46 48 50 52 53 53 54 54 55 55 55 55 55 54 54 54 53 53 53 52 51 49 47 46 45 44 45 45 46 48 50 52 53 54 54 53
32 32 32 32 33 35 37 40 41 43 45 47 48 49 49 49 50 50 50 51 51 51 51 51 50 49 49 47 46 44 43 42 42 42 43 45 46 49 51 51 50 49 47 45
26 27 29 29 29 29 32 35 36 38 40 41 43 44 45 46 46 47 47 47 47 47 47 46 45 44 44 42 41 40 39 40 40 42 44 45 46 46 45 44 43 42 41 41
22 22 23 23 24 26 28 30 32 34 36 37 39 40 42 43 43 43 43 43 43 43 42 41 40 39 38 37 37 37 37 38 39 40 41 40 40 39 39 38 38 37 37 35
20 21 21 22 24 25 26 28 29 31 33 35 36 37 37 38 38 38 38 38 38 37 36 35 34 33 33 33 33 34 35 35 36 36 36 36 36 36 35 34 33 31 30 29
20 21 22 23 24 25 26 27 28 30 31 32 33 33 33 33 33 33 32 31 30 29 28 28 28 29 30 30 31 31 32 32 33 33 33 33 32 31 30 28 27 25 24 24
19 19 21 22 23 24 26 27 28 29 29 30 29 29 28 28 27 25 24 24 23 22 22 23 24 25 26 26 28 29 31 31 31 31 30 28 27 26 24 23 22 21 20 20
19 20 21 22 23 23 25 25 26 26 25 24 23 22 21 20 18 18 17 17 17 18 19 20 21 23 25 27 28 29 29 29 28 27 26 24 22 21 20 20 19 18 18 18
17 18 19 19 20 22 22 22 21 20 18 17 15 14 13 12 12 12 12 13 14 15 17 19 22 24 26 27 27 28 27 26 25 24 22 20 19 18 18 17 16 16 16 15
14 15 16 17 18 17 16 14 12 11 10 9 8 7 6 6 7 8 9 10 12 15 18 20 23 24 26 26 26 26 25 23 22 21 19 18 16 15 14 13 12 12 12 11
11 12 13 13 12 10 9 7 6 5 3 2 2 2 2 3 4 6 8 11 14 17 19 22 23 25 26 26 25 24 22 21 20 18 16 14 13 12 10 9 8 8 8 7
8 9 9 10 8 6 5 3 1 1 2 2 2 2 3 4 6 8 11 14 16 18 21 23 25 26 26 25 24 22 20 19 17 16 13 11 10 8 7 6 6 7 7 7
6 6 7 6 4 3 1 1 2 3 3 4 4 5 6 7 9 11 13 16 18 20 22 24 25 25 25 24 22 21 19 17 15 13 11 9 7 6 6 6 7 7 9 10
4 4 4 3 2 1 2 3 5 5 6 6 7 7 8 9 11 13 15 17 19 22 24 25 26 26 26 25 23 21 19 17 15 13 11 8 7 7 7 8 9 10 11 12
4 3 2 1 1 2 4 5 6 7 8 8 8 8 9 10 12 14 16 19 21 23 24 26 27 27 27 27 25 24 21 18 16 14 12 11 10 10 10 10 11 12 13 13
4 2 1 0 1 3 5 6 7 8 9 9 9 9 10 11 13 15 17 20 22 24 25 26 28 29 29 29 28 26 23 20 18 16 15 14 13 13 12 13 13 14 14 14
4 2 2 2 3 4 5 7 8 9 9 9 9 9 10 12 13 15 18 20 22 24 25 27 29 31 32 31 30 29 27 24 21 19 18 17 16 15 15 14 14 14 15 14
5 4 3 3 4 4 6 7 9 10 10 9 9 10 10 12 13 15 18 20 22 24 26 28 30 32 33 33 33 32 30 27 25 23 21 19 18 17 16 15 15 14 14 14
6 5 4 4 5 5 7 8 9 10 10 9 9 10 10 11 13 15 18 20 22 24 26 28 30 32 33 34 35 34 33 30 28 26 24 23 21 20 18 17 16 15 14 13
8 6 6 6 6 6 8 9 10 11 11 10 9 9 10 10 12 14 16 19 21 23 25 27 29 31 33 34 35 36 35 34 32 31 28 26 24 22 20 19 17 16 14 13
9 7 6 7 7 7 9 10 11 11 11 10 10 9 9 9 11 12 15 17 20 22 23 26 28 30 32 33 34 35 36 36 35 34 32 30 27 25 22 21 19 18 16 15
10 9 8 8 8 8 10 11 12 12 12 11 10 10 9 9 9 11 13 15 18 19 20 23 26 28 30 32 33 34 35 35 35 35 35 33 31 29 27 24 22 20 18 17
11 10 10 9 9 9 10 11 12 13 12 11 11 10 9 8 8 9 11 13 15 16 17 20 23 26 28 29 31 32 34 35 35 35 35 35 34 33 31 30 28 25 23 21

GEFSNGP_500_meanwind_042.txt.gz
Wind_Speed
28 30 31 32 33 33 34 34 35 36 37 37 38 38 38 37 38 39 40 40 42 43 45 47 49 51 53 55 57 58 60 62 62 63 63 63 62 62 61 60 60 60 60 59
30 32 33 33 34 35 35 36 37 37 38 39 40 40 41 41 41 42 43 44 45 47 49 52 54 56 57 59 60 61 62 62 62 61 61 60 59 59 59 58 58 57 57 57
33 35 36 36 36 37 37 37 37 38 38 39 40 41 42 42 43 44 45 47 49 51 53 55 58 59 60 61 62 61 61 60 58 58 57 57 56 56 56 55 55 54 54 54
36 37 38 38 37 38 38 38 38 38 39 40 40 40 40 42 43 45 47 49 52 54 55 57 58 59 59 59 59 58 57 57 56 55 55 54 54 53 52 52 51 51 51 51
34 36 37 37 37 36 36 37 37 37 38 38 39 40 41 42 44 46 48 50 51 53 54 56 56 56 56 56 55 55 54 53 52 52 51 50 50 49 48 48 47 47 47 48
29 31 32 32 32 33 33 34 34 35 36 37 38 40 41 43 44 46 47 48 49 50 51 52 52 52 52 52 51 50 49 48 48 47 46 45 45 45 45 45 45 45 44 44
23 25 26 26 26 27 28 29 30 32 33 35 36 38 39 40 41 42 43 44 46 47 48 48 48 48 48 47 46 45 44 42 42 41 41 42 42 42 42 42 42 42 42 41
19 20 20 21 22 23 24 25 27 28 29 31 32 33 34 36 37 39 40 41 42 43 43 43 43 42 41 40 39 38 38 38 38 38 39 39 39 39 39 39 39 38 37 36
18 19 19 20 21 22 23 24 24 25 26 27 29 31 32 33 35 36 37 38 38 38 38 37 36 35 34 34 33 34 34 35 35 36 37 37 37 37 37 36 35 33 32 31
17 18 19 19 20 20 21 23 24 25 26 27 29 30 30 31 32 32 33 33 33 32 31 30 29 28 29 29 30 31 33 34 35 36 36 36 35 34 33 31 29 28 26 25
15 15 16 17 18 20 21 22 23 24 25 26 27 27 27 27 27 27 26 26 25 24 24 23 24 25 26 28 30 32 33 34 34 34 33 32 30 29 27 25 23 22 21 20
14 15 16 16 18 19 20 21 21 22 22 23 23 22 22 21 20 20 19 19 18 18 19 21 22 25 27 29 31 32 33 32 31 30 28 26 25 23 21 19 18 18 16 15
13 13 14 15 16 17 18 18 18 18 18 17 16 15 14 13 13 13 13 13 14 16 18 21 23 26 28 30 31 31 29 28 26 24 23 21 19 17 16 15 14 13 12 11
12 12 13 14 14 14 15 14 14 13 12 11 9 8 7 7 7 8 9 11 14 16 19 22 25 27 29 29 28 27 26 24 22 20 17 15 14 13 11 10 10 9 9 9
11 11 11 11 11 11 10 9 8 7 6 5 3 3 3 3 5 7 9 12 15 18 21 24 26 27 28 27 26 25 23 21 18 15 13 11 10 9 8 8 8 8 8 8
9 9 9 9 8 7 6 5 3 2 1 0 1 2 3 4 6 8 11 14 17 20 23 25 26 27 27 26 24 22 20 18 16 13 10 9 8 7 7 8 8 9 9 11
7 7 6 6 6 5 3 2 0 1 2 3 4 5 5 7 8 11 13 16 19 22 24 25 26 26 26 25 23 21 19 17 14 12 10 9 9 8 9 9 10 11 12 13
7 6 5 4 4 3 1 1 3 4 5 6 6 7 7 9 10 13 15 18 20 23 24 25 26 25 25 24 22 20 18 16 14 13 12 11 11 11 11 12 13 14 15 15
6 5 4 3 2 0 2 4 5 6 7 8 8 8 9 10 12 14 17 19 21 23 25 26 26 25 25 24 22 20 18 17 16 15 14 13 13 13 14 14 15 15 15 15
6 5 3 2 1 2 4 5 6 8 8 8 9 9 10 11 13 16 18 20 22 24 26 26 27 26 26 25 23 22 21 19 18 17 16 16 15 15 15 15 15 15 15 14
6 4 3 3 3 4 5 6 8 8 9 9 9 9 10 12 14 16 18 20 23 24 26 27 28 28 27 27 26 24 23 22 21 20 19 18 17 16 16 15 14 14 14 13
6 5 4 4 5 5 6 7 8 9 9 9 9 10 10 12 14 16 18 20 23 24 26 27 28 29 29 29 28 26 25 24 22 22 21 20 19 18 16 15 14 13 13 13
7 6 6 6 6 7 8 8 9 9 9 9 9 9 10 11 13 15 17 20 22 23 25 26 27 28 29 30 29 28 26 25 23 22 21 20 19 18 17 16 14 13 13 13
8 7 7 7 7 8 9 9 9 9 10 10 9 9 10 11 12 14 16 19 21 22 24 26 27 28 29 30 29 29 28 26 25 23 22 21 19 18 18 17 16 15 14 13
10 9 8 8 9 9 10 11 11 11 11 10 9 9 9 10 11 12 15 17 19 21 23 25 26 27 29 30 30 29 29 28 27 26 25 23 21 20 19 18 18 17 16 16
11 10 9 9 10 10 11 12 12 12 12 11 10 9 8 9 9 11 13 15 17 19 21 22 24 26 27 29 30 30 30 29 29 29 28 27 26 24 23 21 20 19 18 17
12 11 11 10 11 11 12 13 14 13 13 12 11 9 8 8 8 9 12 14 15 17 19 21 22 24 25 27 29 30 30 31 30 30 30 30 29 29 28 27 25 23 22 20

GEFSNGP_500_meanwind_048.txt.gz
Wind_Speed
18 20 21 23 25 26 27 26 26 27 30 31 31 31 31 32 33 34 35 36 37 38 39 40 41 43 44 46 48 49 51 52 54 56 58 59 60 60 60 61 60 59 59 58
19 20 22 24 26 27 28 29 30 31 32 33 33 33 34 35 36 37 38 39 39 40 41 42 43 45 47 48 49 51 53 54 55 57 58 59 59 59 59 59 59 58 57 56
20 21 22 26 27 28 30 31 32 33 34 34 35 35 36 36 37 39 39 40 41 42 43 44 45 46 48 49 50 52 54 55 55 56 57 57 57 57 57 56 56 55 54 53
20 21 24 27 26 28 30 32 33 34 34 35 36 37 37 37 38 38 39 39 40 41 42 43 44 46 48 49 50 51 53 53 54 54 55 54 54 54 53 52 51 50 50 49
19 21 24 25 26 27 28 30 31 32 33 34 35 36 35 36 36 37 37 39 40 41 42 43 44 45 47 48 49 50 50 51 52 52 51 50 50 49 49 48 48 47 47 47
16 18 22 23 24 25 26 28 28 29 30 31 32 32 33 33 34 36 37 38 39 40 41 42 43 44 45 46 47 48 49 49 48 47 47 46 46 45 45 45 45 45 45 45
15 17 20 19 19 20 22 24 24 25 26 27 28 29 30 32 33 35 36 37 38 39 40 41 42 43 44 45 45 45 45 44 44 44 43 43 43 43 44 44 44 44 44 43
14 16 17 17 17 18 19 20 21 22 23 24 25 26 28 30 31 32 34 35 36 37 38 39 40 41 41 41 41 41 41 40 40 41 41 42 42 42 42 42 42 41 39 38
14 15 16 16 16 17 18 18 20 21 21 22 24 25 27 28 29 30 31 33 34 35 36 37 37 37 37 37 37 37 38 38 39 40 41 41 41 40 39 38 36 34 33 31
13 14 15 15 15 16 17 18 19 20 21 22 24 25 26 27 28 29 30 30 31 32 32 32 32 32 32 33 34 36 37 38 39 39 39 38 36 34 32 30 28 26 25 23
13 13 14 15 15 16 17 18 19 20 21 22 22 23 24 25 25 25 26 26 26 26 26 26 27 28 30 32 34 35 36 36 36 35 33 31 28 26 24 22 20 19 18 17
13 13 13 14 14 15 16 17 18 19 19 19 20 20 20 20 20 20 21 21 21 21 22 23 25 28 30 32 33 33 33 32 30 28 25 23 20 18 17 16 14 13 12 11
12 12 13 13 13 14 15 15 16 16 16 16 16 16 16 16 15 15 15 16 17 19 21 23 26 27 29 29 29 29 27 25 23 21 19 16 14 13 11 10 9 8 7 6
11 11 11 11 12 13 13 13 13 13 12 12 12 11 11 11 11 11 12 14 16 18 21 23 24 25 26 26 25 24 22 20 18 15 13 11 9 8 7 6 6 5 5 5
10 9 9 10 10 10 10 11 10 9 9 8 8 7 6 7 7 9 11 13 16 18 20 21 22 23 23 23 22 21 18 16 14 11 9 7 6 6 6 6 7 7 8 9
9 8 8 8 8 8 9 8 7 5 4 4 3 3 3 4 6 9 11 13 15 17 18 20 20 21 21 20 19 18 16 14 12 10 8 7 7 7 7 8 9 10 10 11
8 7 7 7 7 7 6 5 4 2 2 1 0 1 2 4 7 9 11 14 16 17 18 19 19 20 19 19 18 17 15 13 12 11 10 10 9 9 10 11 11 12 12 13
7 6 6 6 6 5 4 2 2 2 2 2 2 2 4 6 8 10 12 14 16 17 18 19 19 19 19 19 18 17 16 15 14 12 12 11 11 12 12 13 13 13 13 13
6 5 5 5 5 3 2 2 3 3 4 4 4 4 5 7 9 11 14 15 17 18 19 20 20 20 19 19 18 18 17 16 15 14 14 13 12 13 13 13 12 12 12 12
5 5 4 4 3 2 2 4 4 5 5 5 5 5 6 8 10 12 14 16 17 19 20 21 21 20 19 19 19 18 18 17 16 15 14 13 12 12 12 11 12 11 11 11
5 4 3 3 2 2 3 5 5 6 6 6 5 6 7 8 10 12 14 16 17 19 20 22 22 21 20 19 18 18 18 17 16 15 14 13 12 11 11 10 11 11 11 11
5 4 3 3 4 4 5 6 6 7 7 6 6 6 7 8 10 12 14 16 17 19 20 21 22 22 21 20 19 18 18 17 16 15 14 13 12 11 11 10 10 10 11 11
6 5 4 5 5 5 6 7 7 7 7 7 6 6 6 8 10 11 13 15 17 19 20 21 22 22 22 21 21 19 18 18 17 16 15 14 13 12 11 11 10 11 11 11
7 6 6 6 6 6 7 8 8 8 8 7 6 6 6 7 8 10 12 14 16 18 19 21 21 22 22 23 23 22 20 19 18 17 16 15 14 13 12 11 11 11 11 12
9 8 7 7 7 8 9 9 10 10 9 8 7 6 6 7 8 9 11 13 15 17 18 20 21 21 22 23 23 23 23 22 21 20 19 17 16 15 13 13 12 12 12 12
10 10 9 9 9 9 10 10 11 11 10 9 8 6 6 6 7 8 9 11 13 15 17 19 20 21 22 22 23 23 24 23 23 23 22 21 20 18 17 15 15 14 14 14
12 11 10 10 10 10 11 12 12 12 12 10 9 7 6 6 6 7 8 10 11 14 16 17 19 20 21 22 22 23 23 24 23 23 23 23 23 22 21 20 19 18 17 17

GEFSNGP_500_meanwind_054.txt.gz
Wind_Speed
14 12 13 18 20 19 21 23 25 27 30 33 33 32 29 27 26 26 27 29 32 34 36 38 39 41 43 45 46 47 49 50 51 52 54 55 56 57 58 59 59 60 60 60
13 13 12 14 16 17 19 24 27 29 31 33 31 30 30 29 29 30 31 33 35 37 39 41 42 43 45 46 47 47 48 49 50 52 54 55 56 57 58 58 59 59 58 58
12 13 13 15 19 21 23 25 27 31 32 32 32 31 31 32 33 34 35 36 37 39 41 41 42 43 44 45 46 47 48 50 50 52 53 53 54 55 56 56 56 56 56 56
12 14 15 19 20 21 24 26 28 29 32 34 35 35 35 35 35 36 36 36 36 37 38 39 40 42 43 45 46 48 49 50 51 51 52 53 53 54 54 54 54 54 53 53
13 15 18 23 24 23 23 26 28 30 32 33 34 35 35 35 35 35 35 35 35 37 38 38 41 42 44 46 47 47 48 49 49 50 51 51 52 51 51 51 51 51 51 50
13 16 19 22 23 22 23 26 27 28 30 32 32 33 33 33 33 33 32 33 35 36 38 40 41 42 43 44 44 45 46 47 48 48 48 48 48 49 49 49 49 48 48 47
14 17 21 23 24 23 25 26 26 27 28 29 30 30 30 30 31 30 31 33 34 36 37 38 39 40 41 42 43 44 44 45 45 45 45 46 46 47 47 46 45 44 43 42
14 17 20 21 22 23 23 24 24 24 25 26 26 27 28 28 29 30 31 32 33 34 35 36 37 38 39 40 40 40 41 42 43 43 44 45 44 44 42 41 40 38 37 35
16 17 19 20 22 22 23 23 23 23 23 23 24 25 26 27 28 29 29 30 31 32 33 34 35 35 36 36 37 38 39 40 41 42 42 41 40 38 35 34 32 30 29 27
17 18 19 19 20 20 21 21 21 21 22 22 22 23 24 25 26 26 27 28 29 29 30 30 31 32 33 34 34 36 37 38 37 37 36 34 31 29 27 26 24 23 21 20
17 18 18 18 19 19 19 20 20 20 20 20 21 22 23 23 23 24 25 25 26 26 27 28 28 30 30 31 32 33 33 33 33 31 29 26 24 22 20 19 18 17 16 14
18 18 18 18 18 18 18 18 18 18 18 19 19 19 19 20 20 21 22 22 23 24 25 26 26 27 28 28 29 30 30 30 28 25 22 19 17 16 16 15 14 13 12 10
17 18 18 18 17 17 16 16 16 16 16 17 16 16 16 17 17 18 18 19 21 22 22 23 23 24 25 25 26 26 26 24 22 20 18 15 13 12 12 12 12 11 11 10
17 17 16 16 15 14 14 14 14 14 14 14 13 13 13 14 14 15 16 18 19 20 20 21 21 21 22 23 23 22 22 20 18 17 16 14 13 12 11 11 10 11 11 10
16 16 15 14 14 13 13 13 12 12 11 11 10 10 10 10 12 13 15 16 17 18 19 19 19 19 20 20 20 19 18 17 17 16 15 13 12 11 11 11 11 11 11 11
15 14 13 12 12 12 11 11 10 9 8 7 7 7 8 9 11 12 14 15 16 17 18 17 17 17 17 18 17 16 16 16 15 15 14 13 12 11 11 12 11 11 11 11
15 13 12 11 11 11 10 9 8 6 5 5 5 5 7 9 10 12 14 15 16 17 17 16 16 15 15 16 16 15 15 14 14 13 13 13 12 12 11 12 12 12 12 12
14 13 12 11 11 10 9 7 6 4 3 3 4 5 7 8 10 12 13 15 16 17 17 16 15 14 14 14 15 15 14 13 13 12 12 12 11 11 10 11 11 11 11 11
13 12 11 11 10 9 7 6 4 3 2 2 4 5 7 8 10 12 14 15 15 16 17 17 16 15 13 13 14 14 13 13 12 12 11 11 10 9 9 10 10 10 11 11
12 11 10 10 9 8 6 4 3 1 1 2 4 5 7 9 10 12 14 15 15 17 18 18 16 15 14 14 14 14 13 12 12 11 10 10 9 9 9 9 9 9 10 10
11 10 10 9 7 6 5 3 1 1 1 2 4 5 7 8 10 12 13 15 16 17 18 17 17 16 16 16 14 14 13 13 12 11 10 10 9 8 8 8 9 9 9 9
11 10 9 8 6 5 3 1 1 1 1 2 3 5 6 8 10 11 13 15 16 17 17 18 19 19 19 17 15 15 14 14 13 12 11 10 9 8 7 7 8 8 8 8
10 9 8 6 5 3 2 1 1 1 1 1 2 4 5 7 9 11 13 15 16 17 17 18 19 20 19 17 16 17 16 15 15 14 12 11 9 8 8 7 8 8 8 8
10 8 7 6 4 3 2 2 2 2 2 1 1 3 4 6 8 10 12 14 15 16 17 18 19 19 18 18 19 19 18 17 16 16 14 12 11 9 8 8 8 9 9 9
9 8 7 5 4 4 4 3 4 4 3 2 0 2 3 5 7 9 11 13 14 15 16 18 19 19 18 19 20 21 20 19 18 17 16 15 13 12 11 10 10 10 10 10
9 8 7 6 5 5 5 5 5 5 4 3 2 1 2 3 5 8 9 11 13 14 15 16 18 19 20 21 20 20 20 20 20 19 19 17 16 15 14 13 13 12 12 12
11 10 9 8 7 6 6 6 6 6 6 5 3 2 1 1 3 5 7 9 11 13 15 16 18 19 20 20 20 19 19 20 20 20 20 19 19 18 17 16 16 16 15 15

GEFSNGP_500_meanwind_060.txt.gz
Wind_Speed
14 17 20 22 23 24 26 27 28 29 31 33 34 34 32 29 28 28 27 28 29 30 30 31 32 34 35 37 39 41 43 45 47 48 50 52 53 54 56 57 58 59 60 61
11 13 16 20 21 23 24 25 27 28 29 30 32 32 32 30 29 28 28 28 28 29 29 30 32 34 36 38 40 41 43 45 46 48 49 51 51 53 55 56 57 58 59 59
7 10 13 16 18 19 23 24 25 27 28 28 28 28 29 29 29 29 30 29 28 28 30 30 32 34 35 37 39 41 43 45 46 48 49 50 51 52 53 54 55 56 56 57
9 10 12 11 13 16 19 21 22 23 24 26 27 27 27 27 28 29 29 30 29 29 29 30 31 32 34 36 38 40 42 43 44 46 48 49 49 50 51 52 52 53 54 54
9 11 12 14 14 15 16 19 21 22 22 23 25 27 28 28 27 27 26 26 26 27 27 29 30 31 33 35 36 38 40 41 42 43 44 45 46 48 49 50 51 51 51 51
9 11 12 13 15 16 17 18 19 20 21 22 23 24 24 24 23 24 25 26 26 27 27 29 31 32 32 34 35 37 38 39 39 41 42 43 45 46 48 48 48 48 47 45
9 10 11 12 13 15 16 18 18 18 20 20 21 22 22 22 22 23 24 24 25 27 28 29 30 31 31 33 34 34 35 36 37 38 40 41 43 43 43 42 41 39 38 37
10 11 12 13 14 15 17 18 18 18 19 19 20 21 21 21 21 21 22 23 25 26 27 27 28 28 29 30 31 31 32 33 34 35 36 38 38 37 36 34 32 31 30 28
12 12 13 14 14 15 16 17 17 17 17 18 18 19 19 19 19 20 22 23 24 24 25 25 26 27 28 28 28 29 29 30 31 32 33 33 32 30 29 28 26 25 23 21
13 14 14 14 14 15 15 16 15 15 15 15 16 16 17 17 18 19 20 20 21 21 22 23 24 25 25 25 25 25 26 27 28 28 29 28 27 25 24 23 22 20 19 17
15 15 15 15 14 15 15 15 14 14 14 13 14 14 15 15 16 16 16 17 18 19 21 22 22 22 22 22 22 22 23 24 24 24 24 23 23 22 20 19 18 17 16 14
15 16 15 15 14 14 14 14 14 13 13 13 13 13 13 13 13 14 15 16 16 17 18 19 20 20 20 19 19 20 20 20 20 20 19 20 19 18 17 16 15 14 13 12
16 16 16 15 15 14 14 13 12 12 11 11 10 10 10 10 11 12 13 13 14 16 17 18 18 17 16 17 17 17 17 17 17 17 17 16 16 16 15 15 14 13 12 11
16 17 16 16 15 14 13 12 12 11 10 9 8 8 8 9 10 10 11 13 14 16 17 17 16 14 14 14 15 15 15 15 14 15 15 14 14 14 14 13 13 12 11 11
16 16 16 15 14 13 13 12 11 10 9 7 7 7 7 8 9 10 12 13 14 16 16 15 14 13 13 13 14 14 14 13 13 13 13 13 13 13 13 12 12 11 11 11
16 16 15 14 14 13 13 12 10 9 8 6 6 6 7 8 9 10 12 13 14 15 15 15 14 13 12 13 13 14 13 12 12 12 11 11 11 11 11 10 10 11 11 11
16 16 15 14 14 13 12 11 9 8 7 6 6 6 7 8 9 11 12 13 14 14 15 15 14 13 12 13 13 13 13 12 11 10 10 9 9 9 9 9 10 10 10 10
15 15 15 14 13 12 11 9 8 7 6 5 6 7 8 8 10 11 13 13 14 14 15 15 15 14 13 13 13 13 12 11 10 9 9 8 8 9 9 9 9 9 9 9
15 15 14 14 13 11 10 8 7 6 5 5 6 7 8 9 10 11 13 14 14 14 15 16 16 16 15 14 14 13 12 11 9 8 8 7 7 7 8 8 8 8 8 8
14 14 13 13 12 11 9 7 6 5 5 5 6 7 8 9 10 12 13 14 14 15 16 16 17 17 16 15 14 14 12 11 10 9 8 7 7 6 6 6 6 7 7 7
13 13 12 12 11 9 8 6 5 4 5 5 6 6 7 9 11 13 14 15 15 16 16 17 17 17 16 15 15 15 13 12 11 10 9 7 6 6 5 5 5 6 6 6
13 12 11 10 9 8 7 5 4 4 4 5 5 6 7 9 11 12 14 15 16 16 17 17 17 17 16 16 16 16 15 14 12 11 9 8 6 6 6 5 5 6 6 6
12 11 10 9 8 6 5 4 3 3 3 4 4 5 7 8 10 12 13 15 16 17 18 18 17 17 17 18 18 17 16 16 14 12 11 9 8 7 6 6 6 6 6 6
11 10 9 8 7 5 4 3 2 2 2 2 3 5 6 8 9 11 12 14 16 18 18 19 18 17 18 18 18 18 18 17 16 14 13 11 10 9 8 7 7 7 7 7
10 10 9 8 6 4 3 2 2 1 1 1 2 3 5 7 8 10 12 13 15 17 18 18 18 18 18 19 19 18 18 18 17 16 16 14 13 12 11 10 9 9 9 9
10 9 9 7 6 4 3 2 2 2 1 1 0 1 3 5 7 9 11 13 15 16 16 17 17 17 18 19 19 19 18 18 18 17 16 16 15 14 13 12 11 11 11 11
10 10 9 8 6 5 4 4 3 3 3 2 2 1 1 2 4 7 9 10 12 13 14 15 15 16 18 19 19 19 18 17 17 17 17 16 16 15 14 14 13 13 13 13

GEFSNGP_500_meanwind_066.txt.gz
Wind_Speed
9 11 13 16 18 19 20 22 24 25 28 29 30 31 33 34 35 35 36 35 34 33 33 33 32 33 34 33 33 34 35 37 38 40 41 43 45 47 49 50 52 54 55 57
7 8 11 12 15 18 19 20 22 25 27 27 29 30 31 32 33 33 33 33 33 33 33 33 32 32 33 33 33 34 35 36 38 40 41 43 45 47 49 50 52 54 55 57
6 8 9 10 12 15 17 19 21 24 25 26 27 27 27 29 29 29 29 28 29 30 29 30 30 31 32 32 32 33 35 36 37 39 41 43 44 46 47 49 50 52 53 55
4 6 8 8 10 13 15 18 19 21 23 24 25 25 26 26 26 28 26 26 25 25 26 27 27 28 29 29 30 31 33 34 36 38 40 41 42 44 45 46 48 50 51 52
5 5 7 8 10 13 15 17 19 21 22 23 23 24 24 24 23 24 25 24 23 24 25 25 26 27 27 28 29 31 32 33 35 36 38 39 40 41 42 44 45 47 48 47
6 7 8 9 11 12 13 15 17 18 19 19 20 21 22 22 21 21 22 22 22 23 25 26 26 27 28 29 30 31 32 33 34 35 36 37 37 38 39 41 42 42 42 41
7 8 9 10 11 12 13 14 15 16 17 18 19 20 20 20 21 21 22 22 24 25 24 25 26 27 27 28 28 29 30 31 32 32 33 33 34 35 36 37 37 37 36 34
9 9 10 11 11 12 13 14 13 14 15 16 17 18 18 19 19 20 21 21 22 22 23 23 24 25 25 26 27 28 28 28 28 29 29 29 30 31 32 32 31 31 30 29
10 11 12 12 12 13 13 13 13 13 13 14 15 15 16 17 18 19 19 19 19 20 21 21 22 23 24 25 25 26 26 26 26 26 26 26 27 27 27 27 27 26 25 24
12 12 13 13 13 13 13 13 13 13 13 12 12 13 14 15 15 15 16 16 17 17 19 20 21 22 23 23 24 23 23 23 23 23 22 22 23 23 23 23 23 22 21 20
12 13 14 14 14 14 14 14 13 13 12 12 12 12 13 12 13 13 14 14 15 17 18 19 20 21 22 22 21 20 20 20 20 19 19 20 20 20 19 19 19 19 18 17
13 14 15 15 15 14 14 14 13 12 12 11 11 10 10 10 10 11 12 12 14 15 16 17 18 19 19 18 18 18 18 18 18 17 17 17 17 17 17 17 17 16 15 14
14 15 15 16 15 15 14 13 13 12 11 10 10 9 8 8 9 9 10 11 13 14 15 16 17 17 17 17 17 17 17 17 17 16 15 15 15 15 15 15 15 14 13 12
14 15 15 16 15 14 14 13 12 11 10 9 8 8 8 8 8 9 10 11 13 13 14 14 15 15 15 15 15 15 15 15 14 13 13 12 12 12 12 12 12 11 11 10
15 15 16 16 15 14 14 13 12 10 9 8 8 8 8 8 9 9 10 11 12 13 13 13 14 14 14 14 14 14 13 13 12 11 11 10 10 10 10 10 10 9 9 9
15 15 16 15 15 14 13 12 11 10 9 8 8 8 8 8 9 10 11 11 12 12 13 13 13 14 14 13 13 13 12 12 11 10 9 9 8 8 9 9 9 8 8 8
15 15 16 15 15 14 13 12 11 10 9 9 9 8 8 9 10 11 11 11 12 12 13 13 13 14 14 14 13 12 12 11 10 10 9 8 7 7 8 8 7 7 7 8
14 15 16 15 14 13 13 12 11 10 9 9 9 9 9 9 10 11 12 12 12 12 13 14 14 14 15 14 13 12 11 10 10 9 8 7 7 7 7 6 6 6 6 7
14 15 15 15 14 13 13 12 11 10 9 9 9 9 9 10 11 12 13 13 13 14 14 14 15 15 15 14 13 12 11 11 10 9 8 7 7 6 6 6 5 5 6 6
13 14 14 14 13 13 12 12 10 9 9 9 9 9 10 11 11 12 14 14 14 15 15 15 16 16 16 15 15 14 12 11 10 9 8 8 7 6 6 5 5 5 5 5
12 13 13 13 13 12 12 11 10 9 8 8 8 9 10 11 12 13 14 15 15 15 16 16 16 17 17 17 16 15 14 12 11 10 9 8 7 7 6 6 5 5 5 5
11 11 12 12 12 11 11 10 9 8 8 8 8 9 10 11 12 13 14 15 15 15 16 17 17 18 18 17 17 17 15 14 12 11 10 9 8 7 7 6 6 6 6 6
10 10 11 11 11 10 10 9 8 8 7 7 7 8 9 10 12 12 13 14 15 15 16 17 18 18 18 18 18 18 17 16 15 14 13 12 11 9 8 7 7 7 7 7
9 9 9 10 10 9 9 8 7 7 6 6 7 7 8 9 11 12 13 13 14 15 16 17 18 18 18 18 18 17 17 17 16 15 15 14 12 11 10 9 9 8 8 8
9 9 9 9 9 8 8 7 7 6 5 5 5 6 7 8 9 10 11 12 14 15 15 16 18 18 18 18 18 17 17 17 17 16 16 15 14 13 12 11 11 10 10 10
9 9 8 8 8 8 8 7 6 6 5 5 5 5 6 7 8 9 10 11 12 13 15 15 17 18 18 18 18 18 17 17 17 17 17 16 16 15 14 14 13 12 12 12
10 9 9 8 8 8 7 7 6 6 5 5 5 5 5 5 6 7 8 9 10 11 13 14 15 16 17 18 17 17 17 17 17 17 17 16 16 15 15 14 14 13 13 13

GEFSNGP_500_meanwind_072.txt.gz
Wind_Speed
5 6 7 9 11 13 14 15 16 17 19 21 22 24 25 26 27 28 29 30 31 31 31 32 33 34 35 35 35 35 36 37 38 39 39 39 39 39 40 41 42 42 43 44
3 5 7 8 10 11 13 15 16 18 19 20 21 22 24 25 26 27 27 28 29 30 31 30 31 32 32 33 33 34 35 36 36 36 36 36 37 38 39 40 40 41 42 43
3 4 6 7 9 11 12 15 17 19 20 21 22 22 23 23 24 25 25 27 27 28 28 28 29 29 30 30 30 30 31 32 33 33 33 34 34 35 37 37 38 39 40 41
3 4 6 6 9 11 13 14 16 17 18 20 21 21 22 22 23 24 24 24 24 25 25 25 26 27 27 27 28 28 29 30 30 30 31 32 33 34 35 35 36 37 37 38
3 5 5 7 9 11 13 14 15 17 17 18 19 20 21 21 22 23 23 22 22 22 23 24 24 24 25 26 26 27 28 28 29 30 31 32 32 32 32 32 33 34 35 35
3 5 6 8 10 11 13 13 14 15 16 17 17 18 19 20 21 21 20 21 21 22 22 23 23 23 24 24 25 26 27 27 28 29 29 29 29 29 29 29 30 31 31 31
5 6 7 8 9 11 11 12 13 14 15 15 16 17 17 18 19 20 20 20 20 21 21 21 22 22 23 24 24 25 26 26 27 27 27 26 26 26 26 27 27 27 27 27
6 7 8 9 10 10 11 12 12 12 13 13 14 15 16 16 17 17 18 19 19 20 20 20 21 21 21 22 23 23 24 24 24 24 24 24 24 24 23 23 23 23 23 22
7 8 9 11 11 11 11 11 11 11 11 11 12 13 13 14 15 16 17 18 18 19 19 19 20 20 20 20 20 21 22 22 22 22 21 21 21 21 20 20 20 20 19 18
8 9 10 11 12 12 12 11 11 10 10 9 9 10 11 12 13 14 14 15 15 15 16 17 18 18 18 19 19 20 20 20 20 20 19 19 19 18 18 17 16 16 15 15
9 10 11 12 12 12 11 11 11 11 10 8 8 8 9 9 10 10 10 11 12 13 14 15 16 17 17 18 18 18 18 17 17 17 17 17 16 15 15 14 14 13 13 12
10 11 12 13 12 12 12 12 11 11 10 9 8 7 7 7 7 8 9 9 10 12 13 14 15 15 15 15 15 15 15 15 15 15 15 14 14 13 12 12 11 11 10 9
10 11 12 13 13 13 12 12 11 10 9 8 8 7 7 6 7 7 8 9 10 11 12 13 13 13 13 13 14 14 14 13 13 13 13 12 11 10 9 9 9 9 8 7
10 11 13 13 13 13 12 12 11 10 9 8 8 7 7 7 8 8 9 9 10 11 11 12 12 12 12 13 13 13 12 12 12 11 10 9 9 8 8 7 7 6 6 5
10 12 13 14 14 13 13 12 11 10 9 8 8 8 8 8 9 9 10 10 10 11 11 11 12 12 12 12 12 12 11 11 10 9 8 7 6 6 6 5 5 5 4 4
10 11 13 13 13 13 13 12 11 10 9 9 8 8 9 9 10 10 10 10 11 11 12 12 13 13 12 12 11 11 10 9 9 8 6 6 5 5 4 4 4 3 3 3
10 11 12 13 13 13 12 12 11 10 9 9 9 9 10 10 11 12 12 12 12 12 13 13 13 13 12 12 11 10 9 8 7 6 5 5 4 4 4 3 3 3 2 2
9 11 12 13 13 12 12 12 11 10 10 10 10 10 10 11 11 12 12 13 13 13 14 15 14 14 13 12 11 10 9 8 7 6 6 5 4 4 4 3 3 2 2 2
9 10 11 12 12 12 11 11 11 10 10 10 10 10 11 11 12 12 13 13 14 14 15 16 15 14 14 13 12 10 9 8 7 6 6 5 4 4 3 3 2 2 2 2
8 9 10 11 11 11 11 11 11 10 10 10 10 11 11 12 12 12 13 14 14 15 15 16 15 15 14 14 13 11 10 9 8 8 7 6 4 4 3 3 2 2 2 2
7 8 9 10 10 10 10 10 10 10 9 10 11 11 12 12 12 13 13 14 15 15 15 16 16 15 15 15 14 13 12 11 10 9 8 7 6 5 4 4 3 3 3 3
7 7 8 9 9 9 9 9 9 9 9 9 10 11 11 12 12 13 14 15 15 16 16 16 17 16 16 15 15 14 13 13 12 11 10 9 8 6 5 5 4 4 4 4
6 7 7 8 8 8 8 8 8 8 8 8 9 10 11 11 12 13 14 15 16 16 16 16 17 17 17 16 15 15 14 14 13 13 12 11 9 8 7 7 6 6 5 5
7 7 7 7 7 8 7 7 7 7 7 7 8 9 10 10 11 12 13 14 15 16 17 17 17 17 17 17 16 15 15 15 14 14 13 13 12 11 9 9 8 7 6 6
8 8 8 7 7 7 7 7 6 6 6 6 6 7 8 9 10 10 11 12 13 14 15 16 17 18 17 17 17 16 16 15 15 14 14 13 13 12 12 11 10 9 8 8
10 9 8 8 7 7 7 6 6 6 6 5 5 6 7 7 8 9 10 11 12 13 14 14 15 16 17 17 17 16 16 16 15 14 14 14 13 13 12 11 11 10 10 9
12 11 10 9 8 8 7 7 6 6 5 5 5 5 5 6 6 7 8 9 10 11 12 13 13 14 14 15 16 16 16 16 15 15 14 14 13 12 12 11 11 10 10 10

GEFSNGP_500_meanwind_078.txt.gz
Wind_Speed
7 9 8 9 10 12 15 18 20 21 22 19 18 17 18 19 22 23 24 25 27 28 29 30 32 33 34 35 35 36 37 37 38 38 39 40 41 41 42 42 41 41 41 40
3 4 4 5 9 13 15 17 20 21 19 20 21 22 19 19 22 23 25 26 27 28 29 30 32 33 34 35 35 36 36 36 37 37 38 38 38 38 37 37 37 37 37 38
2 1 3 7 9 11 14 17 19 20 20 22 23 24 24 23 23 24 25 26 27 28 30 31 31 31 31 32 34 34 34 34 34 34 34 34 34 34 33 34 34 35 35 36
0 3 7 8 10 13 14 16 18 19 21 22 23 24 24 23 23 24 24 26 27 27 28 27 27 27 28 29 30 30 31 31 31 31 31 31 30 30 31 31 32 32 33 33
3 5 8 9 12 13 14 16 18 19 21 22 23 24 24 23 23 23 24 25 25 24 23 23 24 25 26 26 26 26 27 27 27 27 28 28 28 28 29 29 29 29 30 31
5 6 9 10 12 14 16 17 17 18 20 21 22 22 22 21 21 22 23 24 24 22 22 22 22 22 21 21 22 23 24 25 25 26 26 26 27 27 27 28 28 28 28 28
6 8 9 11 13 15 16 17 17 17 18 19 20 20 19 19 20 21 21 22 21 21 20 20 20 19 20 20 21 22 23 23 24 24 25 25 25 26 26 26 26 25 25 24
7 9 10 13 14 15 16 16 16 16 17 17 18 17 17 17 18 17 18 18 18 18 18 18 18 19 19 20 20 21 21 21 22 22 23 23 23 23 22 22 23 22 22 21
8 9 11 13 14 14 14 15 15 16 16 15 15 15 15 15 15 15 15 16 16 16 16 16 17 17 18 18 19 19 19 20 20 20 20 20 20 20 20 20 20 19 19 18
9 10 12 13 14 15 15 15 15 15 14 14 13 13 12 12 13 13 14 14 14 15 15 16 16 16 17 18 18 17 18 18 17 17 17 17 18 18 18 18 17 16 15 14
9 11 12 13 14 15 15 15 15 15 14 13 12 11 11 10 11 11 12 13 13 14 14 15 15 16 16 16 15 15 15 15 16 15 15 16 16 16 15 15 14 13 12 11
9 11 13 13 14 15 16 15 15 15 14 12 11 11 10 10 10 10 10 11 11 12 12 13 13 14 14 14 14 14 15 14 14 14 14 14 13 13 12 12 11 11 10 9
9 11 12 14 15 15 15 15 15 14 14 13 11 11 10 10 10 10 11 11 11 12 11 12 13 13 13 13 13 13 13 13 13 12 12 12 12 11 10 10 10 9 9 8
10 11 12 13 15 15 15 15 15 14 14 13 12 12 11 11 11 11 11 12 12 11 12 12 13 13 13 12 12 12 12 12 12 11 11 10 10 9 8 8 8 8 8 7
9 11 12 13 14 15 15 15 15 15 14 13 13 12 12 11 12 12 12 12 12 12 12 13 13 13 12 11 11 11 11 10 10 10 9 9 8 8 7 7 8 7 7 6
9 10 12 13 14 15 15 15 15 15 14 13 13 12 12 12 12 12 12 13 13 13 13 13 13 13 12 11 11 11 10 10 10 9 9 8 8 8 7 7 7 7 6 6
8 10 11 13 14 14 15 15 15 15 14 14 13 13 13 13 13 13 13 13 13 13 14 14 14 14 13 11 11 10 10 9 9 9 8 8 8 7 7 6 6 6 6 5
7 9 11 12 13 14 14 15 15 15 15 14 14 13 13 13 14 14 14 14 14 14 14 15 15 14 13 12 11 11 11 10 10 9 9 9 8 8 7 6 5 5 5 4
7 9 10 12 13 13 14 15 15 15 15 15 14 14 14 14 14 15 15 15 14 14 15 16 16 15 14 13 12 12 12 11 10 10 10 10 9 8 7 6 5 5 5 4
6 8 10 11 12 13 13 14 14 15 15 14 14 14 14 14 15 15 15 15 15 16 17 17 16 15 14 13 13 12 12 12 12 11 11 10 10 9 8 7 6 5 5 5
6 8 9 10 11 12 13 13 14 14 14 14 14 14 14 14 15 15 16 16 16 17 17 17 17 16 16 15 14 13 13 13 13 13 12 12 11 10 9 8 7 6 6 6
6 7 9 10 11 11 12 12 13 13 14 14 14 14 14 14 14 15 16 16 16 17 17 17 18 18 18 17 15 15 15 14 14 14 14 13 12 11 10 9 8 7 7 6
7 8 8 9 10 10 11 12 12 12 13 13 13 13 14 14 14 14 15 16 16 17 17 17 17 18 18 17 16 16 16 15 15 15 15 14 14 13 12 10 9 8 8 8
9 8 9 9 10 10 10 11 11 11 12 12 12 12 13 13 14 14 14 15 15 16 16 17 17 17 17 17 17 17 16 16 15 15 15 15 14 14 14 12 11 10 10 9
10 10 10 9 9 9 10 10 10 10 11 11 11 11 12 12 13 13 14 14 14 15 15 16 16 17 16 16 17 17 17 17 17 16 16 15 14 14 14 13 13 12 11 11
12 11 11 10 10 10 10 10 10 10 10 10 10 10 11 11 12 12 12 13 13 14 14 14 15 15 16 16 16 16 16 17 17 16 16 15 15 14 14 13 13 13 12 12
14 13 13 12 11 11 10 10 10 10 10 10 10 10 10 10 11 11 11 12 12 12 13 13 13 14 15 15 16 16 16 16 16 16 16 15 15 14 14 13 13 12 12 12

GEFSNGP_500_meanwind_084.txt.gz
Wind_Speed
7 9 10 10 11 12 13 13 15 17 18 19 19 19 17 17 16 17 17 19 21 22 23 25 27 28 29 31 32 32 33 34 34 35 36 36 36 37 37 38 38 39 39 38
6 8 9 11 11 10 11 13 14 16 17 18 19 19 19 18 17 17 17 18 20 22 23 25 26 27 29 29 30 30 31 32 32 33 34 34 34 35 35 36 36 36 36 36
5 6 7 9 9 7 8 11 12 14 15 16 17 18 17 16 16 16 18 19 20 21 23 24 24 26 26 27 28 28 29 29 29 30 31 31 31 32 32 32 32 32 32 32
3 3 3 4 6 7 9 11 12 14 16 17 18 17 16 16 16 17 18 19 20 21 22 23 24 25 25 26 26 26 26 26 27 27 28 28 27 28 28 29 30 30 30 30
2 2 2 4 6 8 9 11 13 14 15 16 15 15 15 15 16 16 17 17 19 20 21 21 22 22 23 23 24 24 25 25 25 25 26 26 26 27 27 28 29 29 29 29
4 5 6 8 9 10 11 12 13 14 14 15 14 14 13 14 14 15 15 16 18 19 19 20 20 20 21 21 21 21 22 23 23 24 24 25 26 26 26 26 27 27 26 26
5 6 7 10 11 12 12 13 14 14 14 14 14 13 13 13 12 13 13 14 14 15 15 16 17 17 18 19 19 20 20 21 22 22 23 23 23 23 24 24 24 24 24 23
6 7 9 11 12 13 13 14 14 14 14 14 13 13 12 11 11 11 11 11 12 12 13 14 14 15 16 17 18 19 19 20 20 20 21 21 21 21 21 21 21 21 20 20
7 8 9 11 13 13 14 14 14 14 14 13 13 12 11 11 10 9 9 10 10 11 11 12 13 13 14 15 17 17 18 18 18 18 18 18 18 18 18 18 18 18 18 18
6 8 9 11 12 13 14 15 15 15 14 14 13 11 10 10 9 9 9 9 9 9 10 10 11 12 13 14 15 15 16 16 16 17 16 17 17 17 16 16 15 15 16 15
7 8 9 11 12 14 15 16 16 16 15 14 13 12 10 9 8 8 8 8 8 8 8 9 10 11 12 13 14 14 14 14 14 15 15 15 14 14 14 14 14 14 13 12
7 8 10 12 13 15 16 16 16 16 15 14 13 12 11 10 9 9 9 9 9 8 9 9 10 11 11 11 11 11 11 11 12 12 13 12 12 12 12 12 12 12 11 11
7 9 11 12 14 15 16 17 16 16 16 14 14 13 12 11 10 10 10 10 9 9 9 9 9 9 9 9 9 9 9 10 10 10 10 10 10 10 11 10 10 10 9 9
7 9 10 12 13 15 16 16 16 16 16 15 14 14 13 12 12 11 11 10 10 10 10 10 10 10 9 8 8 8 8 8 8 8 8 8 8 9 9 9 9 9 8 7
6 8 10 12 13 14 15 16 16 16 16 16 16 15 14 14 14 13 12 12 12 12 12 11 11 10 9 9 8 8 8 7 7 7 7 7 7 8 7 8 8 7 6 6
6 8 9 11 12 14 14 15 16 16 16 16 16 16 16 15 15 15 14 14 14 14 13 13 12 11 10 10 9 9 8 8 8 8 8 7 7 7 7 7 6 6 5 5
5 7 9 10 12 13 14 15 15 16 16 17 17 17 16 16 16 16 16 16 16 16 16 15 13 12 12 11 11 10 9 9 9 8 8 7 7 7 7 6 5 5 4 4
5 7 9 10 11 13 13 14 15 16 16 17 17 17 17 16 17 17 17 17 17 17 17 16 15 14 13 12 12 11 11 11 10 10 9 9 8 8 7 6 5 5 5 4
4 6 8 9 11 12 13 14 15 16 16 17 17 17 17 17 17 18 18 18 18 18 18 18 17 16 15 14 13 13 12 12 12 12 11 10 10 9 8 7 6 6 5 5
3 5 7 8 10 12 13 14 14 15 16 16 17 17 18 17 17 18 18 19 19 20 19 19 19 18 17 16 15 14 14 13 13 13 13 13 12 11 9 8 7 7 7 6
2 4 6 7 9 11 12 13 13 14 15 16 16 17 17 18 17 18 18 19 20 20 20 20 20 20 19 18 17 16 16 15 15 14 14 14 14 13 11 10 9 8 8 8
1 2 4 6 8 10 11 12 13 13 14 15 15 16 17 17 17 18 18 19 19 20 20 21 21 20 19 19 18 18 17 17 16 16 16 15 15 14 13 12 10 9 9 9
1 1 3 5 7 8 9 10 11 12 13 14 14 15 15 16 17 17 18 18 19 19 20 20 21 20 20 19 19 19 19 19 18 18 17 16 16 15 14 13 12 12 11 10
2 1 2 3 5 7 8 9 10 11 11 12 13 13 14 14 15 16 16 17 17 18 19 19 19 19 19 19 19 19 19 19 18 18 17 17 16 16 15 14 13 12 12 11
4 3 3 3 4 6 7 8 8 9 10 10 11 12 12 13 13 14 15 15 16 16 17 18 18 18 18 18 18 19 19 19 18 18 18 17 16 16 15 14 13 13 12 12
6 5 4 4 5 5 6 7 7 8 9 9 10 10 11 11 12 12 13 14 15 15 16 16 17 17 17 17 17 18 18 18 18 18 17 17 16 15 15 14 14 13 13 12
9 7 6 6 6 6 6 6 7 7 8 8 8 9 9 9 10 10 11 12 13 14 14 15 15 16 16 16 16 16 16 16 16 16 16 16 16 15 15 15 14 13 13 13

GEFSNGP_500_meanwind_090.txt.gz
Wind_Speed
10 9 10 10 10 10 10 11 11 12 13 13 13 13 14 13 13 13 14 15 15 15 16 17 19 21 22 23 24 25 26 26 26 27 28 28 29 30 30 31 32 32 32 33
9 9 10 9 9 9 10 11 12 13 13 13 13 14 14 14 13 13 14 14 16 17 17 18 19 20 21 22 23 24 25 26 26 27 27 28 28 29 30 30 31 31 31 31
8 8 8 8 8 9 10 11 12 13 13 14 14 14 14 14 14 14 13 14 15 16 17 18 19 20 21 22 22 23 24 25 25 25 26 26 27 28 28 28 29 29 29 29
7 7 7 7 8 9 10 11 11 12 12 13 13 13 13 13 13 13 13 14 14 15 17 18 18 19 20 21 21 22 23 23 24 24 25 25 26 26 26 26 26 26 26 27
4 5 5 6 8 9 9 9 10 11 11 11 12 12 12 12 12 13 13 14 15 16 17 17 18 18 19 20 20 21 21 22 23 23 23 23 24 24 24 24 24 25 25 25
4 4 5 7 8 8 9 9 9 9 10 11 11 11 11 12 12 12 13 15 15 16 17 18 18 19 19 19 19 20 20 21 22 22 22 22 22 22 22 22 23 23 23 23
4 3 5 6 7 8 8 9 9 9 10 11 11 11 11 11 11 12 13 13 14 15 15 15 16 16 16 17 17 17 18 19 20 20 20 20 20 20 21 21 21 21 21 20
2 3 5 6 6 8 9 10 10 10 10 10 10 10 10 10 10 10 10 10 11 12 12 13 13 14 14 15 15 16 17 17 18 18 18 18 18 19 19 19 19 18 18 17
2 3 4 6 7 9 10 10 10 10 10 10 10 9 9 8 8 8 8 9 9 10 10 11 12 13 13 14 15 16 16 16 17 18 18 18 18 18 17 17 16 16 15 15
1 3 5 6 7 9 10 10 10 10 10 10 10 9 8 7 6 6 6 7 7 8 9 10 11 11 12 12 13 14 15 16 17 17 17 17 17 16 15 14 14 14 13 13
1 3 5 6 8 10 10 10 11 10 10 10 10 9 9 8 7 6 6 7 7 8 8 9 10 11 11 12 12 13 13 14 14 14 14 14 13 13 12 11 11 11 11 11
2 3 5 7 9 10 11 11 11 11 11 11 10 10 10 9 8 8 7 7 7 7 8 9 9 9 9 9 10 10 11 11 11 11 11 11 10 9 9 9 9 9 10 10
2 3 5 7 8 10 11 12 12 12 12 11 11 11 11 10 10 9 8 8 8 8 9 9 8 8 8 8 8 8 9 9 9 9 9 8 8 8 7 7 8 8 9 9
2 3 5 6 8 10 11 12 13 12 12 12 12 12 12 12 11 10 10 10 10 9 9 9 8 8 8 8 8 8 8 8 8 8 8 8 7 7 7 7 7 7 7 7
4 4 5 7 8 10 11 12 13 13 13 12 12 13 13 13 12 12 12 12 12 11 11 10 10 9 8 8 8 9 8 8 8 8 8 8 8 7 7 7 6 6 6 6
4 5 6 7 8 10 11 12 13 13 14 14 14 14 14 14 14 14 13 14 14 14 13 12 11 10 10 9 10 10 10 10 10 10 9 9 8 8 8 7 6 6 6 6
5 5 6 7 8 10 11 12 13 14 14 14 14 15 15 15 15 15 15 16 16 16 15 15 14 13 12 11 11 11 11 11 11 11 10 10 9 9 8 8 7 7 7 7
6 6 6 7 9 10 11 12 13 14 14 14 14 15 15 16 16 17 17 17 17 17 17 17 16 15 14 14 13 13 12 12 12 12 12 12 11 11 10 9 8 8 8 8
7 6 7 8 8 9 10 11 13 14 14 15 15 15 15 16 16 17 17 18 18 18 19 18 18 17 16 16 15 15 14 14 14 14 14 13 13 12 12 11 10 10 10 9
7 6 7 8 8 9 10 11 12 13 14 14 14 15 16 16 16 17 17 18 19 19 19 19 19 18 18 17 17 17 17 16 16 15 15 14 14 13 13 12 12 11 11 11
7 6 6 7 8 9 9 10 11 12 13 13 14 15 15 16 17 17 17 18 19 19 20 20 20 19 18 18 18 18 18 18 17 17 16 16 15 14 14 14 13 13 13 12
8 7 6 6 7 8 9 9 10 11 12 12 13 14 14 15 16 16 17 17 18 19 19 19 19 19 19 19 19 18 18 18 18 18 17 17 16 15 15 15 14 14 14 14
9 7 6 5 5 6 7 8 9 10 10 11 12 12 13 14 14 15 15 16 17 17 18 18 19 19 19 19 19 19 18 18 18 18 17 17 17 16 16 16 15 15 14 14
10 7 6 4 4 4 5 6 7 8 9 9 10 11 11 12 13 13 14 14 15 16 17 17 17 18 18 18 18 18 18 18 17 17 17 17 17 16 16 16 15 15 15 15
10 8 6 4 3 3 3 4 5 6 7 8 8 9 10 11 11 12 12 13 13 14 15 16 16 16 17 17 17 18 17 17 17 17 17 16 16 16 16 15 15 15 15 15
11 9 7 5 3 1 2 3 4 5 5 6 7 8 8 9 10 10 11 11 11 12 13 14 15 15 15 16 16 16 16 16 16 16 16 16 15 15 15 15 14 14 14 14
12 10 8 6 4 2 1 1 3 4 4 5 6 6 7 8 8 8 9 9 10 10 11 12 12 13 14 14 15 15 15 15 15 15 14 14 14 14 14 14 13 13 13 13

GEFSNGP_500_meanwind_096.txt.gz
Wind_Speed
10 11 11 11 11 11 11 12 13 13 14 14 14 14 14 13 13 14 15 16 16 17 17 17 17 18 18 19 20 21 21 22 22 22 23 24 24 24 25 27 27 28 28 29
10 10 10 10 10 10 10 11 12 13 14 14 15 15 14 13 13 13 14 15 15 16 16 16 17 17 17 19 19 19 20 21 21 22 23 22 23 24 26 26 27 28 29 30
10 10 9 10 10 10 10 11 12 13 14 14 15 15 14 14 14 13 13 14 14 15 15 15 16 17 17 18 19 19 20 20 21 21 22 23 24 24 25 25 26 27 27 28
9 9 9 9 9 10 10 11 12 13 14 14 14 14 14 13 13 14 14 14 14 14 14 14 15 16 18 18 18 17 18 18 19 19 20 21 21 21 23 23 24 24 24 25
8 8 8 9 9 10 11 11 12 12 13 13 13 13 13 12 13 13 13 13 13 14 14 15 15 16 16 16 16 16 16 17 18 19 19 19 19 20 20 21 21 22 22 22
7 8 8 8 9 9 10 10 11 11 12 12 11 12 11 11 11 11 12 12 12 12 13 13 13 13 13 14 14 15 16 17 17 17 18 18 18 18 18 19 19 20 21 21
7 7 7 7 8 8 9 10 10 11 11 11 11 11 11 10 10 10 10 10 11 12 12 12 12 12 12 12 13 13 14 15 15 15 15 16 17 17 17 18 18 19 19 19
6 6 7 7 7 7 8 9 10 10 10 10 10 10 10 9 8 8 7 7 8 9 9 9 9 10 10 11 11 12 12 12 13 13 14 14 15 15 16 16 16 17 17 17
6 6 6 6 6 6 7 9 9 9 9 9 9 9 9 8 7 6 5 5 6 7 7 7 7 8 8 9 10 10 10 11 12 13 13 13 14 14 14 15 15 14 14 14
6 5 5 5 5 5 6 8 8 9 8 9 8 8 8 7 6 5 4 4 5 5 6 6 7 7 7 7 8 9 9 10 11 11 12 12 12 12 12 12 12 12 12 12
5 4 3 3 3 4 6 7 7 8 8 8 9 8 8 7 7 6 5 4 5 5 5 5 5 5 5 6 7 8 8 9 9 9 9 9 9 8 9 9 9 9 9 10
5 3 1 1 3 4 5 6 6 7 7 8 8 8 8 7 7 7 6 5 5 5 5 5 5 5 5 5 6 6 6 5 5 6 6 6 6 6 6 6 6 6 7 7
4 3 1 1 2 4 5 6 6 7 7 8 9 9 9 8 8 8 8 7 7 7 7 6 6 5 5 4 4 4 4 3 3 3 3 3 3 3 3 3 4 4 4 5
5 3 2 0 2 4 5 6 6 7 8 9 9 10 10 9 9 10 9 8 8 8 8 8 7 6 5 5 5 5 5 4 3 3 3 3 2 2 2 3 3 3 3 3
6 4 2 1 2 4 5 6 7 7 8 9 10 11 11 11 11 11 11 10 10 10 10 9 9 9 8 7 7 6 6 6 5 4 4 4 3 3 3 3 3 3 3 3
7 5 3 3 4 5 6 7 8 8 9 10 11 11 12 12 12 12 13 12 12 12 12 12 12 11 10 9 8 8 8 8 7 7 6 6 5 5 5 5 5 5 4 4
8 6 5 4 5 5 6 8 9 9 9 10 11 11 12 13 13 14 14 14 14 14 14 14 13 13 13 12 11 11 11 10 9 9 8 8 8 7 7 7 7 6 6 6
9 8 6 6 6 6 7 8 9 10 10 11 11 12 13 13 14 14 15 15 15 15 16 15 15 14 14 14 14 13 13 12 12 12 11 11 10 9 9 9 8 8 8 7
11 9 8 7 7 7 8 8 9 10 11 11 12 13 13 14 15 15 16 16 17 17 17 17 17 17 16 16 15 15 15 14 14 13 13 13 12 12 11 11 10 10 9 9
12 10 9 8 7 7 8 9 10 10 11 12 12 13 14 14 15 16 16 17 18 18 18 18 18 18 18 18 17 17 17 16 15 15 15 14 13 13 13 12 12 11 11 10
13 11 10 9 8 8 8 9 10 10 11 11 12 13 13 14 15 15 16 17 18 18 18 18 18 18 18 18 17 17 17 17 16 16 15 15 14 14 14 13 13 12 12 11
14 13 11 10 9 9 9 9 9 10 10 11 11 12 13 13 14 15 15 16 17 17 18 18 18 18 18 18 18 17 17 17 16 16 15 15 15 14 14 13 13 13 13 12
15 13 12 10 9 9 9 9 9 9 10 10 11 11 12 13 13 14 14 15 15 16 17 17 18 18 18 18 17 17 17 17 16 16 15 14 14 14 14 13 13 13 13 13
16 14 13 11 10 9 8 8 8 8 9 9 10 10 11 11 12 13 13 14 14 14 15 16 16 17 17 17 17 17 16 16 16 16 15 14 14 14 13 13 13 13 12 12
18 16 14 12 10 9 8 7 7 7 7 8 8 9 10 10 11 11 12 12 13 13 13 14 14 14 15 15 16 15 15 15 15 15 15 14 14 13 13 13 13 12 12 12
19 17 15 13 11 9 8 6 5 5 6 6 6 7 8 8 9 9 10 10 11 11 12 12 13 13 13 14 14 14 14 14 14 14 14 13 13 13 13 13 12 12 12 11
20 18 16 14 11 10 8 6 5 4 4 4 4 5 6 6 7 7 8 8 9 9 10 11 11 11 12 12 13 13 13 12 12 13 13 12 12 12 12 12 12 12 12 11

GEFSNGP_500_meanwind_102.txt.gz
Wind_Speed
14 13 12 12 12 14 16 17 19 19 19 21 20 20 21 22 21 21 21 21 20 20 20 20 20 20 22 23 23 22 23 24 24 24 24 25 24 24 25 26 26 25 25 26
13 12 12 12 13 15 15 16 18 19 20 20 21 21 22 21 20 20 20 20 20 19 19 19 19 19 20 20 21 20 19 19 20 22 22 22 23 23 23 23 23 23 24 25
12 11 11 12 13 14 15 17 18 19 19 20 20 21 21 20 20 20 19 18 17 17 17 17 17 17 18 19 19 19 18 18 19 19 20 20 21 22 23 23 23 23 23 24
10 10 11 11 11 13 15 16 17 17 18 19 19 19 19 19 19 19 18 17 17 17 17 17 17 17 18 18 18 17 17 18 18 19 19 20 20 21 21 21 21 21 22 22
11 10 10 11 13 13 15 16 16 16 17 18 18 19 19 18 18 18 17 17 17 17 17 17 17 17 16 15 15 15 15 15 15 16 16 17 18 19 20 20 20 20 20 20
12 11 12 11 14 15 15 16 16 16 17 17 17 18 18 18 17 17 17 16 15 14 14 14 14 13 13 13 13 13 14 13 13 13 14 14 15 16 17 17 18 18 18 19
13 12 13 13 13 14 14 15 16 16 16 16 16 17 17 17 16 15 15 15 14 13 12 12 12 12 12 11 11 11 11 11 12 12 12 13 13 14 14 14 15 16 16 17
12 12 13 12 13 14 14 15 15 15 15 15 16 16 16 16 15 14 13 12 11 11 10 10 11 11 11 11 10 10 10 10 10 11 11 11 12 12 13 13 14 14 15 15
13 12 11 12 13 13 14 14 14 14 15 14 14 14 14 14 13 12 11 10 10 9 8 8 8 9 9 9 9 9 9 9 10 10 10 10 11 11 12 12 13 13 14 14
12 11 11 12 11 12 12 13 13 13 13 13 13 13 13 12 12 11 10 9 9 8 7 6 6 6 6 7 7 7 8 8 8 9 9 9 9 9 10 10 10 11 11 12
10 10 9 10 10 11 11 12 12 12 12 12 12 12 12 12 11 10 9 8 8 7 6 6 6 6 5 5 5 6 6 7 7 7 7 7 7 7 8 8 9 9 9 9
8 8 9 9 9 9 10 10 10 11 11 11 11 11 11 11 10 9 8 8 8 7 6 6 6 5 5 5 5 5 5 5 5 5 5 5 6 6 7 7 7 7 7 7
9 8 8 8 8 8 8 9 10 10 9 9 10 10 10 10 10 9 9 8 8 7 7 6 6 5 5 5 5 5 4 4 4 4 4 5 5 5 5 6 6 6 6 7
7 7 8 7 6 6 7 8 8 8 8 8 9 10 10 10 10 10 9 9 9 8 8 8 7 6 5 5 6 6 6 5 5 5 4 4 5 5 5 6 6 6 7 7
7 7 6 4 4 4 5 6 6 7 8 8 9 9 10 11 11 11 11 11 10 10 9 10 9 9 8 8 8 8 8 8 7 7 7 7 7 7 7 7 7 7 7 7
8 6 5 3 2 3 4 5 6 7 7 8 8 9 10 11 12 12 12 12 12 11 11 11 11 11 11 11 11 10 11 11 10 10 9 9 9 9 9 9 9 8 8 9
7 6 5 3 1 1 3 4 5 6 7 8 8 9 10 11 12 13 13 13 13 12 12 12 13 13 13 13 13 12 12 12 12 11 11 11 11 11 11 10 10 10 10 10
9 7 5 4 2 1 2 4 5 6 7 8 9 9 10 11 12 13 14 14 14 14 13 13 13 13 14 14 14 14 14 14 13 13 13 13 12 12 12 12 11 11 11 11
10 8 6 4 3 2 3 4 5 7 8 9 9 10 11 11 12 13 14 14 15 15 15 15 15 14 15 15 15 15 15 15 15 14 14 14 14 14 13 13 13 13 12 12
11 9 7 6 5 4 5 5 6 7 8 9 10 10 11 11 12 13 14 15 16 16 17 17 16 16 16 16 15 15 15 16 15 15 15 14 14 14 14 14 14 13 13 13
13 11 9 7 7 6 6 6 6 7 8 9 9 10 11 12 12 13 13 14 15 16 17 17 17 17 17 16 16 16 16 16 16 15 15 15 15 14 14 14 14 14 13 13
14 12 11 9 9 8 7 7 7 8 8 9 10 10 11 12 12 13 13 14 15 15 16 16 17 16 16 16 16 16 16 15 15 15 15 15 15 15 15 14 14 14 14 14
16 14 13 11 10 9 8 8 8 8 8 9 10 10 11 11 12 13 13 14 14 14 15 16 16 16 16 15 15 15 16 15 15 14 14 14 14 14 14 14 14 14 14 14
18 16 15 13 11 10 9 9 8 8 8 8 9 10 10 11 11 12 13 13 13 14 14 14 15 15 15 15 15 15 15 15 14 14 14 14 14 14 14 14 14 14 14 13
20 18 17 15 13 11 10 9 8 8 7 7 8 8 9 10 10 11 11 12 12 12 13 13 13 14 14 13 14 14 14 14 14 14 14 13 13 14 13 13 13 13 13 13
22 20 18 16 14 13 11 10 8 7 6 6 6 7 7 8 9 10 10 10 11 11 12 12 12 13 13 13 13 13 13 13 13 13 13 13 13 13 13 13 13 13 13 13
24 22 20 18 16 14 12 10 9 7 6 5 5 5 5 6 6 7 8 9 10 10 10 11 11 12 12 12 12 13 13 13 13 13 13 13 13 13 13 13 13 13 13 13

GEFSNGP_500_meanwind_108.txt.gz
Wind_Speed
13 13 14 15 16 17 16 16 17 17 17 18 18 19 20 20 20 21 21 21 20 20 20 20 20 19 18 18 18 17 18 18 18 19 19 20 19 20 20 21 21 21 20 21
14 15 15 15 15 15 15 15 17 17 17 18 19 19 20 21 21 21 21 21 20 20 19 19 18 17 16 16 16 16 16 15 16 16 17 18 18 18 19 19 19 19 18 19
14 14 15 15 15 15 15 15 15 16 16 17 18 19 20 20 21 21 21 20 19 18 18 17 16 16 15 15 14 14 14 13 14 14 15 15 15 16 16 16 16 17 17 17
14 14 15 14 13 13 13 14 15 16 17 17 18 18 19 20 20 20 19 19 17 17 16 16 15 14 14 13 13 12 12 11 11 12 12 12 12 13 14 15 15 15 16 16
13 13 13 12 12 12 12 13 14 15 15 16 17 18 18 19 19 18 18 17 16 15 15 14 13 13 12 12 12 11 11 10 11 11 11 11 12 12 13 13 13 13 14 14
13 13 12 10 10 11 12 12 14 15 15 16 17 17 18 18 18 17 15 14 14 14 14 12 11 10 10 10 10 9 9 9 9 10 10 10 11 11 11 12 12 13 12 13
12 12 9 9 9 10 11 12 13 14 15 15 16 17 18 17 16 15 14 13 13 13 12 10 9 8 7 7 7 7 7 7 8 8 8 8 9 10 9 10 10 11 11 12
12 10 8 8 8 9 10 11 12 13 14 14 15 16 16 16 15 14 12 12 12 10 9 8 7 7 6 5 5 5 5 5 6 6 6 6 6 7 7 8 8 8 9 9
11 9 7 7 7 8 9 10 11 11 12 13 14 15 15 14 14 12 11 10 9 8 7 6 5 5 5 4 4 4 3 3 4 4 4 3 4 4 4 5 5 6 6 7
10 7 6 6 7 8 8 9 9 10 11 12 13 13 12 13 12 11 10 8 7 7 6 5 5 4 3 3 3 3 2 3 2 2 2 2 1 1 1 2 3 3 4 5
9 7 6 6 6 6 7 8 9 10 10 11 11 11 11 12 11 10 9 8 7 6 6 6 5 4 4 4 3 3 2 2 2 2 1 1 2 2 2 2 2 2 3 3
8 7 5 4 4 4 6 7 8 8 9 9 9 10 10 11 10 10 9 8 8 7 7 7 6 6 6 5 5 4 4 4 4 4 4 4 4 4 3 3 3 3 3 4
7 6 5 4 3 4 5 6 6 7 7 8 9 9 10 10 10 10 9 9 8 8 8 8 8 8 8 7 7 7 7 6 6 6 6 6 6 6 6 6 6 5 5 5
6 5 4 3 3 3 4 4 6 6 7 7 8 9 10 10 10 10 10 10 10 10 10 10 10 9 9 9 9 9 9 9 9 9 9 9 8 8 8 8 7 7 7 7
7 5 4 2 2 2 3 4 6 7 7 7 8 9 10 10 11 11 11 11 11 11 11 11 12 12 11 11 11 11 11 11 11 11 11 11 11 10 10 9 9 9 9 9
7 5 4 2 1 1 3 5 6 7 7 7 8 9 10 11 12 12 13 13 13 13 13 13 13 13 13 13 13 13 13 13 13 13 13 13 12 12 12 12 11 11 10 10
8 6 5 4 3 3 4 5 6 7 8 8 9 9 10 11 12 13 13 14 14 14 14 14 14 15 15 15 15 15 14 14 14 14 14 14 14 14 14 13 13 12 12 12
9 7 6 5 4 4 4 6 7 8 8 9 9 10 11 12 12 13 13 14 15 15 15 15 15 16 16 16 16 16 15 15 15 15 15 15 15 14 14 14 14 14 13 13
9 9 8 7 7 6 6 6 7 8 8 9 10 10 11 12 12 13 14 15 15 16 16 16 16 16 16 17 17 17 16 16 16 15 15 15 15 15 14 14 14 14 14 14
11 10 10 8 8 7 7 7 7 8 8 9 10 11 11 12 13 13 14 15 16 17 17 17 17 17 17 17 17 17 16 16 17 17 16 16 16 15 15 15 15 14 14 14
12 12 11 9 8 8 8 8 8 8 8 9 10 11 12 12 13 13 14 15 16 16 17 17 18 18 18 18 17 17 17 17 17 17 16 16 16 16 15 15 15 14 14 14
14 13 13 11 10 10 9 9 9 9 9 10 11 11 12 12 13 13 14 15 15 15 16 17 17 17 17 17 17 16 16 16 16 16 16 16 16 16 16 15 15 15 15 15
16 15 14 13 12 11 10 10 10 9 10 10 11 12 12 13 13 14 14 15 15 15 16 16 16 16 16 16 16 16 15 15 15 15 16 15 15 15 15 15 15 15 15 15
18 17 17 16 14 13 12 11 10 10 10 10 11 12 12 13 13 14 14 14 15 15 15 15 16 15 15 15 15 15 14 14 14 14 15 14 14 14 14 14 14 15 15 15
20 19 18 17 15 14 13 12 11 11 10 10 11 11 11 12 12 13 13 13 14 14 14 14 14 14 14 14 14 14 14 14 14 14 14 14 14 13 13 14 14 14 14 14
23 22 20 19 17 16 14 13 12 11 11 10 10 10 10 10 10 11 11 11 12 12 12 12 13 13 13 13 13 13 13 13 13 13 13 13 13 13 13 13 13 13 13 13
26 25 23 21 19 17 15 14 13 12 11 10 9 9 9 8 8 8 8 9 9 10 10 10 11 11 11 11 11 11 11 12 12 12 12 12 12 12 12 12 13 13 13 13

GEFSNGP_500_meanwind_114.txt.gz
Wind_Speed
16 15 15 14 15 15 16 17 17 17 17 17 18 18 18 19 21 22 23 23 23 23 24 24 24 23 23 22 21 20 19 19 19 19 19 19 20 21 22 22 22 23 23 23
17 16 15 14 15 15 15 16 16 16 16 16 17 18 19 20 21 22 23 23 23 23 24 23 23 22 21 21 20 19 19 18 17 17 17 18 18 19 19 19 20 21 21 22
16 15 15 15 15 15 15 15 16 16 16 17 18 19 20 21 22 23 22 22 22 22 22 22 21 20 19 18 17 17 16 16 16 16 16 16 17 17 16 16 17 18 18 18
15 14 14 13 14 14 13 14 16 16 17 17 18 19 20 21 22 22 22 21 21 20 21 20 19 18 18 17 15 15 15 14 14 15 15 15 14 14 15 15 16 16 16 16
14 14 13 13 13 13 13 14 15 15 16 17 18 19 20 21 21 21 20 20 19 19 19 18 17 16 15 14 13 13 12 12 13 13 13 13 13 12 12 12 12 12 13 14
14 13 13 12 13 13 13 13 14 15 16 17 18 19 20 20 20 19 18 18 18 18 16 15 14 14 12 12 11 11 10 10 10 10 11 11 11 11 11 11 10 11 11 12
13 13 13 12 12 12 12 12 13 14 15 17 18 18 18 18 18 17 17 17 17 16 14 12 12 11 10 9 9 9 8 8 8 8 8 8 8 8 9 9 9 9 9 10
13 13 12 12 12 11 11 12 12 14 15 16 16 16 17 16 16 16 15 15 14 12 11 10 9 9 8 8 8 7 7 7 7 6 6 6 6 7 7 7 7 8 8 8
12 12 12 12 12 12 12 12 13 14 15 15 16 16 16 15 14 13 13 12 11 10 9 8 7 6 6 6 5 5 4 4 4 5 4 4 3 3 3 3 4 4 4 5
10 10 11 11 10 10 11 11 12 13 14 14 15 14 13 13 12 11 11 10 9 9 8 6 5 5 4 4 4 4 4 3 3 2 2 1 1 1 1 2 1 1 1 2
9 9 9 9 9 9 9 10 11 12 12 12 12 12 11 11 10 10 10 9 8 7 6 5 5 5 5 4 4 5 5 5 5 4 4 4 4 4 3 3 3 2 3 3
9 9 9 8 8 7 8 9 10 10 10 10 10 10 9 9 9 9 8 7 7 6 6 6 6 6 6 6 7 7 7 7 7 7 7 7 7 6 6 6 5 5 5 5
9 8 8 7 6 6 7 7 7 8 8 8 8 8 7 7 7 8 7 7 7 7 6 6 7 7 8 8 9 9 9 9 9 9 9 8 9 8 8 8 8 8 7 7
9 8 7 7 6 5 5 6 6 6 6 6 6 6 6 6 7 8 8 8 8 8 8 7 8 8 9 10 10 11 12 11 11 11 11 11 10 10 10 10 10 9 9 9
8 7 7 6 5 4 3 4 4 4 5 4 5 5 5 6 7 8 8 9 9 9 9 9 9 9 10 11 12 12 13 13 13 13 13 12 12 12 12 11 11 11 11 11
8 7 6 5 4 3 2 2 2 3 3 4 4 5 6 6 7 8 9 9 9 10 10 10 11 11 12 12 13 13 14 14 14 14 14 14 14 14 13 13 13 12 12 12
8 7 7 6 4 3 1 0 2 3 4 5 5 6 7 7 8 9 9 10 10 11 12 12 13 13 14 14 14 14 15 15 15 15 15 15 15 15 15 15 14 14 14 14
10 9 8 7 5 4 2 2 3 4 4 5 6 7 7 8 9 9 10 11 12 13 13 14 14 14 15 15 15 15 15 15 15 15 16 16 16 16 16 16 16 16 16 15
11 10 9 8 6 5 4 3 3 4 5 6 6 7 8 8 9 10 11 12 12 13 14 14 15 15 16 16 16 16 16 16 16 16 17 17 17 17 17 16 16 16 16 16
13 11 10 8 7 7 6 5 5 6 6 6 7 7 8 8 9 10 11 11 12 12 13 14 14 15 16 16 16 16 17 16 16 16 16 17 16 16 16 16 16 16 16 16
14 13 11 10 9 8 7 7 7 7 7 7 7 7 8 8 9 10 11 11 12 12 13 14 14 15 15 16 16 16 16 16 16 16 16 16 16 15 15 15 15 15 15 15
16 15 14 12 11 10 9 9 8 8 8 8 8 8 8 8 9 10 11 11 12 12 13 14 14 15 15 16 16 16 16 15 15 15 15 15 15 15 14 14 14 14 14 14
18 17 16 15 13 12 11 11 10 9 9 8 8 8 9 9 9 10 11 11 12 12 13 13 14 14 14 14 15 15 15 15 15 14 14 14 14 14 14 14 14 14 14 14
20 19 18 17 16 14 14 13 12 11 10 9 9 9 10 10 10 11 11 11 11 11 12 12 12 13 13 13 13 14 13 13 13 13 13 13 13 13 13 14 14 14 13 13
23 22 21 20 18 16 16 15 14 12 12 11 10 10 10 10 10 10 10 10 10 10 10 11 11 11 11 11 12 12 12 12 12 12 12 12 12 12 12 12 12 12 12 12
25 25 24 22 20 19 18 17 16 14 13 12 12 11 11 10 10 9 9 9 9 9 9 9 9 10 10 10 10 10 11 10 10 10 11 11 11 11 11 11 11 11 11 11
28 27 26 24 23 21 20 19 18 17 15 14 14 13 12 11 10 9 8 8 8 8 8 8 8 8 8 8 8 8 9 9 9 9 9 9 9 10 10 10 10 11 11 11

GEFSNGP_500_meanwind_120.txt.gz
Wind_Speed
15 15 14 14 15 16 15 15 16 17 18 18 18 19 20 20 20 21 22 23 23 23 23 23 24 24 23 23 23 23 23 22 22 21 21 20 20 20 21 21 23 23 23 23
15 15 15 15 15 15 16 16 16 17 17 18 18 19 20 20 21 22 22 22 22 23 23 23 22 22 22 22 21 21 21 20 20 19 19 18 18 19 19 19 19 20 20 21
13 13 13 14 13 13 14 15 16 16 16 17 18 19 19 20 21 22 22 22 22 22 21 21 20 20 19 20 19 19 18 18 17 16 15 15 15 15 16 17 17 17 17 18
11 12 13 12 12 13 13 14 14 15 15 16 17 18 18 19 20 21 21 21 21 21 20 19 18 18 18 18 17 17 16 16 15 14 13 13 12 12 12 13 13 14 14 15
10 11 13 13 12 12 12 13 13 14 15 16 17 17 18 19 20 20 20 20 20 19 18 17 16 16 16 15 15 14 14 13 12 12 11 10 10 10 9 10 10 11 11 12
10 10 12 13 13 12 11 13 13 14 15 15 16 17 18 18 19 19 19 19 19 17 16 16 15 14 13 12 12 12 11 11 10 9 9 8 8 8 8 7 7 7 7 8
10 11 13 13 12 11 11 12 13 14 14 15 16 16 17 18 19 19 18 18 17 16 15 14 13 11 10 10 10 9 9 8 8 7 7 6 6 5 5 5 5 5 6 6
9 11 12 11 11 11 11 12 13 13 14 14 15 16 17 17 18 18 17 15 14 13 12 10 10 8 8 8 8 7 7 6 6 5 5 4 4 3 3 3 3 4 3 3
9 9 10 9 10 10 11 11 12 12 13 14 15 16 16 16 17 16 14 13 12 11 9 8 7 6 6 5 5 5 5 5 4 2 1 1 1 1 1 1 1 1 1 1
7 8 8 9 9 10 10 11 11 12 13 14 15 15 15 14 14 13 12 10 9 8 7 6 5 4 4 4 4 5 4 4 3 3 3 3 4 4 3 3 4 4 4 3
6 6 7 8 9 9 10 10 11 11 12 13 13 13 13 12 11 11 9 8 7 6 6 5 4 4 4 4 5 5 5 6 6 6 7 7 7 7 7 6 6 6 6 6
6 6 6 7 8 8 9 9 10 10 11 11 12 11 10 10 9 9 8 6 6 6 6 5 5 5 6 6 6 7 8 9 9 9 9 9 9 9 8 8 8 8 8 8
5 6 6 6 7 7 8 8 8 9 9 9 9 9 8 8 7 7 7 6 6 7 7 7 7 8 8 9 9 10 11 11 11 11 11 11 11 11 11 11 11 10 10 10
5 5 5 5 5 6 6 7 7 8 8 8 7 7 6 6 6 7 7 7 7 8 8 8 8 9 10 10 11 11 12 12 12 12 12 12 13 13 12 12 12 11 11 10
5 4 4 4 4 5 5 6 6 6 7 7 6 5 4 4 5 6 7 7 7 8 8 9 10 10 10 11 12 12 12 13 13 13 13 14 14 13 13 13 13 12 12 11
5 4 4 3 3 3 4 5 5 5 5 5 4 4 3 4 5 6 6 7 8 8 9 9 10 11 11 12 12 13 13 14 14 14 15 15 15 14 14 14 14 13 13 13
5 5 4 3 3 3 3 4 4 4 4 4 4 4 4 5 5 6 7 8 8 8 9 10 11 12 12 13 14 14 15 15 15 15 16 16 16 16 16 16 15 15 15 14
6 5 4 3 3 2 3 3 3 2 2 3 4 4 5 6 6 7 7 8 8 9 11 11 12 13 13 14 14 14 15 15 16 16 16 16 16 16 16 16 16 15 15 15
7 6 5 4 4 3 2 2 1 1 1 2 3 4 5 6 7 7 8 9 9 10 11 11 12 13 13 13 14 14 15 15 15 15 15 15 16 16 16 16 15 15 15 15
9 8 7 6 5 5 3 2 1 1 0 1 3 4 5 5 6 7 8 8 9 9 10 11 11 12 12 13 13 14 14 15 15 15 15 14 14 15 15 15 15 14 14 14
11 10 9 8 7 6 5 4 2 2 2 2 3 3 4 5 6 7 7 8 9 10 10 11 11 12 12 13 13 13 14 14 14 14 14 14 14 14 14 14 14 14 14 14
12 11 11 10 9 8 7 6 4 3 3 3 3 3 4 5 6 6 7 8 9 10 10 11 12 12 12 12 13 13 13 13 13 13 13 13 13 13 13 13 13 13 13 13
14 13 12 12 11 10 9 8 7 5 5 5 5 5 5 5 6 7 7 8 9 10 11 11 11 11 11 12 12 12 12 12 12 12 12 12 12 11 11 11 11 11 11 11
17 16 15 14 13 12 11 10 9 8 7 6 6 7 7 7 7 7 8 8 9 10 10 10 10 10 10 10 10 10 10 10 10 10 10 10 10 10 10 10 10 10 10 10
19 18 17 17 16 15 14 13 11 10 9 9 9 9 8 8 8 7 8 8 8 8 9 9 8 8 8 8 8 8 8 8 8 8 8 8 8 8 8 8 9 9 9 9
21 20 19 19 19 18 17 16 14 13 12 11 11 11 10 9 9 9 8 8 8 8 8 8 8 7 7 7 7 7 6 6 6 6 7 7 6 6 6 6 7 7 8 8
23 23 22 21 22 21 20 19 17 16 15 14 14 13 12 11 11 10 10 9 8 8 8 7 7 7 7 6 6 6 5 5 5 5 5 5 5 5 5 5 6 6 7 8

GEFSNGP_500_meanwind_126.txt.gz
Wind_Speed
13 12 10 9 11 13 15 16 18 19 21 22 23 23 24 24 24 24 25 25 25 24 24 24 23 23 23 23 23 23 23 24 24 24 24 23 23 23 23 22 22 22 22 23
10 10 10 9 12 13 15 18 19 20 22 23 23 23 23 23 22 23 24 24 24 23 23 23 23 22 22 21 21 21 22 22 22 21 21 21 21 21 21 20 21 21 21 21
9 9 11 11 12 14 16 17 18 19 19 20 21 22 23 23 22 22 22 22 23 23 23 22 21 21 20 20 19 19 19 19 19 19 18 18 18 17 17 17 17 17 17 17
10 11 11 10 12 13 15 16 17 17 18 19 20 21 22 23 23 23 23 22 22 21 21 20 20 19 19 18 18 18 18 18 18 17 17 16 15 14 15 15 14 14 14 14
10 11 10 9 11 13 14 14 15 16 16 17 18 20 21 21 22 22 22 22 21 20 19 19 18 17 17 16 16 16 16 16 17 16 14 12 11 11 11 11 11 11 11 11
9 10 10 10 11 13 13 14 15 15 15 17 18 18 19 19 20 21 21 20 19 18 18 17 16 15 15 15 14 14 14 15 15 13 12 10 10 9 9 8 7 7 7 8
8 9 10 11 11 13 14 15 15 15 16 16 17 17 18 19 20 20 19 19 18 17 16 15 14 13 13 13 13 13 13 13 12 10 9 9 8 7 7 6 5 5 5 6
8 8 10 11 11 13 14 15 15 15 16 16 17 18 19 19 18 18 17 16 15 14 13 12 11 11 11 11 11 11 11 10 9 8 7 6 6 5 4 4 4 4 4 3
8 9 10 10 12 13 13 13 14 15 15 16 16 17 18 18 17 16 15 13 12 12 11 10 9 9 9 9 9 9 9 8 8 7 6 5 4 3 3 3 3 4 4 4
9 10 9 10 11 12 12 12 12 13 14 14 14 15 16 16 15 14 12 11 10 10 10 8 8 7 7 7 8 8 7 8 8 7 7 6 4 4 3 4 5 6 6 7
9 9 8 9 10 10 10 11 11 12 12 12 13 14 14 13 13 12 11 10 9 9 8 7 7 6 7 7 7 7 7 7 7 7 7 7 7 6 6 6 6 7 8 8
9 9 8 9 10 10 10 10 10 11 11 12 12 12 12 12 11 10 9 9 8 8 8 7 6 6 6 6 6 7 7 8 8 8 8 8 9 8 8 8 8 8 9 10
9 9 9 9 9 9 9 10 10 10 11 11 11 11 11 10 10 9 8 8 8 8 8 7 7 7 7 7 7 7 8 9 9 10 10 10 10 10 10 10 10 10 10 11
8 8 8 7 7 8 8 9 9 10 10 11 10 10 10 9 8 8 7 7 7 8 8 8 8 8 8 8 8 9 9 10 11 12 12 12 12 11 11 11 12 12 12 12
8 7 7 6 6 7 7 8 9 9 9 9 9 9 8 8 7 7 6 6 7 8 8 9 9 9 9 10 10 10 11 12 12 12 13 13 14 13 13 13 13 13 14 14
7 7 6 6 6 6 7 7 8 8 8 8 8 8 7 6 6 7 7 7 7 8 8 9 9 10 10 10 11 12 12 13 13 13 14 15 15 15 15 15 15 15 15 15
7 7 6 6 6 6 6 7 7 7 7 7 7 7 6 6 6 6 6 6 7 8 8 8 9 10 11 11 12 12 12 13 14 14 15 15 15 15 15 15 15 15 15 15
7 7 6 5 5 5 5 6 6 6 6 6 6 5 5 5 5 5 5 6 6 7 8 8 9 10 11 11 12 13 13 14 14 15 15 15 15 15 15 15 15 15 15 15
8 7 6 6 5 5 5 5 5 5 5 5 4 4 4 4 4 4 5 5 6 6 7 8 8 9 10 10 11 12 13 13 14 14 15 15 15 15 15 16 16 16 16 16
8 8 8 7 6 5 5 5 4 4 4 3 3 4 4 4 4 4 4 5 5 6 6 7 7 8 9 9 10 11 12 13 13 13 14 14 14 15 15 15 15 15 15 15
10 9 9 8 7 6 5 5 4 3 2 2 2 2 3 3 4 4 4 4 4 4 5 6 7 8 8 9 9 10 11 11 12 12 13 13 13 13 14 14 14 14 14 14
11 11 10 9 9 8 7 6 4 3 2 2 1 1 1 2 2 3 3 4 4 5 5 6 6 7 7 8 8 9 10 10 10 11 11 11 11 12 12 12 12 13 13 13
13 13 12 11 10 9 8 7 6 5 4 3 2 1 1 1 1 2 3 4 4 5 5 5 6 6 7 7 7 8 8 8 8 8 9 9 9 9 10 10 10 11 11 11
15 14 13 13 12 11 10 9 8 7 6 5 3 3 2 2 2 3 3 4 4 4 4 5 5 5 5 5 6 6 6 6 6 6 7 7 7 7 7 8 8 9 9 9
16 16 15 15 14 13 12 11 11 10 8 7 6 5 5 4 4 4 4 4 4 4 4 4 4 4 4 4 4 4 4 4 4 4 4 4 5 5 6 6 6 7 7 8
18 17 17 16 16 15 14 13 13 12 12 10 9 8 7 7 6 6 6 6 5 5 5 5 4 4 4 4 4 3 3 3 3 2 2 2 3 3 3 4 4 5 6 6
20 19 19 18 18 17 16 16 15 15 14 13 12 12 11 10 9 9 8 8 8 7 7 6 6 5 5 5 5 4 3 3 3 2 2 1 0 0 1 2 3 4 5 6

GEFSNGP_500_meanwind_132.txt.gz
Wind_Speed
9 10 11 12 13 14 15 14 15 15 15 15 15 16 16 18 19 19 19 20 19 19 19 19 20 20 20 20 20 21 21 21 21 21 22 21 21 21 21 20 20 20 19 20
7 8 9 10 11 12 11 11 13 14 15 14 14 16 16 18 19 19 19 19 19 19 18 18 19 19 19 19 19 20 20 20 20 19 19 18 18 18 17 17 17 17 16 17
5 7 8 9 9 9 9 11 12 13 12 13 14 14 16 17 18 18 19 19 20 19 17 18 18 18 18 18 18 18 18 18 18 17 17 16 15 15 15 14 14 14 14 14
5 6 7 7 8 8 9 9 10 12 12 13 13 14 16 16 17 18 19 19 19 18 18 18 17 16 16 17 17 17 17 16 16 15 14 14 14 14 13 12 12 11 11 10
6 7 7 7 7 8 8 9 10 11 11 11 13 14 16 17 17 17 17 17 17 17 17 16 15 15 15 15 16 16 15 14 14 12 12 12 12 11 11 10 10 9 8 7
6 7 7 7 8 9 9 9 10 11 11 11 13 14 15 15 16 17 17 16 16 16 15 14 14 14 14 14 14 13 13 12 11 10 10 10 9 9 9 8 7 6 5 5
6 6 5 6 7 8 9 9 10 10 11 12 13 14 14 16 17 17 16 16 15 14 13 13 13 13 12 12 12 11 11 9 9 9 9 8 7 6 7 6 6 5 5 4
6 6 5 6 7 8 9 9 9 10 11 12 13 14 15 16 16 16 15 14 13 12 11 11 10 10 10 9 9 9 8 8 7 7 7 6 6 6 6 7 6 7 6 6
6 6 6 7 7 8 9 9 10 10 11 12 13 14 14 15 15 14 13 12 11 10 10 9 8 8 8 8 8 8 7 7 6 6 6 6 6 6 7 7 7 7 8 8
6 6 6 7 7 8 9 10 11 11 12 12 13 13 13 13 13 12 12 11 9 8 8 7 6 6 6 6 7 8 7 7 6 7 7 8 8 8 8 8 8 9 10 10
6 6 8 8 8 8 8 10 11 12 12 12 12 12 12 11 11 11 10 8 7 7 7 7 6 6 6 6 7 7 7 7 8 8 8 8 9 9 10 10 10 10 11 12
6 6 7 7 8 8 9 9 11 11 11 11 11 10 10 10 9 9 8 7 7 7 7 7 6 6 7 7 7 7 8 8 8 9 10 10 10 11 11 12 12 13 13 13
6 6 7 7 7 8 9 9 10 10 10 10 9 9 9 9 8 8 8 8 7 7 7 7 7 7 7 8 8 9 9 9 10 10 11 12 12 13 14 14 14 14 15 15
6 6 6 6 7 7 8 9 9 10 9 9 9 9 8 8 8 7 7 7 8 8 8 8 8 8 8 9 10 10 10 11 11 12 13 14 15 15 16 16 16 16 16 17
6 5 5 6 6 6 7 8 9 9 9 9 9 8 8 8 7 7 7 7 8 9 9 10 10 10 11 11 12 12 13 14 14 14 15 15 16 16 16 16 16 17 17 17
5 4 5 5 5 6 6 7 8 9 9 9 8 8 8 7 7 7 7 8 8 9 10 11 11 12 12 13 14 14 14 15 15 15 15 15 15 16 16 16 17 17 18 18
4 4 5 5 5 5 6 6 7 8 8 7 7 7 7 6 6 6 7 8 8 9 10 11 12 12 12 13 13 14 14 14 15 15 15 15 15 15 16 17 17 17 18 18
5 5 4 4 4 4 5 6 6 7 7 7 7 6 5 5 5 5 6 7 7 8 9 10 10 11 12 12 12 12 13 14 15 15 15 15 15 15 15 16 16 16 16 16
5 5 5 4 4 4 4 5 5 6 5 6 6 5 5 5 5 5 5 6 6 7 7 8 8 9 10 11 11 11 12 13 14 14 14 15 15 14 15 15 15 15 15 14
5 5 5 5 5 4 4 4 5 5 4 4 4 4 4 3 4 4 4 5 6 6 7 7 8 8 9 10 10 11 11 12 12 13 13 13 13 14 14 14 14 14 14 13
6 5 5 5 5 5 4 4 4 4 4 3 3 2 2 2 2 3 4 5 5 6 7 7 7 7 8 8 9 10 10 10 10 10 11 11 12 12 13 13 12 12 12 12
7 7 6 6 6 6 5 5 4 4 3 3 2 1 1 1 1 2 3 4 4 5 5 6 6 6 7 7 8 8 9 8 8 9 10 10 10 10 10 10 10 10 10 10
8 8 7 7 7 7 6 6 5 5 4 3 3 2 1 1 1 2 3 3 4 4 4 4 5 5 6 6 6 7 7 7 7 7 8 8 9 8 8 8 8 8 8 8
10 9 9 9 9 8 8 7 7 6 6 5 4 3 3 2 3 3 3 3 4 4 4 4 4 5 5 5 6 6 6 6 6 6 6 6 7 6 6 6 6 5 5 4
11 11 10 10 10 10 9 9 8 8 7 7 6 5 5 5 5 5 5 5 5 5 5 5 5 5 5 6 6 6 6 6 6 6 5 5 5 5 4 4 3 3 2 1
13 12 12 12 12 12 11 11 10 10 10 9 9 8 7 7 7 8 8 8 7 7 7 7 7 7 7 7 7 7 7 7 7 6 6 6 5 5 4 4 4 3 2 2
14 14 14 14 13 13 13 13 13 13 12 12 11 11 10 10 9 10 10 10 10 10 10 10 10 10 10 10 10 10 10 9 9 8 8 8 7 7 6 6 6 6 6 6

GEFSNGP_500_meanwind_138.txt.gz
Wind_Speed
9 9 10 10 10 11 11 11 12 12 13 14 14 14 14 15 16 16 16 16 17 18 17 17 17 18 19 19 20 20 20 20 19 18 17 17 17 17 17 17 17 18 18 18
8 9 10 11 11 11 11 11 11 12 13 14 15 15 14 15 15 15 15 16 17 17 17 17 16 17 17 18 18 18 18 17 17 16 15 15 15 15 15 15 16 16 15 15
9 9 9 10 10 11 11 12 12 12 13 14 14 14 13 14 15 15 16 16 17 17 16 16 16 16 17 16 17 17 16 15 14 14 13 13 13 14 14 14 14 13 13 13
7 8 8 9 9 10 11 12 12 13 13 14 14 14 14 14 15 15 16 16 16 16 16 15 15 15 15 15 16 16 15 15 14 13 13 13 13 13 13 12 12 11 11 11
7 8 8 8 9 10 11 11 11 12 13 14 14 15 15 15 16 16 16 15 15 15 14 14 13 13 14 14 15 14 13 13 12 12 12 12 11 11 11 11 11 10 9 8
7 8 8 8 8 9 10 10 11 12 13 14 14 15 15 15 15 15 15 14 13 13 12 12 12 13 13 13 12 11 10 11 11 11 10 10 9 9 9 9 9 8 7 6
6 7 7 8 8 9 10 10 11 12 13 13 14 14 14 14 14 15 15 13 13 12 12 11 11 11 11 11 9 9 10 10 9 9 9 8 8 7 7 7 7 7 7 6
6 7 8 9 9 9 10 10 11 12 13 13 13 13 13 13 14 14 14 12 11 11 10 9 9 8 8 8 8 9 9 8 8 8 7 7 7 7 7 7 7 7 7 7
7 8 8 9 9 9 10 11 11 12 13 13 13 13 13 13 13 13 12 10 9 8 8 7 6 6 6 7 7 7 7 7 7 7 7 7 7 7 7 7 8 8 8 8
6 7 8 8 9 9 10 11 11 12 12 13 13 13 12 12 11 11 9 8 7 7 6 5 6 6 6 7 7 6 6 6 6 6 6 7 7 7 8 8 8 9 9 9
6 7 7 8 8 9 10 11 11 11 12 12 12 12 12 11 10 9 9 8 7 7 6 6 6 6 6 6 6 6 6 6 7 7 7 8 8 8 8 9 10 11 11 11
6 6 6 7 8 9 10 10 10 10 11 12 11 11 10 9 9 9 8 8 7 7 6 5 5 6 6 6 6 7 6 7 7 8 8 9 9 10 10 10 11 11 12 13
6 6 6 6 8 9 9 10 10 10 10 11 11 11 10 9 9 8 8 7 7 7 6 5 6 6 6 6 7 7 7 8 8 9 9 10 11 11 12 12 12 13 14 14
7 6 6 6 7 8 9 9 9 10 10 11 11 10 10 9 9 8 7 7 7 7 7 6 6 6 7 7 8 8 9 9 9 10 11 12 12 12 13 13 14 14 14 14
6 6 6 6 7 7 8 9 9 9 9 10 10 10 10 9 9 8 7 7 7 6 7 7 7 7 8 8 9 10 10 10 11 11 12 12 12 12 13 13 14 14 15 15
6 5 6 6 6 6 7 8 8 9 9 9 9 10 9 8 8 7 7 7 7 6 6 7 7 8 9 9 10 10 11 11 11 12 12 12 12 12 13 13 14 14 15 15
5 5 5 6 6 6 6 7 7 8 8 8 8 9 9 8 7 6 6 6 7 7 7 7 7 8 9 9 10 11 11 12 12 12 12 12 12 12 13 13 13 14 14 14
5 5 5 5 6 6 6 6 7 7 7 7 7 7 7 7 6 5 6 6 6 6 6 6 7 7 8 8 9 10 10 10 11 11 11 11 11 11 11 12 12 12 12 13
6 6 6 6 6 6 6 6 6 6 6 6 6 6 6 5 5 5 4 4 5 4 4 5 6 6 7 7 7 8 8 9 9 9 9 10 10 10 10 10 11 11 11 11
6 6 6 6 7 6 6 6 6 6 5 5 5 5 5 5 4 4 3 3 3 3 3 4 4 5 5 6 6 6 7 7 7 7 8 8 8 8 8 9 9 9 9 9
7 7 7 7 7 7 6 6 6 6 5 4 4 4 4 3 3 3 2 2 2 2 2 3 4 4 4 4 4 4 4 4 5 5 5 5 5 5 6 7 7 7 7 7
8 7 7 7 7 7 7 7 7 6 5 4 4 4 3 3 2 2 2 1 1 0 1 1 2 2 3 3 3 3 2 3 3 3 3 3 3 3 4 4 4 4 4 3
9 9 9 8 8 8 8 8 7 7 6 6 5 5 4 4 3 3 2 2 2 2 1 2 2 2 2 3 3 3 3 2 2 2 2 2 2 3 3 2 2 1 0 0
9 10 10 10 10 9 9 9 8 8 8 7 7 6 6 5 5 5 5 4 4 4 4 4 4 4 4 5 5 5 5 4 4 4 4 4 4 4 4 4 3 3 4 4
11 11 11 11 11 11 11 10 10 9 9 9 8 8 8 7 7 7 7 7 7 7 6 6 7 7 7 8 8 8 8 8 7 7 7 7 7 7 7 7 7 7 7 8
13 13 13 13 13 12 12 12 12 12 11 11 10 10 10 10 10 10 9 9 9 9 9 9 9 9 9 10 10 11 11 11 11 10 10 10 10 10 11 11 11 11 11 11
14 15 15 15 14 14 14 14 14 14 13 13 13 13 12 12 12 12 12 12 12 12 11 11 11 12 12 12 12 13 13 14 14 14 14 14 14 14 14 14 14 14 15 15

GEFSNGP_500_meanwind_144.txt.gz
Wind_Speed
6 7 7 8 9 9 10 11 12 14 14 15 15 16 16 16 16 17 17 17 18 18 19 19 19 19 18 18 18 17 17 17 17 17 17 17 17 16 16 16 16 16 16 16
6 6 7 7 8 9 10 11 12 13 14 13 14 14 15 16 16 16 16 17 17 17 17 17 17 17 18 18 17 17 16 16 16 16 16 15 15 14 14 14 14 14 13 13
5 6 7 7 8 9 9 10 11 12 13 12 13 14 15 16 15 16 16 16 16 16 15 15 16 16 17 16 15 15 14 14 15 15 14 14 14 13 13 13 13 13 12 12
5 6 6 7 8 8 10 10 11 12 13 13 14 14 14 14 15 15 16 16 16 14 14 14 15 15 14 13 13 13 12 12 12 12 12 11 11 11 11 11 10 10 9 9
4 6 7 8 8 9 10 10 10 11 12 12 12 13 13 13 14 15 14 15 14 13 13 13 13 13 12 11 11 10 10 10 10 10 10 9 9 9 9 9 9 8 8 8
5 6 7 8 8 8 9 9 10 11 11 11 11 11 12 12 13 14 14 14 13 12 11 11 10 9 9 9 8 8 8 9 8 8 8 8 8 8 8 8 7 7 6 7
5 6 7 7 8 7 8 9 9 10 10 11 11 11 11 12 13 14 13 12 11 10 10 9 8 7 6 7 7 7 7 7 7 7 7 7 7 7 6 6 6 6 6 5
5 6 7 7 7 7 7 8 9 9 10 10 11 11 11 11 11 11 10 9 9 8 7 6 6 6 6 5 5 5 6 6 6 7 7 6 7 6 6 6 6 6 6 5
5 5 6 6 7 7 7 8 9 9 10 10 11 11 10 11 10 9 8 8 7 6 5 5 4 4 4 4 4 5 6 6 6 6 6 6 6 6 7 7 7 6 6 6
5 4 5 5 6 7 7 7 8 9 10 10 11 10 10 10 9 8 7 6 6 5 4 4 3 3 4 4 4 5 5 5 6 6 7 7 7 7 8 9 9 8 8 8
4 4 5 5 6 7 7 8 9 10 11 10 10 10 10 9 8 7 7 6 5 5 4 4 3 4 4 4 4 4 5 5 6 6 7 7 7 8 8 9 10 10 10 10
5 5 5 5 5 6 8 8 9 10 10 10 10 10 10 9 8 8 7 6 5 4 4 5 5 5 5 5 5 5 6 6 7 7 8 8 8 8 9 9 10 11 11 11
4 4 4 4 5 6 7 8 8 9 9 9 10 10 10 9 8 8 7 6 6 5 5 5 6 6 6 6 6 7 7 7 8 8 9 9 9 9 10 11 11 12 12 12
4 3 3 4 5 5 6 7 8 8 8 8 9 9 9 8 8 7 7 6 6 5 5 6 6 6 7 7 7 8 8 8 8 9 9 10 10 10 11 11 12 12 12 12
3 3 4 4 4 5 5 7 7 7 8 8 8 8 9 8 7 7 7 6 6 6 6 6 7 7 7 8 8 8 8 9 9 10 10 11 11 11 11 11 12 12 12 12
3 3 3 4 4 4 5 6 7 7 7 7 7 8 8 8 8 7 7 7 7 6 6 6 7 7 7 7 8 8 8 9 10 10 10 10 11 11 11 11 12 12 12 12
2 2 2 3 4 5 5 5 5 6 6 6 6 7 7 7 7 7 7 7 6 6 6 6 6 6 6 7 7 7 8 8 9 9 9 9 9 10 10 10 10 11 11 11
2 2 2 2 3 4 5 5 5 5 6 6 6 6 7 7 6 6 6 6 6 6 5 5 5 5 6 6 6 6 7 7 7 7 7 8 8 9 9 9 9 9 10 10
2 1 2 2 3 3 4 4 4 4 5 5 5 6 6 6 6 5 5 5 5 5 5 5 5 5 5 5 5 5 5 5 6 6 6 7 7 7 7 8 8 8 8 8
2 2 2 2 3 3 3 3 4 4 4 4 5 5 6 6 5 5 4 4 4 4 4 4 4 3 3 4 4 4 4 4 4 4 5 5 5 5 6 6 6 6 6 6
3 3 3 2 2 3 3 3 3 3 4 4 4 4 5 5 5 5 4 3 2 2 2 2 1 1 1 2 2 2 2 2 2 2 2 3 3 3 3 3 4 4 4 4
4 4 4 3 3 3 3 3 3 3 3 3 4 4 4 4 4 4 3 3 2 1 1 0 0 1 1 1 1 1 1 1 1 1 1 1 1 1 1 2 1 1 1 1
5 5 5 4 4 4 4 4 4 4 4 4 4 4 4 4 4 3 3 3 2 2 2 2 2 2 2 2 3 3 3 3 3 3 3 3 3 3 3 3 3 3 3 4
7 6 5 5 5 5 5 5 5 5 5 5 5 5 5 4 4 4 4 4 4 4 4 4 4 4 4 4 5 5 5 5 6 6 6 6 7 7 7 7 7 7 7 7
8 7 7 6 6 6 7 7 7 7 7 7 7 7 7 7 6 6 6 6 6 6 6 6 6 7 7 7 8 8 8 8 8 9 9 10 10 10 10 11 11 11 11 11
10 9 8 8 8 8 8 8 8 8 9 9 9 9 9 9 9 9 9 9 9 9 9 9 9 10 10 10 11 11 11 11 12 12 12 12 13 13 13 14 14 15 15 15
11 10 10 10 10 10 10 10 10 10 11 11 11 10 11 11 11 11 11 11 11 11 11 12 12 13 13 13 13 14 14 14 15 15 15 15 15 16 16 17 17 17 18 18

GEFSNGP_500_meanwind_150.txt.gz
Wind_Speed
10 9 10 10 12 13 15 16 17 18 19 20 21 22 22 22 22 22 22 22 21 21 21 21 21 20 20 20 19 19 20 20 20 20 20 19 19 18 19 19 19 19 18 18
8 8 9 11 13 14 15 16 17 18 19 18 19 20 20 21 21 22 21 20 20 20 20 20 19 19 19 19 18 19 18 18 18 18 18 17 17 17 17 17 17 17 16 16
8 9 9 11 12 13 14 16 17 18 18 18 19 19 19 20 20 20 19 19 19 18 18 18 18 18 17 16 16 16 16 15 16 16 15 15 15 15 15 15 15 14 14 13
9 9 11 10 11 13 14 15 16 17 17 17 18 18 18 18 19 18 18 18 17 16 16 16 16 15 15 14 14 13 13 13 14 14 13 12 12 12 12 12 12 12 11 11
8 9 11 11 12 14 15 15 15 16 17 17 18 18 18 18 18 18 18 17 15 15 14 13 13 13 13 11 11 11 11 12 11 11 11 10 11 11 11 10 10 10 10 9
7 9 10 11 12 13 14 15 15 15 16 17 17 17 18 18 18 17 17 15 14 13 12 12 12 11 10 9 9 9 9 9 9 9 8 9 10 10 10 9 8 9 8 8
8 9 10 11 12 12 13 14 15 15 15 15 16 16 16 16 16 15 14 13 12 12 11 10 9 9 8 8 8 8 7 7 6 6 7 8 8 9 9 9 8 7 7 7
9 10 10 11 11 11 12 13 13 13 14 14 14 14 15 15 14 13 12 11 10 10 9 9 8 8 7 7 6 6 6 5 6 7 7 8 8 8 8 9 9 8 7 7
8 9 10 9 10 10 11 11 12 13 13 13 13 14 14 13 12 11 9 9 8 8 7 7 6 6 6 5 4 4 4 4 5 7 7 7 7 7 7 8 8 8 8 7
8 9 9 9 9 10 10 11 11 11 12 12 13 13 13 11 10 9 9 8 6 6 5 5 5 5 4 3 3 3 3 5 5 6 6 7 7 7 7 7 8 8 9 9
8 9 9 9 8 9 9 10 10 10 11 12 12 13 12 10 9 9 8 7 6 5 5 5 4 4 3 3 3 4 4 5 5 6 7 7 7 7 7 8 8 9 9 9
9 9 9 8 8 8 8 8 9 10 10 11 11 11 10 10 9 8 7 7 7 6 5 5 5 4 4 3 4 4 4 5 5 6 6 6 7 7 8 8 8 9 9 10
9 9 8 7 7 7 7 7 8 9 9 10 11 10 10 9 9 8 7 7 6 6 5 5 5 5 5 5 5 4 4 5 5 5 6 6 6 7 7 7 8 8 9 9
8 7 7 6 6 6 6 7 7 8 8 9 10 10 10 9 8 7 7 7 6 6 5 5 5 5 5 5 5 5 5 6 5 5 6 6 6 7 7 7 8 8 9 9
5 5 5 5 5 6 6 6 6 7 8 9 9 10 9 9 8 7 7 6 6 6 5 6 5 5 4 4 4 5 6 6 6 6 6 6 6 7 7 7 7 8 8 8
5 5 4 4 5 5 5 5 5 6 7 8 8 8 8 8 8 8 7 6 5 5 5 5 5 5 5 4 5 5 6 6 6 6 6 6 6 7 7 7 7 7 7 7
5 4 4 4 4 4 4 4 5 5 6 7 7 8 7 7 7 7 6 5 5 5 5 5 5 5 5 5 5 5 5 6 6 6 6 6 6 6 6 6 6 6 6 6
5 4 4 4 4 4 3 4 4 4 5 6 6 7 7 6 6 6 6 5 5 4 4 4 4 5 5 4 4 4 4 5 5 5 5 5 5 5 5 5 5 5 4 5
5 4 4 4 4 3 3 3 3 4 5 5 5 6 6 6 6 5 5 5 5 5 5 5 5 5 5 4 4 4 4 4 4 4 4 4 3 4 4 4 3 3 3 3
5 5 4 4 4 3 3 3 3 3 4 4 5 5 5 5 5 5 5 5 4 4 4 4 5 4 4 4 4 4 3 3 4 4 4 3 3 3 3 3 2 2 2 2
6 5 5 4 4 4 4 3 3 3 4 4 4 4 4 4 4 5 5 5 5 5 5 5 4 4 4 4 4 4 4 3 4 4 4 3 3 3 3 3 3 3 3 3
7 6 5 5 5 4 4 4 4 4 4 4 4 4 4 4 4 4 5 4 5 5 5 5 5 5 5 5 5 5 4 4 4 5 4 4 4 4 4 4 4 4 4 5
8 7 6 5 5 5 5 5 5 4 4 4 4 4 4 4 5 5 5 5 5 5 5 5 5 5 6 6 6 6 6 6 6 6 6 5 6 6 6 6 6 6 7 7
8 8 7 6 6 6 6 6 6 6 6 5 5 6 6 6 6 6 6 6 7 7 7 7 7 7 7 8 8 8 8 8 8 8 8 8 8 8 9 9 9 10 10 11
10 9 9 8 8 7 7 7 7 7 7 7 8 8 8 8 8 8 8 8 8 9 9 9 9 9 10 10 10 10 10 10 10 11 11 11 12 12 12 13 13 14 14 15
12 11 10 10 9 9 9 9 9 9 9 9 9 9 10 10 10 10 10 10 10 10 11 11 11 11 12 12 12 12 12 13 14 14 14 14 15 15 16 17 17 18 19 19
13 13 12 12 11 11 11 11 11 10 10 10 10 11 11 11 12 12 12 12 12 12 13 13 13 13 14 14 14 15 15 16 16 16 17 17 18 18 19 20 20 21 22 23

GEFSNGP_500_meanwind_156.txt.gz
Wind_Speed
12 13 14 14 14 14 15 17 17 16 16 16 17 18 18 18 18 18 17 18 18 16 16 17 17 16 16 15 16 16 16 16 15 15 15 15 15 16 16 16 15 14 14 13
12 13 13 14 13 14 15 16 15 15 15 16 16 16 17 18 18 18 18 18 17 16 16 16 16 16 15 14 14 15 15 14 14 13 13 14 14 15 15 14 13 13 12 11
12 12 13 12 11 12 13 14 14 14 15 16 16 16 17 17 17 18 17 17 16 16 16 16 15 14 13 13 14 14 13 12 12 12 12 12 13 13 13 12 11 10 10 9
12 12 11 10 10 11 12 13 13 13 15 15 15 16 17 17 17 18 17 17 16 16 15 14 14 13 12 12 12 12 11 10 11 10 10 11 11 12 11 11 10 9 8 6
11 10 10 10 10 10 11 11 12 13 14 15 16 17 17 17 17 17 17 16 15 14 13 12 11 11 10 10 11 10 9 9 9 9 9 9 10 10 10 10 9 8 7 6
10 10 9 9 9 9 10 10 12 13 14 16 16 17 17 17 16 16 15 14 12 11 10 9 9 8 8 8 8 8 7 7 7 7 7 7 8 9 9 9 8 7 7 6
9 9 8 8 8 9 9 11 12 13 14 15 15 16 16 15 14 13 12 11 10 9 7 7 7 6 6 6 6 6 6 6 6 6 6 6 7 7 8 8 8 8 8 7
8 8 8 8 9 9 9 10 12 12 13 13 14 14 14 13 12 10 9 8 7 6 6 6 5 5 5 4 4 4 4 5 5 5 6 6 7 7 7 8 8 8 8 7
7 7 7 7 8 8 9 10 11 11 11 12 12 12 11 11 10 8 7 6 6 6 5 5 5 4 4 4 4 3 4 5 5 5 5 6 6 7 7 8 8 8 8 8
7 8 8 7 7 7 8 9 10 9 10 11 11 11 11 10 9 7 6 5 5 5 5 5 5 4 4 4 4 4 4 5 5 5 5 5 6 6 7 7 8 8 9 8
7 7 7 7 6 6 7 9 8 9 10 10 11 11 10 9 8 7 7 6 5 5 5 5 5 5 5 5 5 5 5 5 5 5 5 5 5 6 7 7 7 8 8 8
7 7 7 6 6 6 7 8 8 8 9 9 10 10 9 9 8 7 7 6 6 6 6 6 6 6 6 5 5 5 5 6 5 5 5 5 6 6 6 6 6 7 7 8
6 6 6 5 5 5 6 6 6 7 7 8 9 10 10 9 9 8 8 7 7 7 7 7 7 6 6 6 6 6 5 5 5 5 5 5 6 6 5 5 6 6 6 7
5 5 4 4 4 5 5 5 5 6 6 7 8 9 9 9 9 8 8 8 8 8 8 8 8 7 6 6 6 6 6 6 5 5 5 5 6 6 5 5 5 5 6 6
5 5 4 3 3 4 4 4 4 5 6 7 7 7 8 9 9 9 8 8 7 7 7 7 7 7 7 6 6 6 6 6 5 5 6 5 5 6 5 5 5 5 5 5
5 4 3 2 2 3 3 3 4 4 5 6 6 7 8 8 8 8 8 7 7 7 7 7 7 7 7 7 6 6 6 6 6 6 6 5 6 6 5 5 5 4 4 4
4 3 2 2 2 2 2 2 3 4 5 5 6 7 7 7 8 8 8 7 7 7 7 7 7 7 6 6 6 6 6 6 5 6 6 5 5 5 5 4 4 4 3 3
4 2 2 1 1 1 0 2 3 4 4 4 5 5 6 7 7 8 8 7 7 7 7 7 7 6 6 6 5 5 6 6 5 5 5 5 5 5 4 4 4 3 3 3
4 3 2 2 1 1 0 1 2 3 4 4 4 5 5 6 6 6 7 7 6 6 7 6 6 6 6 6 5 6 6 6 5 5 6 5 5 5 4 4 3 3 3 3
5 4 3 2 2 1 1 1 1 2 3 4 4 4 5 5 6 6 6 6 6 6 6 6 6 6 6 6 6 6 6 6 5 6 6 5 5 4 4 4 3 3 3 3
6 5 4 3 2 2 1 1 1 2 2 3 4 4 4 5 6 6 6 6 6 5 5 5 5 6 6 6 6 7 7 7 7 7 6 6 5 5 4 4 4 5 5 5
7 6 5 3 3 3 2 2 1 2 2 3 3 4 4 5 5 5 5 5 5 5 5 6 6 6 6 6 6 6 7 7 8 8 8 7 7 6 6 7 7 7 7 8
9 7 6 4 4 4 3 3 2 2 3 3 3 4 4 5 5 6 6 6 5 5 6 6 6 7 7 7 7 8 8 8 8 9 9 9 8 8 8 9 9 10 10 11
9 8 7 6 5 5 4 4 4 4 4 4 4 5 5 6 6 7 7 7 7 7 7 7 7 8 8 9 9 9 10 10 10 10 10 11 11 11 11 12 12 13 14 14
9 8 8 7 7 6 6 5 5 5 5 5 6 6 6 7 7 8 8 8 8 9 9 9 9 10 10 11 11 11 12 12 12 12 13 14 14 14 15 16 16 17 17 18
10 9 9 8 8 7 7 7 7 6 7 7 7 8 8 8 9 9 9 10 10 10 11 11 11 11 12 13 14 14 14 15 15 16 17 17 17 18 18 19 20 20 21 22
10 10 9 9 8 8 8 8 8 7 8 8 9 9 10 10 11 11 11 11 11 11 12 12 13 13 14 15 16 16 17 17 18 19 20 20 21 21 21 22 22 23 24 25

GEFSNGP_500_meanwind_162.txt.gz
Wind_Speed
16 16 16 15 15 16 16 18 19 18 18 18 19 20 20 19 19 20 20 20 19 18 18 17 17 16 16 16 15 14 14 14 14 14 15 15 15 15 16 15 15 15 14 13
15 15 16 16 16 16 17 18 19 18 18 18 19 19 19 19 19 19 19 19 19 18 17 17 16 15 15 14 13 12 12 13 13 14 14 14 14 14 14 14 14 13 12 12
15 15 14 14 14 15 16 16 17 17 17 17 17 18 18 18 18 19 19 18 18 17 17 16 15 15 13 12 12 11 11 12 12 12 12 13 13 13 13 12 12 11 11 11
15 14 14 13 13 14 15 16 16 15 16 16 16 16 16 16 16 17 17 16 16 16 15 15 13 12 11 11 11 10 10 11 11 11 12 12 13 13 12 11 10 10 10 11
14 15 14 13 13 13 14 14 14 14 14 15 15 14 14 14 14 15 14 15 15 14 13 12 11 10 9 9 8 8 8 9 9 10 10 11 11 11 10 9 9 9 9 10
14 15 14 12 12 13 13 12 12 12 13 13 13 13 13 13 13 13 13 13 12 11 10 9 8 7 7 7 7 7 7 8 8 9 9 10 10 10 9 9 9 9 9 9
13 13 12 12 12 12 11 11 11 11 11 12 12 12 12 12 12 12 11 11 10 9 7 7 6 6 6 6 6 6 6 7 7 7 8 8 8 9 8 8 8 8 8 8
12 12 11 11 11 10 10 10 10 10 10 11 11 11 11 11 10 10 9 9 8 7 6 6 6 5 5 5 5 5 5 5 6 6 7 8 8 8 8 7 8 8 8 7
12 11 10 10 10 9 9 9 9 9 10 10 10 10 9 9 9 8 8 8 7 6 6 6 5 5 4 4 4 4 4 5 5 6 6 7 7 8 8 8 8 8 8 7
11 10 10 9 8 8 8 8 8 9 9 9 8 8 8 8 8 8 7 7 6 6 6 5 4 4 4 4 4 4 5 5 6 6 6 7 7 8 8 8 8 8 7 7
10 9 9 8 7 7 8 7 7 7 7 8 8 8 8 7 7 7 7 7 6 6 5 4 4 4 4 4 5 5 5 6 6 6 6 7 7 8 8 8 9 8 8 7
10 8 8 7 6 6 6 5 5 5 6 7 8 8 7 7 7 7 7 7 7 6 5 5 5 5 5 5 5 5 5 6 6 6 6 6 6 7 8 8 8 8 8 8
10 9 8 6 5 5 4 4 4 4 5 6 7 7 7 7 6 6 7 7 7 6 6 5 5 5 5 5 5 5 6 6 6 6 6 6 6 7 8 8 8 8 8 8
9 8 7 6 5 4 3 2 2 3 3 5 6 6 7 7 7 7 7 7 7 7 7 6 5 5 5 5 5 5 6 6 6 7 7 7 7 7 8 8 8 8 8 8
9 9 7 6 5 4 3 2 1 2 3 4 5 5 6 6 7 7 8 8 8 8 7 7 7 6 5 5 5 6 6 7 7 7 8 7 7 8 8 8 8 8 8 8
10 9 8 6 6 5 3 2 1 1 2 3 4 5 6 6 7 7 7 8 8 8 7 7 7 7 7 6 6 7 7 7 7 8 8 8 8 8 8 8 8 8 8 8
11 10 9 7 6 5 4 3 1 0 1 2 3 4 5 6 7 7 7 7 8 8 8 8 8 8 7 7 7 8 8 8 8 8 8 8 8 8 8 8 8 8 8 8
12 11 10 8 7 6 5 4 2 1 0 1 2 3 4 5 6 6 7 7 7 7 7 8 8 8 8 8 8 8 8 8 8 8 8 8 9 9 8 8 8 8 8 8
13 12 10 9 8 7 6 5 3 2 1 1 1 2 3 4 5 5 6 6 7 7 7 8 8 8 8 8 8 8 9 9 9 9 9 9 9 9 9 9 8 8 8 8
14 12 10 9 8 7 6 5 4 3 2 2 1 1 2 3 4 5 5 6 6 6 6 7 7 8 8 8 8 8 9 9 9 9 10 10 10 10 10 10 10 10 10 11
15 13 11 9 8 7 7 6 5 4 3 3 2 1 1 2 3 4 5 5 6 6 6 7 7 7 8 8 8 9 9 9 10 10 11 11 11 11 11 11 11 12 12 13
15 13 12 10 9 8 7 6 5 4 3 3 3 2 2 2 3 4 5 5 6 6 6 7 7 8 8 8 9 10 10 10 11 11 12 12 12 12 13 13 13 14 14 15
15 14 12 11 10 9 8 6 5 4 4 3 3 2 2 3 3 4 4 5 5 6 7 7 8 8 9 9 10 10 10 12 13 13 14 14 14 15 15 15 16 16 17 17
15 14 13 12 11 9 8 7 6 5 5 4 3 3 3 3 4 4 5 5 6 7 7 8 9 10 10 11 11 11 13 14 14 15 16 16 17 17 17 18 18 19 19 20
15 14 13 12 11 10 9 8 7 6 5 4 4 4 4 5 5 6 6 7 8 8 9 10 10 11 12 13 13 14 15 16 17 17 18 18 19 19 20 20 21 21 22 23
16 15 14 13 12 10 9 8 8 7 6 6 6 6 6 7 7 8 8 9 10 11 11 12 12 13 14 15 16 16 17 18 19 19 20 21 21 22 22 22 23 23 24 25
16 15 14 13 12 11 10 9 8 8 7 7 7 8 8 9 9 10 10 11 12 13 13 14 15 15 16 17 18 19 19 20 20 21 22 22 23 24 24 24 25 25 26 26

GEFSNGP_500_meanwind_168.txt.gz
Wind_Speed
16 16 17 16 16 17 18 18 18 18 19 19 20 20 19 19 19 19 19 19 19 18 18 18 18 18 17 17 16 15 15 14 14 14 14 14 14 14 14 14 14 14 14 14
18 17 17 17 17 17 18 17 18 18 18 18 19 18 18 18 17 17 18 18 18 17 16 16 16 15 14 14 13 12 12 12 12 12 12 12 12 13 12 12 12 12 12 12
18 18 18 18 17 17 17 17 17 18 17 17 17 16 16 16 16 17 17 16 16 16 15 14 13 13 12 12 11 11 11 11 11 11 10 11 11 11 11 11 11 11 11 11
18 18 19 17 17 17 16 16 17 17 16 16 15 14 15 15 16 16 15 15 14 14 13 11 11 10 10 10 9 10 10 10 10 10 10 10 10 10 10 10 10 10 9 10
18 18 18 17 17 16 16 15 16 15 14 14 13 13 13 14 14 14 13 13 12 11 11 10 10 9 10 9 9 9 9 9 9 9 9 9 9 10 10 10 9 9 9 9
18 18 17 16 15 14 15 14 14 12 12 12 12 12 13 13 12 12 12 11 11 10 10 9 9 8 8 7 7 7 8 8 7 7 8 9 9 9 9 9 9 8 8 8
16 16 16 14 13 12 12 12 10 10 10 10 11 11 11 11 11 11 11 10 9 8 8 7 7 6 6 6 6 6 6 7 7 7 8 9 9 9 9 9 8 8 8 8
16 16 15 12 11 11 11 10 9 9 9 9 9 9 9 10 10 9 9 8 7 7 6 6 6 5 5 4 5 5 6 7 7 7 7 8 8 8 8 8 9 8 8 8
16 15 13 12 11 10 10 9 9 8 8 7 8 8 8 8 8 8 8 7 7 6 6 5 5 4 4 4 4 4 5 6 6 6 6 7 7 8 8 8 9 9 9 8
16 14 12 11 10 9 8 7 7 7 7 6 7 6 6 6 7 7 7 6 6 5 4 4 4 3 4 4 3 4 4 5 5 6 6 6 6 7 8 8 9 9 9 9
16 14 13 11 10 8 8 7 6 6 6 6 5 5 5 5 5 6 6 5 5 4 4 4 3 3 3 4 4 4 4 4 5 5 5 5 6 7 8 9 9 9 9 8
16 14 13 11 9 8 7 6 5 4 4 4 4 4 4 4 4 5 5 5 5 4 4 3 3 2 3 4 4 4 4 5 5 5 5 5 5 6 7 8 8 8 8 8
16 15 13 11 10 8 7 6 5 4 3 3 3 3 3 3 3 3 4 5 5 5 5 4 4 3 3 3 5 5 5 5 6 6 5 6 6 6 7 8 8 8 8 8
17 15 13 11 10 9 8 6 5 3 3 2 2 2 2 2 3 3 4 4 5 5 5 5 5 4 4 4 5 5 5 5 6 6 6 6 6 7 7 7 8 8 8 8
17 15 13 12 11 9 8 6 5 3 2 2 1 0 1 2 2 3 4 4 5 5 5 5 6 5 5 5 5 6 6 6 5 6 7 7 7 7 8 8 8 8 9 9
17 15 14 13 11 10 8 7 5 4 3 2 2 1 1 2 2 3 4 4 5 5 4 5 5 6 6 6 6 6 6 7 7 7 7 8 8 8 8 8 9 9 9 10
17 16 15 14 12 11 10 8 7 6 4 3 3 2 2 2 2 3 3 4 4 4 5 5 5 5 5 6 6 6 7 7 7 8 8 8 8 8 9 9 10 10 10 11
17 16 16 14 13 12 11 10 8 7 6 5 4 3 2 1 1 2 2 3 3 3 4 4 5 5 5 6 6 7 7 7 8 8 8 8 8 9 10 10 11 11 11 11
18 17 16 15 15 14 12 10 9 8 7 6 5 4 3 2 0 1 1 2 2 3 3 4 4 5 5 6 6 7 7 8 8 8 9 9 9 10 11 11 12 12 13 13
17 17 17 16 14 14 13 12 10 9 8 6 5 5 3 2 1 1 1 2 2 3 3 4 4 5 5 6 6 7 8 8 8 9 10 10 11 12 12 13 13 13 14 14
17 17 16 15 15 14 14 13 11 9 8 7 6 5 4 2 1 1 1 1 2 3 3 4 4 5 5 5 6 7 8 9 9 10 11 12 12 13 13 14 14 14 14 15
18 17 15 15 15 14 14 13 12 10 9 8 7 6 4 3 2 2 2 2 2 3 4 4 5 5 6 6 7 8 9 10 11 12 12 13 14 14 15 15 15 16 16 16
19 17 16 15 15 14 14 13 12 11 9 8 7 6 5 4 3 3 3 3 3 4 5 5 6 6 7 8 9 9 10 11 12 13 14 15 15 16 16 17 17 17 18 18
19 18 17 16 15 14 14 13 12 11 10 9 8 7 6 5 4 4 4 4 5 5 6 6 7 7 8 9 9 11 12 13 14 15 16 16 17 17 18 19 19 20 21 22
19 18 17 16 15 14 14 13 12 11 11 10 9 8 7 6 5 5 5 5 6 6 6 7 8 8 9 10 11 12 13 15 16 17 17 17 18 19 20 21 22 23 23 24
19 16 16 16 15 14 14 13 12 11 11 10 10 9 8 7 6 6 6 6 6 7 8 8 9 10 11 12 13 14 15 17 18 18 19 19 20 21 22 23 24 25 26 27
19 17 17 16 14 13 13 12 11 11 10 10 10 9 8 8 7 7 7 7 8 9 10 10 11 12 13 14 15 16 17 18 19 19 20 21 22 23 24 25 26 27 28 28

GEFSNGP_500_meanwind_174.txt.gz
Wind_Speed
20 20 19 18 18 18 20 22 22 23 24 23 23 24 24 25 24 24 23 23 23 22 21 21 20 19 19 19 18 17 17 17 17 17 17 17 16 16 15 14 14 14 13 13
22 21 19 19 19 19 19 21 22 23 24 24 23 23 23 24 24 23 22 21 21 20 19 18 18 17 17 16 15 15 15 15 15 15 15 14 14 13 13 13 13 13 12 13
23 22 21 19 18 19 19 20 22 22 24 23 22 21 21 22 23 22 21 20 19 18 18 17 16 15 15 14 13 13 13 13 13 14 13 13 12 12 13 13 13 12 12 12
22 22 22 18 18 19 20 20 21 23 24 23 22 21 19 20 21 20 19 19 18 17 16 15 14 14 14 13 12 12 12 12 13 13 12 12 13 13 13 13 13 13 12 12
22 21 21 19 19 19 20 20 20 21 21 22 21 21 19 18 18 19 18 18 17 16 15 14 13 13 12 11 11 11 12 12 12 12 12 13 13 13 12 13 12 11 11 12
22 22 22 19 17 17 18 19 18 19 20 19 19 19 17 17 17 17 17 16 15 14 13 13 12 12 11 10 10 10 11 11 11 11 12 12 12 12 12 13 12 12 13 13
21 22 21 17 15 16 17 18 17 17 17 17 17 17 16 16 15 15 14 14 13 12 11 11 11 10 10 10 10 10 10 11 11 11 11 11 11 11 12 12 12 12 13 13
21 21 19 16 16 16 17 18 17 16 15 15 15 15 15 14 14 13 13 12 11 10 10 10 10 10 10 10 10 10 10 9 10 10 11 11 11 11 12 12 11 11 12 13
22 22 19 18 18 17 17 16 16 16 14 14 13 13 13 13 12 11 10 10 10 10 10 9 9 9 9 9 9 9 9 9 9 10 10 10 10 11 11 11 11 11 12 12
24 22 20 19 17 17 17 16 15 14 14 14 13 11 11 11 10 9 9 9 9 9 9 9 9 8 9 8 8 8 8 8 9 9 9 10 10 10 11 11 11 12 12 12
23 21 20 19 17 16 16 15 15 14 13 13 12 10 9 9 9 8 7 7 8 8 8 8 8 8 8 7 8 8 7 7 8 9 9 9 10 10 10 11 11 12 12 12
22 18 19 20 18 17 17 15 13 13 12 12 11 9 9 8 8 7 6 6 6 7 7 7 7 7 7 7 7 8 7 7 8 9 9 10 10 10 10 11 11 12 12 12
22 20 18 19 18 17 15 14 13 12 11 10 9 8 8 7 7 6 5 5 5 6 6 6 6 6 7 7 7 8 8 8 8 9 9 10 10 10 11 11 11 12 12 13
22 22 20 19 17 16 15 13 12 12 11 10 8 7 6 5 5 4 4 4 5 6 6 6 6 6 6 7 7 7 8 8 9 9 10 10 10 10 11 11 12 12 13 13
21 20 18 16 14 15 14 13 12 11 11 10 8 7 5 4 3 3 3 4 5 5 5 5 6 6 6 6 7 7 8 8 9 10 10 10 10 11 11 12 13 13 13 14
20 20 18 15 15 15 14 12 11 10 10 9 8 6 5 3 3 2 3 4 5 5 5 5 6 6 6 6 6 8 8 8 9 10 10 10 10 11 12 13 14 14 15 15
21 20 18 17 16 14 14 12 10 10 10 9 8 7 6 5 4 3 3 3 4 4 4 5 5 6 6 7 7 7 8 9 10 10 11 11 12 13 13 14 15 15 16 16
20 19 17 16 15 13 13 11 11 11 10 9 8 8 6 5 4 3 3 2 3 4 5 5 6 6 7 7 7 7 8 9 10 10 11 12 13 14 15 15 16 16 17 17
20 19 18 16 14 12 11 11 11 11 10 9 9 8 8 6 4 3 2 2 2 3 5 6 6 7 7 7 7 8 9 9 10 11 12 13 14 15 16 16 16 17 17 18
19 18 18 15 13 12 12 12 12 11 10 9 9 9 8 7 5 3 2 2 2 4 5 6 6 7 7 8 8 8 9 10 11 12 13 14 15 16 16 16 17 17 18 19
20 19 18 16 14 13 12 12 12 11 10 9 9 9 8 7 5 4 3 2 2 3 4 5 6 7 8 8 9 9 10 11 12 13 14 15 16 16 17 18 19 19 20 21
20 19 18 16 14 14 13 13 12 11 9 9 9 9 8 7 6 5 4 3 2 3 4 5 6 7 8 9 9 10 11 12 13 14 15 16 17 17 18 19 20 21 22 23
20 19 18 16 15 14 13 13 12 11 10 9 9 9 8 7 6 5 4 3 3 4 5 6 7 8 8 9 10 11 12 13 14 15 16 17 18 19 20 21 22 23 24 25
20 19 18 17 15 14 13 13 12 12 10 9 9 8 8 7 7 5 4 4 4 5 6 6 7 8 9 10 11 12 14 15 16 16 17 18 20 21 22 23 24 24 25 26
20 19 18 17 16 15 13 12 12 12 11 10 9 8 8 8 7 6 5 5 5 6 7 7 7 9 10 11 12 14 15 16 17 18 18 20 21 22 24 25 25 26 27 28
21 20 19 18 16 14 13 13 12 11 11 10 9 8 8 8 7 7 6 6 6 6 7 7 9 10 11 13 14 15 16 17 18 19 20 21 22 24 25 26 27 28 29 29
21 20 19 18 16 14 13 13 12 11 10 10 9 8 8 8 7 7 6 6 7 7 7 8 9 11 12 14 15 16 17 18 19 20 22 23 25 25 26 27 28 29 30 30

GEFSNGP_500_meanwind_180.txt.gz
Wind_Speed
23 23 23 22 21 21 22 23 24 23 23 22 21 19 18 19 19 19 19 19 18 17 17 18 18 17 17 17 17 17 17 16 16 16 16 16 16 15 15 14 15 15 15 15
24 23 24 23 22 22 22 23 23 23 23 22 21 19 20 19 18 19 19 18 17 17 17 17 17 16 16 16 16 15 15 15 14 14 15 15 14 14 14 13 13 14 14 14
24 24 25 23 21 22 22 23 22 22 21 20 19 18 18 19 18 18 18 18 18 18 18 16 16 15 15 15 15 15 14 14 14 13 14 14 13 13 13 12 12 12 12 12
24 24 24 20 20 21 22 21 20 19 18 17 17 17 17 17 17 16 16 17 17 17 16 16 15 14 14 14 14 14 14 13 13 13 13 12 12 12 12 12 12 12 12 11
23 25 24 20 19 20 21 19 19 18 17 16 17 16 16 16 16 16 15 16 16 15 14 14 13 12 13 13 13 13 13 12 12 12 12 12 12 12 12 12 12 12 11 11
24 24 24 20 19 19 19 18 17 17 16 15 15 15 15 15 15 15 14 14 13 13 13 13 12 12 12 12 12 12 12 12 12 11 11 12 12 12 12 11 11 12 11 11
23 23 23 21 19 18 18 18 16 15 14 13 14 14 14 15 15 14 14 12 11 12 11 11 11 11 11 11 11 11 11 11 11 11 11 11 12 11 11 11 11 12 12 12
21 22 21 19 18 18 18 17 16 14 14 13 13 14 13 13 13 14 13 11 10 10 10 10 10 10 10 10 10 10 10 10 10 10 10 11 11 11 11 11 11 11 11 11
21 20 19 18 17 17 17 17 16 15 13 12 12 13 12 12 12 12 12 11 10 9 9 9 9 9 10 10 9 9 9 9 9 9 9 10 10 10 10 10 10 10 10 11
19 19 18 18 18 18 18 17 16 14 13 12 12 12 11 11 11 11 10 9 10 9 8 8 8 9 9 9 8 7 7 7 8 8 8 9 10 10 10 10 11 11 10 10
17 16 17 17 18 19 18 16 15 14 14 12 11 11 11 10 10 9 8 7 7 8 8 8 8 8 7 7 6 6 6 7 7 7 8 9 9 10 10 10 11 10 11 11
19 18 19 17 17 18 19 17 15 13 12 11 11 10 10 10 9 7 6 6 5 5 6 6 6 5 5 5 5 5 5 6 7 7 8 9 9 10 11 11 11 11 11 12
20 19 19 18 18 18 19 18 15 14 12 12 11 10 10 9 7 6 6 5 4 4 4 5 5 4 4 4 4 4 5 6 7 7 8 9 10 10 10 11 11 12 12 12
20 20 19 18 17 17 18 18 17 15 13 12 11 9 8 7 6 5 5 4 3 3 3 3 4 4 4 4 4 4 6 7 7 8 9 9 10 10 10 11 12 12 13 13
18 20 19 18 17 16 17 17 16 14 12 11 10 9 8 7 6 5 4 3 3 3 3 3 3 3 3 4 4 5 6 7 8 8 9 10 10 10 10 11 12 13 13 14
18 19 18 17 17 17 17 16 14 11 10 9 9 9 7 6 6 5 4 3 2 2 2 3 3 3 3 3 4 5 7 8 8 9 10 10 10 11 11 12 13 13 14 14
16 16 17 17 18 17 17 15 12 10 8 8 8 7 7 6 5 5 4 4 3 3 2 2 2 3 3 3 4 6 7 8 9 10 10 10 11 12 12 13 14 14 15 15
14 15 15 16 17 17 15 13 12 10 9 8 7 6 6 6 5 4 4 4 4 3 2 2 2 3 3 3 4 5 6 7 9 9 10 11 11 12 13 13 14 15 16 17
13 13 14 14 16 15 14 12 11 9 9 9 8 7 7 6 5 4 4 3 4 3 2 2 2 2 3 3 4 5 6 7 9 9 10 11 12 12 13 14 15 16 17 17
12 13 14 14 14 13 13 13 12 11 9 9 9 8 7 6 5 4 4 3 3 3 2 1 2 2 3 3 4 5 6 8 9 10 11 11 12 13 14 16 17 17 17 18
13 13 13 14 14 14 14 13 12 11 10 10 9 8 7 6 5 4 3 3 3 2 1 1 1 1 3 4 5 5 7 8 9 10 11 12 13 14 15 16 17 18 18 19
12 13 14 14 15 15 15 14 12 12 11 11 10 9 8 7 6 4 3 3 2 2 1 1 1 2 3 4 5 6 8 9 9 10 11 12 14 15 16 18 19 19 20 20
13 14 14 14 14 15 15 14 13 12 12 11 10 9 8 7 5 4 3 3 2 1 1 1 2 2 3 4 5 7 8 9 10 11 13 14 15 17 18 19 20 20 21 21
14 15 15 15 15 15 15 15 13 13 12 11 10 9 8 6 5 4 4 4 2 2 1 2 2 3 4 5 6 7 9 10 11 12 14 15 16 18 19 20 21 22 22 23
16 16 15 15 15 15 15 15 13 13 12 11 10 9 8 6 6 5 4 3 3 2 2 3 3 4 4 6 7 8 10 11 12 13 15 16 17 19 20 21 22 23 24 24
16 16 16 17 17 17 16 15 14 13 12 11 9 9 7 7 6 5 4 3 3 3 3 3 4 4 5 6 8 9 11 12 13 15 16 18 19 20 21 22 22 23 24 25
18 17 17 17 18 17 16 15 14 13 12 10 10 9 8 7 6 5 4 3 3 3 3 3 4 4 5 7 8 10 12 14 15 16 18 19 20 21 22 22 24 25 25 26

GEFSNGP_500_meanwind_186.txt.gz
Wind_Speed
23 23 24 24 24 25 25 26 26 24 24 23 23 22 21 21 21 21 20 19 18 18 18 18 18 18 18 18 17 18 18 18 18 18 18 18 19 19 19 18 17 16 16 17
24 24 26 26 26 26 26 26 26 26 25 24 24 23 22 21 21 20 20 18 18 18 17 17 18 18 17 17 17 17 18 17 17 18 18 19 18 18 18 17 16 15 16 16
25 24 26 25 25 25 25 25 25 25 25 24 23 21 20 20 19 19 19 18 18 18 18 19 18 18 18 17 17 17 17 17 17 18 18 18 18 18 17 16 16 16 16 16
25 24 24 24 24 24 25 25 25 24 24 23 22 21 19 18 18 18 18 18 17 17 17 16 16 17 17 17 16 16 16 16 16 17 17 18 18 17 16 16 16 17 16 16
24 24 23 23 23 23 24 25 24 23 23 22 21 20 19 19 18 18 17 16 16 16 16 16 16 16 16 16 15 15 14 14 15 16 16 17 16 16 16 16 16 16 16 15
23 23 23 23 24 22 22 22 22 22 22 22 21 19 18 18 17 17 16 16 15 15 15 15 15 14 14 14 13 13 13 14 14 15 15 16 16 15 15 15 15 15 15 15
22 22 23 24 23 21 21 21 21 21 22 21 20 19 18 18 17 16 16 15 15 14 15 15 13 12 12 13 13 13 13 13 14 14 14 14 14 14 15 15 14 15 15 15
23 23 23 23 22 22 22 21 21 21 21 20 19 18 17 16 16 15 14 14 13 13 13 13 12 11 11 12 12 12 11 11 11 11 12 13 13 13 14 14 14 14 14 14
23 22 22 23 22 21 21 21 21 21 20 19 18 17 16 15 15 14 13 13 12 11 11 11 11 10 10 11 11 10 10 10 10 10 12 12 12 13 14 14 14 14 14 14
22 21 21 21 20 19 20 20 20 20 19 18 18 16 15 15 14 13 13 12 11 10 11 11 11 10 11 11 10 9 8 8 9 10 11 11 11 12 13 14 14 14 14 14
21 20 20 18 19 19 18 19 19 20 18 17 17 16 15 14 14 12 12 12 11 10 10 10 9 9 9 9 8 7 7 7 8 9 10 10 11 12 12 13 14 14 14 14
20 19 19 19 19 19 19 18 18 18 17 17 17 16 16 15 14 12 11 11 11 9 9 8 7 7 7 6 6 5 6 6 7 8 9 10 10 11 13 14 14 15 15 15
21 20 20 20 19 19 19 18 17 17 16 16 16 16 15 14 12 11 10 10 10 9 7 6 6 5 5 4 3 4 5 6 7 8 9 10 11 12 13 13 14 15 16 16
21 21 21 20 19 18 18 17 16 15 14 14 14 14 12 12 10 8 8 8 8 7 6 5 3 3 4 3 4 4 5 6 7 8 9 10 12 12 13 13 14 15 15 16
21 21 20 19 19 18 17 16 15 14 12 12 12 11 10 9 8 6 6 6 6 6 5 4 3 3 3 3 4 5 5 6 8 9 10 11 12 12 13 13 14 15 15 16
19 19 19 19 19 18 16 15 14 13 12 11 11 10 9 8 6 5 5 5 5 5 4 4 3 3 3 4 4 5 6 7 8 9 11 12 12 12 12 13 14 15 16 17
18 17 17 17 16 15 13 13 12 12 11 11 10 9 8 7 6 5 5 5 4 4 3 3 3 3 3 4 4 5 6 7 8 9 11 12 12 12 13 14 15 16 17 18
16 15 15 14 14 13 12 11 10 10 10 10 9 8 7 7 6 6 5 5 4 4 2 2 3 3 3 4 4 5 6 7 8 9 11 12 12 13 14 15 16 17 18 19
15 14 13 13 12 11 10 10 10 10 10 9 9 9 8 7 6 5 5 5 4 3 2 2 2 3 3 4 4 5 6 7 8 9 10 11 13 13 14 15 16 17 19 19
14 13 12 11 10 10 10 10 10 10 9 9 9 10 9 7 6 5 5 5 5 4 3 2 2 2 3 4 4 5 6 7 8 9 10 12 13 14 15 16 17 18 19 20
14 13 12 11 11 10 10 11 11 11 10 10 10 10 9 8 6 6 5 5 5 4 3 2 2 2 3 3 5 6 6 7 8 9 11 12 14 14 15 16 17 18 19 21
14 14 13 11 11 11 11 11 12 12 11 11 11 10 9 8 7 6 6 5 5 4 3 2 2 2 3 3 4 5 6 7 8 10 11 13 14 15 16 17 18 19 20 21
13 12 11 11 11 11 11 11 12 12 12 12 11 10 9 8 7 6 6 6 5 4 3 2 2 2 2 3 4 5 6 8 9 11 12 13 15 17 17 18 19 20 21 22
12 11 11 11 12 12 12 12 12 12 12 11 11 11 10 9 8 7 6 6 5 4 3 3 2 2 3 4 4 6 7 8 10 11 12 14 15 17 18 19 20 20 21 22
13 12 11 12 12 12 12 12 12 13 13 12 12 12 11 10 9 8 7 6 5 4 4 3 3 3 4 4 6 7 8 9 10 11 13 14 16 17 18 19 20 21 22 23
13 13 13 13 14 14 14 14 14 14 13 13 13 13 12 11 10 9 7 6 6 5 4 3 3 3 4 5 6 7 8 9 11 12 14 15 17 18 19 20 21 21 22 23
15 14 15 15 15 15 16 15 15 14 14 13 13 13 13 12 10 9 8 7 7 5 4 4 4 4 4 5 6 8 9 10 12 14 15 16 18 19 20 21 21 22 23 24

GEFSNGP_500_meanwind_192.txt.gz
Wind_Speed
20 20 21 22 21 21 21 21 22 22 23 24 22 22 21 21 21 20 21 21 22 22 22 20 19 19 19 18 18 18 18 17 18 17 17 18 18 19 19 18 19 18 18 18
20 20 21 22 21 20 21 22 22 22 22 23 22 22 21 21 20 21 21 21 21 21 21 20 19 19 18 19 19 18 18 18 18 18 18 18 19 19 19 18 18 19 18 18
21 21 21 21 20 20 20 21 21 21 22 22 22 22 21 21 21 21 20 20 20 20 19 19 18 19 18 18 17 17 17 17 17 18 18 18 18 19 19 18 18 18 18 18
22 21 21 21 21 20 20 20 20 20 21 22 22 21 21 21 21 20 20 19 18 18 17 18 18 18 18 18 17 16 17 17 17 18 18 18 18 18 18 18 18 18 18 19
22 21 22 22 21 20 19 20 20 19 19 20 20 20 20 20 20 20 19 19 18 18 18 17 17 17 17 16 16 16 16 16 17 16 16 17 17 18 18 18 18 18 18 18
21 21 21 22 21 19 19 19 19 19 19 18 18 18 18 19 19 19 19 19 18 18 18 17 17 16 16 16 15 15 15 15 16 16 16 16 16 17 17 17 17 17 17 17
21 21 22 22 20 19 19 19 18 18 18 18 18 19 18 19 19 19 19 19 18 17 17 16 16 15 15 14 14 15 14 14 14 15 14 14 14 14 15 16 16 16 15 15
22 22 22 21 19 19 18 18 18 18 18 18 18 19 19 19 19 19 18 18 17 16 16 14 13 13 13 12 12 12 11 11 12 13 12 11 12 13 13 14 14 14 15 15
23 22 21 20 19 19 19 19 19 19 18 19 19 19 19 18 18 17 16 16 15 15 14 13 12 11 11 11 10 10 10 10 11 11 10 10 10 12 12 13 13 13 14 13
22 21 20 19 19 19 20 20 20 19 19 19 19 18 18 17 16 15 14 13 14 13 12 11 11 10 10 9 9 8 9 9 9 9 9 9 9 10 11 12 12 13 13 14
21 20 20 19 19 19 19 19 19 19 19 18 17 16 15 15 14 13 12 11 11 11 10 9 8 8 7 7 7 7 7 8 7 8 8 8 9 10 11 12 13 13 14 14
20 20 19 18 18 18 19 18 18 18 17 17 16 15 14 13 12 11 11 10 9 9 9 8 7 6 6 6 6 6 6 6 6 7 7 8 9 10 11 12 12 13 13 14
20 19 19 19 19 18 17 17 17 17 16 16 15 14 13 11 10 10 9 8 7 7 6 6 6 5 5 4 4 5 5 5 4 5 7 7 9 10 11 11 12 13 14 14
19 18 18 18 18 17 16 16 16 15 14 14 13 12 11 10 9 9 8 7 6 5 5 5 5 5 4 3 4 5 5 4 4 6 7 8 9 10 11 11 12 12 13 14
18 17 17 17 17 17 16 16 14 13 12 12 11 11 10 10 9 8 6 6 6 5 4 4 3 2 2 2 4 4 4 4 5 5 7 8 9 10 11 12 12 13 13 14
17 17 17 17 17 16 16 15 13 12 11 10 9 8 8 8 7 6 5 5 5 4 2 2 1 1 1 2 3 4 4 5 5 6 7 8 9 10 11 12 13 13 14 14
17 16 16 15 15 15 15 14 13 11 10 9 8 7 7 6 5 5 4 5 5 3 2 1 1 1 1 2 3 3 4 5 5 6 7 8 9 10 12 13 13 14 14 15
16 16 16 15 14 14 14 13 11 10 10 9 8 7 7 7 6 6 6 6 5 4 3 2 2 1 2 2 2 3 5 5 6 7 7 8 10 11 12 13 14 14 15 16
15 15 15 14 14 14 13 12 11 11 10 9 8 8 7 7 7 6 7 6 5 4 4 3 2 2 2 2 2 4 5 6 6 7 8 9 10 11 12 13 14 15 16 17
15 15 14 13 13 13 12 11 10 10 9 8 8 7 7 7 7 7 7 6 6 6 5 3 3 3 2 2 3 4 5 6 6 7 8 9 10 11 13 14 15 16 16 17
15 14 13 12 12 12 11 10 10 10 9 8 8 7 7 7 7 7 7 6 6 6 5 4 3 3 2 2 3 5 6 6 7 8 9 10 11 12 13 14 15 16 17 17
15 14 13 12 12 11 11 11 11 10 9 8 8 8 8 8 8 7 7 6 6 6 5 4 3 3 2 3 3 4 5 6 7 8 9 10 11 12 13 15 16 17 17 18
15 14 13 13 12 12 12 12 11 11 10 9 8 8 8 9 8 8 7 7 7 6 4 4 3 3 3 4 4 5 5 6 7 8 9 10 11 13 14 15 16 17 18 19
16 15 13 12 12 11 11 12 11 10 10 9 9 9 9 9 9 8 8 7 7 6 5 4 3 3 3 3 4 4 5 6 8 9 10 11 12 13 14 15 16 18 19 20
17 15 14 13 12 11 11 11 11 11 11 10 9 9 10 9 9 8 8 7 7 7 6 5 4 3 3 3 4 5 5 7 8 10 11 11 12 13 14 16 17 19 20 21
17 15 14 14 13 12 12 12 12 12 12 11 10 10 11 10 10 9 8 7 7 7 6 5 4 3 4 4 5 5 6 8 9 10 11 12 12 14 15 16 18 20 21 22
17 15 14 14 14 13 13 12 13 13 12 12 11 11 11 11 11 10 9 9 8 7 6 5 5 5 4 5 6 6 7 8 10 11 11 12 13 14 16 18 19 20 21 23

GEFSNGP_500_meanwind_198.txt.gz
Wind_Speed
17 17 17 17 18 19 19 20 22 22 22 22 22 24 25 24 24 23 22 23 24 23 23 23 24 24 24 23 23 24 23 21 20 19 19 19 19 20 20 20 19 18 19 19
18 19 19 19 19 20 21 21 22 22 22 22 23 24 24 24 25 24 24 24 24 24 23 24 24 24 24 23 23 22 21 19 20 19 19 19 19 20 20 20 19 18 18 19
20 19 20 21 21 21 22 23 23 23 23 23 24 25 24 24 24 24 25 24 24 23 23 23 24 24 23 22 22 20 20 19 18 18 18 18 18 19 19 18 17 17 18 18
21 20 20 22 22 21 21 22 23 23 23 23 24 24 24 25 24 24 25 24 23 23 22 23 22 22 22 21 21 19 18 17 17 17 17 17 17 17 17 17 17 18 18 18
22 22 23 23 23 21 22 23 24 24 24 23 23 23 23 23 23 24 23 22 22 23 22 22 22 22 21 20 19 18 17 17 17 16 16 17 16 15 16 16 16 17 18 17
24 24 24 25 23 24 25 25 25 24 25 25 24 23 23 23 22 22 22 22 22 22 22 22 21 21 21 20 19 18 17 16 16 15 15 15 15 14 15 16 16 17 16 16
24 24 25 25 25 24 25 25 25 25 26 26 25 24 24 23 22 22 22 22 22 21 22 22 21 21 20 19 18 17 16 15 14 14 14 14 14 14 14 15 15 15 15 16
24 24 25 25 25 25 25 25 25 25 25 25 25 24 23 22 22 21 22 21 21 21 21 20 20 20 19 17 17 15 14 14 13 13 13 13 13 13 14 13 13 14 15 15
25 25 25 26 25 25 25 24 24 23 23 23 23 23 22 22 22 22 21 20 20 20 19 19 18 17 17 16 14 14 12 12 12 12 12 11 11 12 12 13 13 14 15 15
26 25 25 25 24 24 23 23 22 22 22 22 22 22 22 22 21 20 19 19 19 18 17 17 16 15 14 14 13 12 11 11 11 10 10 9 9 10 11 12 13 13 14 15
26 26 25 23 23 23 22 21 20 20 20 21 22 22 21 21 20 19 18 18 17 16 15 15 14 13 13 13 12 10 9 9 9 8 8 8 8 9 10 11 12 14 14 15
26 25 24 23 22 21 21 20 20 20 20 21 21 21 20 19 17 17 17 15 15 14 13 12 12 12 11 11 9 8 8 8 7 7 6 7 8 9 10 11 13 14 14 15
24 24 24 23 22 22 21 20 19 19 19 20 19 19 18 17 15 15 14 13 12 11 11 10 9 9 8 8 7 7 7 7 7 6 6 7 8 10 10 12 13 14 15 16
24 24 24 22 22 21 20 20 19 18 18 18 17 17 16 15 14 13 11 10 10 9 8 8 7 7 6 6 6 6 6 6 6 6 7 8 9 10 11 12 13 14 16 17
23 23 22 22 21 20 19 18 18 17 17 16 15 15 14 13 12 11 9 9 8 8 7 7 6 5 5 5 5 5 6 5 5 5 7 8 9 10 11 12 14 15 17 17
23 22 21 20 20 19 18 17 17 17 16 16 15 14 13 12 11 10 9 8 7 7 7 6 5 4 3 4 5 5 5 5 5 6 7 8 10 11 12 13 14 15 16 17
21 20 20 19 18 17 17 16 17 16 15 15 14 13 12 11 10 9 8 7 7 6 6 5 4 3 3 3 4 4 4 5 6 7 9 9 10 11 12 13 15 16 17 17
20 20 20 19 17 16 16 16 15 15 15 14 12 12 11 11 9 8 7 7 6 5 5 4 3 2 2 2 4 4 4 5 7 8 9 10 11 12 13 14 15 16 17 17
20 19 19 18 17 16 16 16 15 14 13 12 11 11 10 10 9 7 6 6 6 5 4 3 2 2 2 2 3 5 6 7 7 8 9 10 12 13 14 14 15 17 17 18
20 19 18 18 17 16 15 15 15 14 13 12 11 11 10 9 8 6 5 6 6 5 5 4 3 2 2 3 4 5 6 7 7 8 9 11 13 13 14 14 16 17 18 18
20 19 18 17 17 16 15 15 14 14 13 12 11 10 10 9 8 7 6 6 6 6 5 5 4 4 3 3 4 5 6 7 7 8 10 11 12 13 14 15 16 18 18 19
20 19 18 17 17 16 15 15 15 14 13 12 12 10 9 9 8 7 6 6 6 6 6 5 5 5 4 3 4 5 6 7 8 9 10 11 12 13 14 15 16 17 18 19
20 19 18 18 17 17 16 15 14 14 13 12 11 11 10 9 9 8 7 7 7 6 6 6 6 6 5 4 5 6 6 7 8 9 10 11 12 13 14 15 16 18 19 20
21 20 19 19 18 17 16 15 15 14 13 13 12 11 10 10 9 8 8 7 8 7 7 6 6 6 5 5 5 6 6 7 8 9 10 11 12 13 14 16 17 19 19 21
21 21 20 19 18 17 16 15 15 14 13 13 13 12 11 10 10 9 9 8 8 8 7 7 7 6 5 5 6 6 6 7 8 9 10 11 12 13 15 16 18 19 20 21
22 21 20 19 18 17 16 15 14 14 13 13 13 12 12 11 10 10 9 8 8 8 8 7 7 6 6 6 6 7 7 8 8 9 9 11 12 14 15 17 19 20 21 22
21 21 20 19 18 17 16 15 14 14 14 14 13 12 13 12 12 11 10 9 9 9 8 8 7 7 6 6 7 7 7 7 8 9 10 11 13 14 16 17 19 20 21 22

GEFSNGP_500_meanwind_204.txt.gz
Wind_Speed
16 16 17 17 16 15 15 17 17 17 17 18 18 18 20 20 21 21 21 21 20 20 21 21 22 22 22 22 22 22 21 20 21 20 19 19 19 19 18 18 18 18 19 19
18 18 18 18 17 17 16 16 17 18 18 18 18 19 20 21 20 20 20 20 20 20 21 21 22 21 21 22 22 21 20 19 18 18 18 18 18 18 17 17 17 17 18 17
20 19 19 19 18 18 18 18 18 18 19 19 19 20 19 19 20 20 20 21 21 21 21 21 21 22 22 22 21 20 19 18 18 18 18 17 17 17 16 16 16 16 16 15
20 20 20 20 19 19 19 19 19 19 20 20 20 20 19 19 20 21 21 21 21 21 20 21 21 22 22 22 20 19 18 18 18 18 18 17 17 16 16 16 16 16 15 15
21 21 21 20 20 20 20 19 20 20 21 21 21 20 20 21 21 22 21 21 20 20 21 21 21 22 21 20 18 18 18 17 17 17 16 16 16 16 15 16 15 15 16 15
22 23 23 22 22 21 21 21 21 21 22 22 22 21 20 21 21 21 20 20 20 20 20 21 21 20 19 18 17 16 16 16 16 16 15 15 15 15 15 15 14 14 14 14
23 23 23 23 23 22 23 22 21 21 22 23 22 21 20 21 21 20 20 20 20 20 19 20 19 19 18 16 16 16 16 15 15 14 14 13 13 14 14 14 13 13 13 14
23 23 22 23 23 23 22 22 21 22 22 21 21 21 20 20 19 19 19 20 19 18 19 19 18 18 18 17 16 15 15 14 13 13 13 12 12 12 12 12 13 12 12 13
25 24 23 23 23 22 22 22 22 22 21 21 21 21 20 19 18 18 18 18 18 17 18 17 17 17 17 16 15 14 14 13 13 12 12 11 11 11 11 11 11 11 11 12
24 23 22 23 22 22 22 22 22 21 20 21 20 19 19 18 17 17 16 16 16 16 16 15 15 16 15 14 14 14 13 12 12 11 11 10 10 9 10 10 10 10 10 12
23 22 22 22 22 22 22 21 20 19 19 19 19 19 18 18 17 17 17 16 16 15 14 13 13 13 13 13 13 12 12 11 11 10 10 8 8 8 8 9 10 10 10 12
23 22 22 22 21 21 21 20 19 19 19 18 19 18 17 17 16 15 15 15 14 14 14 13 12 11 11 11 11 10 9 9 9 9 8 7 7 7 8 9 10 11 11 12
23 22 21 20 20 21 20 19 19 18 18 17 17 17 16 16 15 15 14 14 14 13 12 11 10 10 10 9 9 8 8 8 8 8 7 7 7 8 8 10 11 11 12 13
23 22 21 20 20 21 20 19 18 17 17 17 16 16 15 14 14 14 13 13 13 12 11 10 10 10 9 9 8 7 6 6 7 7 7 7 7 8 9 10 11 12 13 13
22 21 20 20 20 20 19 18 17 16 16 16 16 15 14 14 13 12 12 11 11 10 9 9 9 9 8 7 6 4 4 5 6 6 7 7 8 8 10 11 12 13 14 14
21 20 20 20 20 20 19 17 16 16 16 15 14 13 13 13 12 12 11 11 10 8 7 7 7 6 5 5 4 3 3 4 5 6 7 7 9 10 11 12 13 13 13 14
21 20 20 20 20 19 18 17 17 17 16 14 13 13 12 11 11 11 11 10 9 7 7 6 5 5 4 3 2 1 2 4 6 7 7 8 10 11 11 12 12 13 13 14
20 20 21 20 20 19 18 17 17 16 15 14 13 12 11 11 10 10 9 8 7 6 6 5 5 4 4 2 1 1 2 4 6 7 7 9 10 11 11 12 12 13 14 15
21 21 21 20 20 19 18 16 15 15 14 13 12 12 11 10 10 9 8 7 6 6 5 5 4 4 3 2 1 1 3 5 6 7 8 9 11 11 11 12 13 14 14 16
21 21 21 20 20 19 17 16 15 14 13 12 12 11 10 9 9 8 7 6 6 5 5 5 4 3 3 2 1 2 4 6 7 7 9 9 10 11 12 13 13 14 15 16
22 22 21 21 20 19 17 16 15 14 14 13 12 11 10 9 9 8 7 7 6 5 5 6 5 4 3 3 3 3 5 6 7 8 9 9 10 11 12 13 13 14 15 16
23 22 22 21 20 19 17 16 15 15 15 14 13 12 11 10 10 9 8 8 7 6 6 5 5 4 4 4 4 5 5 7 7 8 9 9 10 11 12 13 13 14 15 17
23 22 22 21 20 19 18 17 16 16 15 15 14 13 13 12 11 10 9 9 8 8 7 5 5 5 5 6 6 6 6 6 8 9 9 9 10 11 12 12 13 14 16 17
23 23 22 21 20 19 18 17 17 16 15 15 15 14 14 13 12 11 10 9 9 9 8 6 7 7 7 7 6 6 6 7 8 8 9 10 10 11 11 12 14 15 17 18
24 23 21 20 20 19 18 18 17 17 16 15 15 15 14 14 13 12 11 10 10 9 9 8 8 8 7 7 7 7 6 7 7 8 9 10 10 10 11 13 14 16 17 18
22 21 21 20 20 19 19 18 18 17 16 16 15 14 14 13 13 13 12 12 11 10 10 9 9 8 7 7 7 6 6 6 7 8 9 9 9 11 12 13 15 16 17 18
22 21 20 19 19 19 19 18 18 17 16 16 15 14 14 14 13 13 13 12 11 11 11 10 10 9 8 7 7 6 6 6 7 8 8 8 9 10 12 13 15 16 17 18

GEFSNGP_500_meanwind_210.txt.gz
Wind_Speed
18 18 19 18 17 17 18 18 18 18 18 18 19 19 20 20 21 21 21 21 21 21 21 21 21 22 22 22 22 22 22 22 22 22 21 21 21 21 21 21 20 20 19 19
18 18 18 18 18 18 19 18 18 19 19 19 20 20 20 21 21 21 21 22 20 20 21 22 22 22 21 21 21 22 22 21 21 21 21 21 21 21 21 20 19 19 18 18
19 18 18 18 19 19 20 19 19 20 20 20 20 21 21 22 22 23 22 22 21 21 21 21 21 21 21 21 21 21 21 21 21 21 21 21 20 20 20 20 19 19 18 18
20 20 20 20 20 20 20 20 20 20 21 21 22 22 23 23 24 23 22 22 21 22 22 21 21 21 21 21 20 20 21 20 20 20 20 20 20 20 20 19 19 20 19 19
22 22 22 21 21 21 21 21 21 21 21 23 23 23 23 23 23 22 22 22 22 22 21 21 22 21 21 20 19 20 20 20 19 20 20 20 21 20 20 19 19 19 18 18
23 24 24 23 22 22 22 22 22 23 23 23 23 23 23 23 23 23 23 23 23 22 22 22 22 21 20 19 19 20 19 19 19 19 20 20 20 20 19 19 19 18 17 17
24 24 24 24 24 23 23 24 24 24 24 24 24 24 24 23 23 24 24 24 23 22 22 22 21 21 20 19 18 19 18 18 18 19 19 20 20 19 19 18 17 17 16 16
25 25 25 25 24 24 24 24 24 25 24 24 24 24 24 23 23 24 24 23 22 21 22 21 20 19 18 17 16 16 16 17 18 19 19 19 18 18 18 17 15 15 15 15
25 25 25 24 24 24 24 24 24 24 24 23 24 24 24 24 24 24 23 22 22 21 21 20 19 19 17 16 15 15 16 17 17 17 18 17 17 16 16 15 14 13 13 14
25 25 25 25 24 24 24 24 24 25 24 24 25 25 24 23 23 22 22 22 22 22 21 20 19 18 17 16 16 16 17 17 15 16 16 16 16 15 14 13 13 13 13 14
25 25 25 25 24 24 24 24 24 24 24 25 25 24 24 23 22 21 21 21 22 21 20 19 18 17 16 16 16 16 15 14 14 14 14 14 13 13 12 12 13 13 13 15
26 26 26 25 25 24 24 23 23 23 23 23 24 24 23 22 21 20 19 20 20 19 18 18 17 16 16 15 15 14 14 13 13 13 13 12 12 12 12 13 13 14 14 16
26 26 27 26 26 25 25 24 24 23 23 24 23 23 22 20 19 18 18 19 19 18 18 17 16 15 14 14 13 13 13 13 12 12 11 11 12 13 13 13 13 14 15 16
27 27 27 27 26 25 25 24 23 23 23 23 22 21 20 19 18 17 17 17 17 17 17 16 15 14 13 13 12 12 12 11 10 10 11 12 13 13 13 13 13 14 15 16
28 28 27 26 25 25 24 24 24 23 23 22 22 21 19 18 17 16 17 16 16 16 15 15 14 13 13 12 12 11 10 9 8 9 10 11 12 13 12 13 13 14 16 17
29 28 27 26 25 25 25 24 23 22 22 22 21 20 19 18 17 17 16 16 15 14 14 13 13 12 12 12 11 9 8 7 7 8 9 10 12 12 12 13 13 15 16 17
29 28 27 26 26 25 24 24 23 23 23 22 21 20 19 18 17 16 16 15 14 14 14 13 12 11 11 10 9 7 6 6 7 7 8 10 11 11 12 13 14 15 16 17
28 28 27 27 25 24 23 23 23 23 23 22 21 20 19 18 17 16 15 15 14 14 13 12 11 10 9 9 8 7 6 6 6 7 9 10 10 11 12 13 14 15 16 17
27 27 27 26 25 24 23 23 23 23 22 21 20 19 18 17 16 16 15 15 14 14 13 11 9 9 9 8 7 6 5 5 6 7 8 9 10 10 11 12 14 15 15 17
27 26 26 25 24 23 23 23 23 22 21 20 19 18 18 17 16 16 15 14 14 13 12 10 9 9 8 7 7 6 5 5 6 7 8 10 10 11 11 12 13 14 15 17
27 26 26 25 24 24 23 23 22 21 20 19 18 18 17 16 15 15 15 14 13 12 11 10 9 8 7 6 6 6 5 5 6 7 8 10 11 11 11 12 13 14 15 16
27 26 25 25 25 24 23 22 22 21 20 19 18 17 16 15 15 14 14 13 12 11 10 9 9 8 7 6 6 6 6 6 7 8 9 10 11 11 11 11 12 13 14 16
26 25 24 24 24 23 22 22 21 20 19 18 17 17 16 15 15 14 13 12 11 11 10 10 10 9 8 7 6 6 6 6 7 8 9 10 11 11 11 11 12 13 14 16
26 25 25 24 23 23 22 21 21 20 19 18 17 17 16 15 15 14 13 12 12 12 11 11 10 9 8 8 7 7 7 7 7 8 9 10 10 10 10 10 11 13 14 16
26 26 25 25 24 23 22 21 21 20 19 18 18 17 16 15 15 14 13 13 12 12 12 11 10 9 9 8 7 7 7 7 7 8 8 9 9 9 9 10 11 13 14 16
27 26 26 25 24 24 23 22 21 19 19 19 19 18 17 16 16 15 14 13 13 12 11 11 10 10 9 8 7 7 7 7 7 8 8 8 9 9 9 10 11 13 14 16
28 27 27 26 25 24 24 22 21 20 19 19 18 18 17 17 16 15 14 12 12 12 12 11 11 11 10 9 8 8 7 7 7 7 8 8 9 9 9 9 10 12 14 16

GEFSNGP_500_meanwind_216.txt.gz
Wind_Speed
13 14 14 15 15 16 16 16 17 18 19 20 20 20 20 21 21 21 21 21 22 22 22 22 22 23 23 21 21 22 21 20 20 20 20 19 19 20 19 19 20 20 21 21
14 15 15 15 16 16 17 17 18 19 19 19 19 19 20 20 20 21 21 21 22 22 22 22 22 22 22 21 21 21 21 20 20 19 19 18 18 19 19 20 21 21 21 21
15 15 15 16 17 17 17 17 18 19 19 19 19 20 20 20 20 21 21 22 22 21 23 23 23 22 21 21 20 20 20 19 19 19 18 18 19 19 19 20 20 21 21 22
16 16 16 17 17 18 18 19 19 19 20 20 20 20 21 21 21 22 22 23 23 23 23 23 22 22 21 21 20 20 19 19 19 19 19 19 19 19 19 20 20 21 21 21
16 17 18 19 19 19 20 20 20 20 21 21 20 21 21 22 23 23 23 23 23 23 23 23 22 21 21 20 20 20 20 19 18 18 18 18 18 19 19 19 19 19 18 18
17 18 19 21 21 21 21 21 21 21 22 21 21 21 22 22 23 23 23 23 23 23 22 22 21 20 21 20 20 20 20 19 18 18 18 18 17 17 18 18 17 17 16 17
19 20 20 22 22 22 21 22 22 22 22 22 22 22 22 23 23 23 23 23 23 22 22 21 21 21 20 20 20 20 19 18 17 17 17 17 16 16 16 16 16 16 16 17
20 20 21 22 22 22 22 22 22 23 23 23 22 22 22 22 23 23 23 22 22 22 22 22 21 21 21 20 19 19 18 17 17 17 17 16 15 15 15 15 15 16 16 16
20 20 21 22 22 22 23 23 23 23 23 23 23 23 23 23 23 23 23 23 22 21 21 20 20 20 20 19 18 17 16 16 16 16 15 15 15 14 14 15 15 15 16 16
21 21 21 21 22 22 23 23 24 24 24 23 23 23 23 23 23 23 23 22 21 20 20 19 19 19 19 18 17 16 16 15 14 14 14 14 14 14 15 15 15 15 16 16
21 21 22 22 23 23 24 24 24 24 24 24 24 23 24 23 23 22 22 21 20 19 19 18 18 18 17 16 16 15 14 14 13 13 14 14 14 15 15 15 16 17 16 16
22 22 23 23 24 24 24 25 25 24 24 24 24 23 23 23 22 21 20 19 18 17 17 16 17 17 16 16 15 14 14 14 13 13 13 13 14 14 14 15 15 16 16 16
23 23 23 24 24 25 25 25 25 24 24 24 24 24 23 22 21 20 20 19 18 17 17 17 16 16 16 15 14 14 13 13 13 13 12 13 13 14 13 14 15 15 15 15
23 23 23 24 25 25 25 25 24 24 24 24 23 23 22 21 21 20 18 17 17 17 16 16 16 15 14 14 14 13 13 13 12 12 12 12 12 11 11 12 13 14 14 14
24 24 24 24 25 26 25 24 24 24 23 23 23 22 22 21 20 19 17 16 16 16 15 14 14 14 13 13 13 12 12 12 11 11 11 11 10 10 10 10 11 12 13 14
25 25 25 25 25 25 25 24 24 23 23 22 22 21 21 20 19 17 16 15 15 15 14 14 13 13 13 12 12 11 11 10 10 10 10 10 9 8 8 10 11 12 13 14
25 25 25 25 25 25 25 24 23 23 22 21 21 21 20 19 18 17 15 15 15 15 15 14 14 13 13 12 11 10 9 9 9 9 9 8 7 7 8 9 10 11 12 13
26 25 26 26 26 25 24 24 23 22 21 20 20 20 19 18 17 17 16 15 15 15 14 14 13 13 12 11 10 9 9 9 8 8 7 6 6 7 8 9 10 11 12 13
26 26 26 26 26 25 25 24 23 22 21 20 20 20 19 18 17 16 15 15 15 15 14 13 12 12 11 9 8 7 7 7 7 6 6 6 6 6 7 9 10 11 12 13
27 26 26 26 26 25 25 24 23 22 21 21 20 20 18 17 17 16 15 14 14 13 12 11 10 10 9 8 7 7 7 7 7 6 6 6 6 7 8 9 10 11 11 13
27 26 26 26 26 25 24 23 23 22 21 20 20 19 18 17 15 14 14 14 13 12 11 10 9 8 8 8 8 8 7 7 7 7 6 7 7 7 8 9 10 11 12 13
28 27 26 26 25 24 23 23 22 21 20 19 18 17 16 15 14 14 14 14 13 12 11 10 9 8 8 8 8 8 7 7 6 6 7 7 7 8 9 10 10 10 11 13
27 26 25 25 24 23 22 22 21 20 19 18 17 15 15 15 14 14 13 13 12 11 10 10 9 9 8 8 8 8 7 7 7 7 7 7 8 9 9 10 9 10 11 12
27 26 25 24 23 23 22 21 20 20 18 17 16 15 15 15 14 14 13 12 12 11 10 9 9 9 8 8 8 7 7 7 7 7 7 7 8 9 9 9 9 10 10 11
27 26 25 24 23 23 22 21 20 19 18 17 16 16 15 15 15 14 13 13 12 11 11 9 9 9 8 8 8 7 7 7 7 7 8 8 8 8 9 9 8 9 10 11
27 26 26 25 24 24 23 22 21 20 19 17 17 16 16 15 15 14 14 13 12 12 11 11 10 9 9 9 8 8 7 7 7 7 8 8 8 8 8 7 7 8 9 11
27 26 25 25 24 24 23 22 22 21 19 18 18 18 17 16 16 15 14 13 13 12 12 12 11 10 10 9 9 8 7 7 7 7 8 8 8 8 7 7 7 8 10 11

GEFSNGP_500_meanwind_222.txt.gz
Wind_Speed
11 11 12 13 14 15 16 16 18 18 19 19 21 22 22 22 23 23 23 22 23 24 24 24 24 24 24 25 24 23 22 21 21 22 22 22 22 22 22 22 22 22 23 23
11 12 13 14 15 15 16 16 17 18 19 20 21 22 23 23 23 23 23 23 24 25 25 24 23 24 24 23 23 23 22 22 22 22 21 21 21 21 22 22 22 23 23 24
12 12 14 15 16 16 16 17 18 19 20 21 22 22 22 23 24 24 24 24 24 24 23 23 23 23 23 23 22 22 22 22 22 21 21 22 22 22 22 22 22 23 23 23
14 15 16 16 16 17 18 18 19 20 21 21 23 23 23 23 23 23 24 24 24 23 23 23 23 23 22 21 21 21 21 21 21 21 22 22 22 22 22 22 22 22 22 21
15 16 16 16 18 19 19 19 20 21 22 23 24 23 23 23 23 23 24 24 25 24 24 23 23 23 22 21 21 21 21 21 21 22 22 22 22 22 22 21 21 21 21 20
17 17 17 17 19 21 21 22 22 23 23 24 24 24 23 24 23 23 23 24 24 24 23 22 22 22 21 21 21 21 21 21 21 21 22 21 21 20 20 20 20 21 20 20
18 18 19 19 21 22 22 23 23 23 23 24 25 25 25 24 23 23 23 24 24 23 22 22 21 21 21 21 21 21 20 20 20 20 20 20 20 19 19 19 19 20 19 19
20 19 20 20 21 22 22 23 23 24 24 25 25 25 24 24 23 23 23 24 24 23 22 21 21 20 20 21 20 19 19 19 19 19 18 18 19 19 18 18 18 19 19 19
21 20 21 22 23 23 23 23 24 25 24 25 25 25 24 23 23 23 23 22 22 22 21 21 20 20 20 20 19 18 19 19 18 19 18 18 18 18 17 17 18 19 19 18
21 21 22 23 23 23 24 25 25 25 25 25 25 24 24 23 23 23 22 22 22 21 21 21 20 19 19 19 19 18 18 18 18 18 17 17 17 16 17 17 17 18 18 18
24 24 23 23 24 25 25 26 26 26 25 24 24 24 24 24 23 23 23 22 22 21 21 20 19 18 18 18 18 18 18 17 17 18 17 16 16 16 16 16 16 17 17 18
24 23 24 25 25 25 26 26 26 26 26 24 24 24 24 25 24 23 23 23 22 21 21 20 18 18 18 18 18 18 17 17 17 17 15 15 15 15 15 15 15 16 17 18
24 24 24 24 25 25 25 26 26 26 25 25 24 24 25 24 24 23 23 22 21 21 20 18 18 17 17 17 17 17 17 16 15 15 14 14 14 14 14 14 14 15 16 17
24 24 24 24 25 25 25 26 26 26 26 25 25 24 24 23 23 22 22 22 21 20 20 18 18 17 17 17 16 16 15 14 14 13 13 13 12 12 12 13 13 15 17 18
25 24 25 25 25 25 25 26 26 26 26 25 25 24 24 24 23 22 22 21 20 20 19 18 17 17 17 16 15 14 14 13 13 12 12 12 12 11 11 12 13 15 17 18
25 25 25 25 25 25 25 26 25 25 25 24 24 24 24 23 22 21 21 20 19 19 18 17 16 16 15 15 14 14 13 12 12 11 11 11 11 10 11 12 14 15 17 17
26 26 25 25 25 25 25 25 25 24 24 24 23 23 23 22 21 20 20 19 19 18 17 17 16 14 14 14 14 13 13 12 11 11 11 10 11 11 12 13 14 15 16 17
27 27 26 26 25 25 24 24 24 24 24 24 23 23 23 22 20 20 20 19 18 18 17 16 15 13 13 13 13 12 12 12 11 11 10 10 10 11 12 12 14 15 15 16
26 26 27 26 26 25 25 25 25 25 24 24 24 23 23 21 20 19 19 18 18 17 17 16 14 13 13 13 12 12 11 11 11 10 10 10 10 11 12 13 14 14 14 14
26 26 26 26 26 26 25 25 25 24 24 23 23 23 22 21 19 19 19 18 17 16 16 14 13 12 12 12 12 12 11 10 10 10 10 11 11 11 12 13 13 13 13 14
25 26 26 26 26 25 25 25 24 24 23 22 22 22 21 21 19 18 18 17 16 15 15 14 13 12 12 12 12 12 11 11 10 11 11 11 11 11 12 13 13 14 14 14
26 26 26 26 26 26 25 25 24 23 22 22 22 22 21 20 19 18 17 17 15 15 14 13 13 12 12 12 11 11 10 11 11 11 12 12 12 12 13 13 13 13 14 15
28 27 27 27 27 26 25 25 24 23 23 23 23 22 21 20 18 17 17 16 15 14 14 13 12 12 12 11 10 10 10 11 11 11 12 11 12 13 13 13 14 14 14 14
28 28 27 28 27 26 26 25 24 24 23 22 22 21 20 18 18 17 16 16 15 14 13 12 12 12 12 11 11 10 10 10 10 11 11 11 12 12 13 13 13 14 14 14
29 29 29 28 27 27 26 25 24 23 23 22 22 21 20 20 19 17 17 16 15 14 13 12 12 12 12 12 11 11 10 10 10 11 11 12 12 13 13 13 14 14 14 15
29 29 29 29 29 28 26 26 25 24 23 23 22 21 20 19 18 18 16 15 15 14 13 13 13 13 13 12 12 11 10 10 11 11 12 12 13 13 14 14 14 14 14 15
29 29 29 29 29 28 27 26 25 24 23 22 21 20 19 18 18 17 16 15 15 14 14 14 13 12 12 11 11 11 11 11 11 11 12 13 13 14 14 15 15 15 15 15

GEFSNGP_500_meanwind_228.txt.gz
Wind_Speed
11 11 12 13 13 12 13 14 15 16 16 17 17 17 18 19 20 21 21 22 22 21 21 21 21 21 20 20 19 20 19 19 19 19 19 20 21 21 21 21 21 22 22 22
11 12 13 14 14 14 13 14 15 16 16 16 17 17 18 19 20 21 22 22 21 21 21 21 21 20 20 20 20 19 19 19 19 19 20 20 21 22 22 22 22 22 23 23
13 12 13 14 14 14 14 15 16 17 17 18 18 18 19 20 20 20 21 21 21 21 20 21 20 20 20 20 20 19 19 19 19 20 20 21 22 22 22 21 21 22 23 23
15 14 15 15 15 14 14 15 16 17 17 18 19 20 21 21 20 20 20 21 21 21 20 20 19 19 20 20 20 20 20 20 20 20 21 21 21 21 20 20 21 21 21 22
16 16 16 15 15 15 15 15 17 18 19 19 20 21 21 21 21 21 21 21 21 21 21 20 19 20 20 20 20 21 20 20 20 20 20 20 20 20 20 20 21 21 21 20
17 18 18 16 16 16 16 17 18 19 20 21 21 22 22 22 21 21 21 21 21 21 21 20 20 20 20 20 20 19 19 19 19 20 20 20 20 20 20 20 20 19 20 20
18 20 19 18 17 17 17 18 19 20 20 21 22 22 23 22 22 21 21 21 21 21 21 20 20 20 19 19 18 18 18 19 19 19 20 20 19 19 19 18 18 19 19 19
19 20 19 19 18 18 18 19 19 20 21 21 22 22 21 21 22 21 21 21 21 20 20 19 19 19 18 19 18 18 18 18 18 19 19 19 19 19 18 17 18 18 19 19
19 19 19 19 19 19 20 20 20 21 21 21 22 21 21 21 21 21 21 21 20 20 19 18 18 18 19 19 19 18 18 18 18 18 18 18 18 17 17 17 17 18 18 18
20 20 20 20 20 20 21 21 21 21 21 22 22 21 21 21 21 20 20 20 20 19 18 18 18 18 19 19 18 17 17 17 17 18 17 17 16 16 16 17 17 18 17 17
21 20 21 21 21 21 22 22 22 22 23 23 23 23 22 22 21 20 19 19 19 19 19 19 19 18 18 17 16 16 16 16 16 16 16 15 15 15 16 17 17 17 17 16
22 21 22 22 22 21 22 22 23 23 23 24 24 23 22 22 21 20 20 20 20 20 19 19 18 17 17 17 16 16 16 15 15 16 15 14 13 14 15 15 16 16 16 16
23 22 22 22 22 23 23 24 24 24 24 24 24 23 22 22 22 21 20 20 19 19 19 18 18 17 17 16 15 15 15 14 14 14 14 13 13 13 14 14 14 15 16 16
24 24 23 23 23 23 24 24 24 24 23 23 22 22 22 22 22 21 21 20 19 18 18 18 17 17 16 15 15 14 14 13 13 13 13 12 12 13 14 14 14 15 15 16
24 24 24 24 23 23 24 24 24 23 22 22 22 22 22 22 22 21 21 20 19 19 19 18 17 16 16 15 14 13 13 13 13 12 11 11 13 13 13 13 14 14 15 16
24 24 24 24 24 24 23 23 23 23 22 22 22 22 22 22 22 21 20 19 19 19 18 18 17 15 14 14 13 13 13 13 12 11 11 12 13 13 12 13 14 14 14 15
24 24 24 24 23 23 23 22 22 22 22 22 22 22 22 22 21 21 20 19 19 18 17 17 16 15 13 13 13 13 13 12 11 11 12 12 13 12 12 13 13 14 14 15
25 25 24 24 23 22 22 21 21 21 21 21 21 22 22 22 21 20 19 18 18 17 16 15 14 13 12 12 12 13 13 12 12 12 12 12 12 12 12 13 13 14 14 15
24 25 25 24 23 22 22 22 21 21 22 22 22 22 22 21 20 19 19 19 18 17 16 15 14 13 12 12 13 13 12 12 12 12 12 12 12 12 12 13 13 14 15 16
23 23 23 23 22 22 22 22 22 22 22 22 22 22 21 21 20 20 20 19 18 17 15 14 13 13 12 12 12 12 12 12 12 12 12 12 12 12 12 13 14 14 14 16
24 23 22 22 22 23 23 23 23 22 22 22 22 22 21 21 20 20 20 19 17 15 14 14 13 13 13 12 11 12 12 12 12 12 12 12 12 12 13 14 14 14 15 16
24 24 23 23 24 24 24 23 23 23 23 23 23 22 22 22 21 20 19 18 17 16 15 14 14 13 13 13 12 12 12 12 12 11 11 12 13 13 13 14 14 14 15 16
25 25 25 25 25 25 24 24 24 24 24 23 23 23 23 22 21 20 18 17 17 17 16 15 14 14 14 14 13 13 13 12 12 11 12 12 13 13 13 13 13 14 15 16
25 25 25 25 25 26 25 24 24 24 24 23 23 23 22 22 20 18 18 17 18 17 16 16 15 15 15 15 14 14 13 13 13 12 12 13 13 14 14 13 13 14 14 15
25 26 26 25 25 25 25 25 25 24 23 23 23 23 23 22 21 19 19 18 18 17 17 15 15 14 15 14 14 14 13 13 13 12 12 13 13 13 13 13 13 14 14 15
27 26 26 26 25 25 25 24 24 24 23 22 22 22 22 22 21 20 20 20 18 17 17 16 15 15 15 15 14 14 14 13 12 12 12 13 13 13 13 14 14 14 15 16
26 26 25 25 25 25 25 25 24 23 23 23 22 22 21 21 20 19 19 19 18 17 16 16 15 14 14 14 13 13 13 13 12 12 12 12 13 13 14 14 14 14 16 17

GEFSNGP_500_meanwind_234.txt.gz
Wind_Speed
15 15 15 15 15 15 16 16 17 17 17 17 18 18 18 18 18 18 18 18 20 20 19 18 17 18 19 20 20 19 19 18 19 19 18 19 20 20 20 20 21 21 22 22
16 16 16 15 15 15 16 17 17 17 17 17 18 18 18 18 19 19 18 19 19 19 19 18 18 19 19 19 19 19 19 19 19 18 18 19 19 19 20 21 22 22 23 23
17 17 17 17 16 16 17 17 17 17 17 17 17 17 18 19 19 19 19 19 19 19 19 19 19 19 19 19 20 20 19 19 19 19 19 20 20 20 21 21 22 22 22 22
18 18 18 18 17 17 17 17 17 18 18 18 18 19 19 20 20 20 19 19 19 19 20 19 19 19 19 19 20 20 20 19 19 20 20 20 20 21 21 21 21 21 21 21
20 20 19 19 18 18 17 17 18 19 19 19 19 19 19 20 20 20 19 19 19 20 20 19 19 19 19 20 20 20 20 19 19 19 20 20 20 20 20 20 20 19 19 20
21 21 21 19 19 19 19 18 18 18 19 19 19 19 19 19 19 19 19 19 19 20 20 19 19 19 19 20 21 20 20 19 19 19 19 18 18 19 19 19 19 19 19 19
22 22 22 21 20 20 20 20 19 19 19 19 19 19 20 20 19 19 18 19 19 19 20 20 20 20 20 20 20 19 19 19 19 18 18 18 18 17 18 19 18 18 18 18
22 22 21 21 21 21 21 21 20 20 20 20 20 20 19 19 19 19 18 19 19 20 20 20 20 20 19 19 19 19 19 18 18 18 17 17 17 17 18 18 17 17 17 18
22 22 22 22 22 22 22 22 21 21 21 21 21 20 20 19 19 19 19 19 19 19 19 20 20 20 19 19 18 17 17 17 17 17 16 16 17 17 18 17 17 17 17 17
23 23 23 24 23 22 22 22 22 22 22 22 21 20 20 20 19 19 19 19 19 19 19 20 20 19 19 18 17 16 16 17 17 17 16 16 17 17 17 16 16 16 16 17
25 24 23 23 24 23 23 23 24 23 23 23 22 21 21 20 20 20 20 20 19 19 19 19 19 19 19 18 16 16 15 16 16 17 17 16 16 17 16 15 15 15 16 17
25 25 25 24 24 24 24 23 23 23 23 23 23 21 21 21 21 21 21 21 20 19 19 19 20 19 18 17 16 15 15 16 16 16 16 16 17 16 15 14 14 14 15 17
24 24 25 25 24 23 23 23 23 22 23 23 22 21 22 22 22 22 21 21 20 20 20 20 20 19 18 17 16 15 15 15 16 16 16 16 16 16 15 15 15 15 16 17
25 25 25 25 23 23 23 23 22 23 23 23 22 22 22 23 23 23 23 22 21 21 21 20 19 19 18 17 16 15 15 15 16 16 16 16 16 16 16 15 15 15 16 16
25 25 26 26 25 25 25 25 24 23 23 23 23 22 22 23 23 23 23 22 21 21 21 20 20 19 18 17 17 16 16 15 16 17 16 16 16 16 15 15 15 15 15 15
26 25 25 25 25 25 25 25 24 24 24 24 23 23 22 22 22 22 22 22 21 21 20 20 19 19 18 18 17 16 16 16 16 16 16 16 15 15 15 15 14 15 15 16
26 26 26 25 25 25 25 25 25 25 25 25 24 23 23 22 22 22 22 22 21 21 21 21 21 20 19 18 17 17 16 16 16 16 15 15 15 15 15 14 14 15 16 16
25 25 26 25 25 25 24 24 25 25 24 24 23 22 22 22 22 23 23 22 22 22 21 21 20 19 18 17 17 16 16 16 16 16 15 14 14 14 14 14 15 15 16 17
27 27 26 26 26 26 25 24 24 23 23 23 23 23 22 22 23 23 24 23 22 21 20 19 19 18 18 16 16 16 16 16 15 15 14 14 13 13 14 15 15 15 15 17
28 28 27 26 25 25 25 24 23 23 23 23 23 23 23 23 23 24 24 23 22 21 20 19 18 18 17 17 16 16 16 16 15 14 14 14 13 13 14 15 15 15 15 16
27 27 27 26 25 24 23 23 23 22 23 23 23 22 22 23 23 22 22 21 21 21 20 19 19 19 18 16 16 16 15 14 14 14 14 14 14 14 14 15 15 16 16 16
27 27 26 25 25 24 23 23 23 23 23 23 23 23 23 23 23 22 21 21 20 20 20 20 20 19 18 17 16 17 17 16 16 15 14 14 14 14 14 15 16 16 17 17
27 27 27 27 26 26 25 25 24 23 23 23 23 23 23 23 22 21 21 21 20 20 19 19 19 18 17 18 17 17 17 16 16 15 15 15 14 14 15 15 16 17 17 18
27 27 27 27 26 26 26 25 24 24 24 24 24 24 23 23 22 21 21 20 20 19 18 18 17 17 17 17 17 16 16 16 16 16 15 15 14 14 15 15 16 16 17 18
26 26 26 26 25 25 25 25 25 25 24 24 24 24 22 21 21 21 20 20 19 18 18 18 18 18 17 16 16 16 15 15 15 15 15 14 14 15 15 16 16 17 17 18
26 26 25 25 26 26 25 25 25 24 24 23 23 22 21 21 20 20 20 19 19 18 17 17 17 17 17 17 16 16 15 15 16 16 16 15 15 15 16 16 17 17 17 18
27 27 26 26 26 26 25 24 23 23 23 22 21 21 21 20 20 20 19 19 18 18 18 18 17 17 17 17 17 17 16 16 17 16 16 16 16 16 16 17 17 17 17 17

GEFSNGP_500_meanwind_240.txt.gz
Wind_Speed
14 14 14 14 14 13 13 13 13 14 14 14 14 15 15 16 16 17 17 17 17 17 16 16 16 16 16 17 18 18 18 18 18 18 19 19 19 18 19 19 19 19 20 20
15 15 15 15 15 15 15 14 14 14 14 14 14 15 15 16 16 16 16 17 17 17 16 16 16 16 16 17 17 17 18 18 18 17 18 18 18 18 18 19 19 19 19 18
16 15 15 16 14 14 15 15 15 15 15 14 15 15 16 16 16 16 16 16 17 16 16 17 16 16 16 17 17 17 18 18 17 17 17 18 18 18 18 18 17 17 17 17
17 17 17 17 16 15 16 16 15 15 15 15 16 16 16 16 16 16 16 16 16 16 16 16 16 16 16 17 17 17 17 17 17 17 18 18 17 17 17 17 17 16 16 16
19 19 19 19 17 17 16 16 16 16 17 16 16 16 16 16 16 16 16 17 17 16 16 16 16 16 16 17 17 17 17 17 17 18 18 18 18 18 17 17 16 16 16 16
20 20 20 19 19 18 17 17 17 17 17 17 16 16 17 17 16 16 16 17 17 16 16 16 16 17 17 17 17 17 17 17 17 17 17 17 17 17 16 15 14 14 15 15
21 21 21 21 20 19 18 19 18 18 18 18 18 18 18 17 17 17 17 17 17 16 16 16 17 17 17 17 17 17 17 17 17 17 17 16 16 15 15 15 14 14 15 15
21 21 21 21 21 20 20 20 19 19 19 19 19 19 18 18 18 18 17 17 17 16 16 16 17 17 17 17 18 18 17 17 16 16 15 15 15 15 15 15 15 15 15 16
22 22 22 21 21 21 21 21 21 21 20 19 19 19 19 19 19 18 17 17 17 17 17 17 17 17 18 18 18 17 17 16 15 15 14 15 15 15 15 15 15 15 15 16
22 22 22 22 22 22 22 22 22 22 21 20 20 19 19 19 19 18 18 17 17 18 18 18 18 18 18 18 17 17 16 15 14 14 14 15 15 16 16 16 16 15 16 17
23 23 23 23 23 23 23 22 22 21 21 21 20 20 20 19 18 18 18 18 18 18 18 17 17 18 17 17 17 16 15 15 14 14 15 15 16 17 16 16 16 16 16 16
23 24 24 24 23 22 21 22 22 21 21 20 20 20 20 20 20 19 19 19 19 19 18 18 18 18 17 17 16 15 15 14 14 14 15 16 16 17 16 16 15 15 15 16
24 23 23 23 24 23 22 21 22 21 21 21 21 21 20 21 21 21 20 21 21 20 19 19 18 17 17 16 16 15 15 15 15 15 15 16 17 16 16 16 16 16 16 16
24 24 23 23 22 23 23 23 22 23 23 23 22 22 22 22 21 21 21 22 21 20 20 19 18 17 17 16 16 16 16 16 16 16 16 16 17 17 16 16 16 15 16 16
25 24 23 23 23 23 23 23 23 23 24 24 24 24 23 23 23 22 22 22 22 21 21 19 18 17 17 17 16 16 16 16 16 16 16 16 17 16 16 16 15 16 16 17
26 25 25 24 24 24 24 24 23 23 24 24 25 24 24 23 22 22 22 22 21 21 20 19 18 18 18 18 17 17 17 17 17 18 18 17 17 16 16 15 15 16 16 16
26 25 25 25 24 24 24 25 24 24 24 23 24 24 23 23 22 22 22 21 21 21 20 19 19 19 19 19 18 18 17 18 18 18 17 17 16 16 16 15 15 16 16 17
26 25 25 25 25 25 25 24 24 24 24 23 23 24 24 24 23 22 21 21 20 19 19 19 19 19 20 19 18 18 17 17 17 17 17 17 16 16 15 15 16 16 16 17
25 25 25 25 25 25 24 24 24 23 23 23 22 22 22 22 21 21 21 20 19 18 18 18 18 18 18 18 18 18 17 17 18 18 17 17 16 15 15 15 15 16 16 16
25 25 24 24 24 23 24 24 23 23 23 23 22 22 21 20 20 20 20 20 19 18 18 18 18 17 17 17 17 17 17 17 17 17 17 17 16 15 15 15 15 15 15 16
25 24 24 24 24 23 23 23 24 23 23 23 23 22 21 20 20 20 20 19 18 18 18 17 17 17 17 17 17 17 17 17 17 17 17 16 15 15 15 15 15 15 15 15
25 25 24 24 24 24 24 24 24 24 24 23 23 22 22 22 21 21 21 20 20 19 19 18 18 18 18 17 17 17 17 17 17 17 16 16 16 16 15 15 15 15 15 15
24 25 25 25 25 24 24 24 24 24 24 23 23 23 22 22 22 22 21 21 20 19 19 19 19 18 17 17 17 16 16 16 16 16 16 16 16 16 16 16 15 15 15 15
24 24 25 25 25 25 25 24 24 24 24 24 23 23 23 22 22 22 21 21 21 20 19 19 18 17 17 17 16 16 15 15 15 16 16 16 15 16 16 16 16 16 16 16
25 25 25 25 25 24 24 24 24 24 24 23 23 23 22 22 21 21 21 21 20 20 19 19 18 17 17 17 17 16 15 15 15 16 16 16 16 16 16 16 16 16 16 16
24 24 24 24 24 23 23 23 24 24 23 23 23 22 22 21 20 20 20 20 20 19 19 18 18 18 17 17 17 16 16 16 16 16 16 16 16 16 16 16 16 16 16 16
22 23 23 23 23 23 22 22 23 23 23 23 22 22 21 21 20 20 19 19 19 19 19 19 18 18 18 17 17 17 16 16 17 17 17 17 17 17 17 16 16 16 16 16